[[{"header":{"parameterUnit":"m.s-1","parameterCategory":1,"la1":31.0,"la2":29.5877,"lo1":-88.7671,"lo2":-86.6584,"dy":0.0162,"dx":0.0185,"nx":115,"ny":88,"refTime":"2026-04-06T00:00:00:Z","depth":0,"parameterNumber":2,"parameterNumberName":"U-component_of_WINDS"},"data":[0.0,0.0,0.0,0.0,0.0,0.0,0.0,0.0,0.0,0.0,0.0,0.0,0.0,0.0,0.0,0.0,0.0,0.0,0.0,0.0,0.0,0.0,0.0,0.0,0.0,0.0,0.0,0.0,0.0,0.0,0.0,0.0,0.0,0.0,0.0,0.0,0.0,0.0,0.0,0.0,0.0,0.0,0.0,0.0,0.0,0.0,0.0,0.0,0.0,0.0,0.0,0.0,0.0,0.0,0.0,0.0,0.0,0.0,0.0,0.0,0.0,0.0,0.0,0.0,0.0,0.0,0.0,0.0,0.0,0.0,0.0,0.0,0.0,0.0,0.0,0.0,0.0,0.0,0.0,0.0,0.0,0.0,0.0,0.0,0.0,0.0,0.0,0.0,0.0,0.0,0.0,0.0,0.0,0.0,0.0,0.0,0.0,0.0,0.0,0.0,0.0,0.0,0.0,0.0,0.0,0.0,0.0,0.0,0.0,0.0,0.0,0.0,0.0,0.0,0.0,0.0,0.0,0.0,0.0,0.0,0.0,0.0,0.0,0.0,0.0,0.0,0.0,0.0,0.0,0.0,0.0,0.0,0.0,0.0,0.0,0.0,0.0,0.0,0.0,0.0,0.0,0.0,0.0,0.0,0.0,0.0,0.0,0.0,0.0,0.0,0.0,0.0,0.0,0.0,0.0,0.0,0.0,0.0,0.0,0.0,0.0,0.0,0.0,0.0,0.0,0.0,0.0,0.0,0.0,0.0,0.0,0.0,0.0,0.0,0.0,0.0,0.0,0.0,0.0,0.0,0.0,0.0,0.0,0.0,0.0,0.0,0.0,0.0,0.0,0.0,0.0,0.0,0.0,0.0,0.0,0.0,0.0,0.0,0.0,0.0,0.0,0.0,0.0,0.0,0.0,0.0,0.0,0.0,0.0,0.0,0.0,0.0,0.0,0.0,0.0,0.0,0.0,0.0,0.0,0.0,0.0,0.0,0.0,0.0,0.0,0.0,0.0,0.0,0.0,0.0,0.0,0.0,0.0,0.0,0.0,0.0,0.0,0.0,0.0,0.0,0.0,0.0,0.0,0.0,0.0,0.0,0.0,0.0,0.0,0.0,0.0,0.0,0.0,0.0,0.0,0.0,0.0,0.0,0.0,0.0,0.0,0.0,0.0,0.0,0.0,0.0,0.0,0.0,0.0,0.0,0.0,0.0,0.0,0.0,0.0,0.0,0.0,0.0,0.0,0.0,0.0,0.0,0.0,0.0,0.0,0.0,0.0,0.0,0.0,0.0,0.0,0.0,0.0,0.0,0.0,0.0,0.0,0.0,0.0,0.0,0.0,0.0,0.0,0.0,0.0,0.0,0.0,0.0,0.0,0.0,0.0,0.0,0.0,0.0,0.0,0.0,0.0,0.0,0.0,0.0,0.0,0.0,0.0,0.0,0.0,0.0,0.0,0.0,0.0,0.0,0.0,0.0,0.0,0.0,0.0,0.0,0.0,0.0,0.0,0.0,0.0,0.0,0.0,0.0,0.0,0.0,0.0,0.0,0.0,0.0,0.0,0.0,0.0,0.0,0.0,0.0,0.0,0.0,0.0,0.0,0.0,0.0,0.0,0.0,0.0,0.0,0.0,0.0,0.0,0.0,0.0,0.0,0.0,0.0,0.0,0.0,0.0,0.0,0.0,0.0,0.0,0.0,0.0,0.0,0.0,0.0,0.0,0.0,0.0,0.0,0.0,0.0,0.0,0.0,0.0,0.0,0.0,0.0,0.0,0.0,0.0,0.0,0.0,0.0,0.0,0.0,0.0,0.0,0.0,0.0,0.0,0.0,0.0,0.0,0.0,0.0,0.0,0.0,0.0,0.0,0.0,0.0,0.0,0.0,0.0,0.0,0.0,0.0,0.0,0.0,0.0,0.0,0.0,0.0,0.0,0.0,0.0,0.0,0.0,0.0,0.0,0.0,0.0,0.0,0.0,0.0,0.0,0.0,0.0,0.0,0.0,0.0,0.0,0.0,0.0,0.0,0.0,0.0,0.0,0.0,0.0,0.0,0.0,0.0,0.0,0.0,0.0,0.0,0.0,0.0,0.0,0.0,0.0,0.0,0.0,0.0,0.0,0.0,0.0,0.0,0.0,0.0,0.0,0.0,0.0,0.0,0.0,0.0,0.0,0.0,0.0,0.0,0.0,0.0,0.0,0.0,0.0,0.0,0.0,0.0,0.0,0.0,0.0,0.0,0.0,0.0,0.0,0.0,0.0,0.0,0.0,0.0,0.0,0.0,0.0,0.0,0.0,0.0,0.0,0.0,0.0,0.0,0.0,0.0,0.0,0.0,0.0,0.0,0.0,0.0,0.0,0.0,0.0,0.0,0.0,0.0,0.0,0.0,0.0,0.0,0.0,0.0,0.0,0.0,0.0,0.0,0.0,0.0,0.0,0.0,0.0,0.0,0.0,0.0,0.0,0.0,0.0,0.0,0.0,0.0,0.0,0.0,0.0,0.0,0.0,0.0,0.0,0.0,0.0,0.0,0.0,0.0,0.0,0.0,0.0,0.0,0.0,0.0,0.0,0.0,0.0,0.0,0.0,0.0,0.0,0.0,0.0,0.0,0.0,0.0,0.0,0.0,0.0,0.0,0.0,0.0,0.0,0.0,0.0,0.0,0.0,0.0,0.0,0.0,0.0,0.0,0.0,0.0,0.0,0.0,0.0,0.0,0.0,0.0,0.0,0.0,0.0,0.0,0.0,0.0,0.0,0.0,0.0,0.0,0.0,0.0,0.0,0.0,0.0,0.0,0.0,0.0,0.0,0.0,0.0,0.0,0.0,0.0,0.0,0.0,0.0,0.0,0.0,0.0,0.0,0.0,0.0,0.0,0.0,0.0,0.0,0.0,0.0,0.0,0.0,0.0,0.0,0.0,0.0,0.0,0.0,0.0,0.0,0.0,0.0,0.0,0.0,0.0,0.0,0.0,0.0,0.0,0.0,0.0,0.0,0.0,0.0,0.0,0.0,0.0,0.0,0.0,0.0,0.0,0.0,0.0,0.0,0.0,0.0,0.0,0.0,0.0,0.0,0.0,0.0,0.0,0.0,0.0,0.0,0.0,0.0,0.0,0.0,0.0,0.0,0.0,0.0,0.0,0.0,0.0,0.0,0.0,0.0,0.0,0.0,0.0,0.0,0.0,0.0,0.0,0.0,0.0,0.0,0.0,0.0,0.0,0.0,0.0,0.0,0.0,0.0,0.0,0.0,0.0,0.0,0.0,0.0,0.0,0.0,0.0,0.0,0.0,0.0,0.0,0.0,0.0,0.0,0.0,0.0,0.0,0.0,0.0,0.0,0.0,0.0,0.0,0.0,0.0,0.0,0.0,0.0,0.0,0.0,0.0,0.0,0.0,0.0,0.0,0.0,0.0,0.0,0.0,0.0,0.0,0.0,0.0,0.0,0.0,0.0,0.0,0.0,0.0,0.0,0.0,0.0,0.0,0.0,0.0,0.0,0.0,0.0,0.0,0.0,0.0,0.0,0.0,0.0,0.0,0.0,0.0,0.0,0.0,0.0,0.0,0.0,0.0,0.0,0.0,0.0,0.0,0.0,0.0,0.0,0.0,0.0,0.0,0.0,0.0,0.0,0.0,0.0,0.0,0.0,0.0,0.0,0.0,0.0,0.0,0.0,0.0,0.0,0.0,0.0,0.0,0.0,0.0,0.0,0.0,0.0,0.0,0.0,0.0,0.0,0.0,0.0,0.0,0.0,0.0,0.0,0.0,0.0,0.0,0.0,0.0,0.0,0.0,0.0,0.0,0.0,0.0,0.0,0.0,0.0,0.0,0.0,0.0,0.0,0.0,0.0,0.0,0.0,0.0,0.0,0.0,0.0,0.0,0.0,0.0,0.0,0.0,0.0,0.0,0.0,0.0,0.0,0.0,0.0,0.0,0.0,0.0,0.0,0.0,0.0,0.0,0.0,0.0,0.0,0.0,0.0,0.0,0.0,0.0,0.0,0.0,0.0,0.0,0.0,0.0,0.0,0.0,0.0,0.0,0.0,0.0,0.0,0.0,0.0,0.0,0.0,0.0,0.0,0.0,0.0,0.0,0.0,0.0,0.0,0.0,0.0,0.0,0.0,0.0,0.0,0.0,0.0,0.0,0.0,0.0,0.0,0.0,0.0,0.0,0.0,0.0,0.0,0.0,0.0,0.0,0.0,0.0,0.0,0.0,0.0,0.0,0.0,0.0,0.0,0.0,0.0,0.0,0.0,0.0,0.0,0.0,0.0,0.0,0.5378,0.0,0.0,0.0,0.0,0.0,0.0,0.0,0.0,0.0,0.0,0.0,0.0,0.0,0.0,0.0,0.0,0.0,0.0,0.0,0.0,0.0,0.0,0.0,0.0,0.0,0.0,0.0,0.0,0.0,0.0,0.0,0.0,0.0,0.0,0.0,0.0,0.0,0.0,0.0,0.0,0.0,0.0,0.0,0.0,0.0,0.0,0.0,0.0,0.0,0.0,0.0,0.0,0.0,0.0,0.0,0.0,0.0,0.0,0.0,0.0,0.0,0.0,0.0,0.0,0.0,0.0,0.0,0.0,0.0,0.0,0.0,0.0,0.0,0.0,0.0,0.0,0.0,0.0,0.0,0.0,0.0,0.0,0.0,0.0,0.0,0.0,0.0,0.0,0.0,0.0,0.0,0.0,0.0,0.0,0.0,0.0,0.0,0.0,0.0,0.0,0.0,0.0,0.0,0.0,0.0,0.0,0.0,0.0,0.0,0.0,0.5376,0.5151,0.5207,0.5214,0.5135,0.0,0.0,0.0,0.0,0.0,0.0,0.0,0.0,0.0,0.0,0.0,0.0,0.0,0.0,0.0,0.0,0.0,0.0,0.0,0.0,0.0,0.0,0.0,0.0,0.0,0.0,0.0,0.0,0.0,0.0,0.0,0.0,0.0,0.0,0.0,0.0,0.0,0.0,0.0,0.0,0.0,0.0,0.0,0.0,0.0,0.0,0.0,0.0,0.0,0.0,0.0,0.0,0.0,0.0,0.0,0.0,0.0,0.0,0.0,0.0,0.0,0.0,0.0,0.0,0.0,0.0,0.0,0.0,0.0,0.0,0.0,0.0,0.0,0.0,0.0,0.0,0.0,0.0,0.0,0.0,0.0,0.0,0.0,0.0,0.0,0.0,0.0,0.0,0.0,0.0,0.0,0.0,0.0,0.0,0.0,0.0,0.0,0.0,0.0,0.0,0.0,0.0,0.0,0.0,0.0,0.0,0.0,0.0,0.0,0.0,0.0,0.0,0.5006,0.5102,0.514,0.0,0.0,0.0,0.0,0.0,0.0,0.0,0.0,0.0,0.0,0.0,0.0,0.0,0.0,0.0,0.0,0.0,0.0,0.0,0.0,0.0,0.0,0.0,0.0,0.0,0.0,0.0,0.0,0.0,0.0,0.0,0.0,0.0,0.0,0.0,0.0,0.0,0.0,0.0,0.0,0.0,0.0,0.0,0.0,0.0,0.0,0.0,0.0,0.0,0.0,0.0,0.0,0.0,0.0,0.0,0.0,0.0,0.0,0.0,0.0,0.0,0.0,0.0,0.0,0.0,0.0,0.0,0.0,0.0,0.0,0.0,0.0,0.0,0.0,0.0,0.0,0.0,0.0,0.0,0.0,0.0,0.0,0.0,0.0,0.0,0.0,0.0,0.0,0.0,0.0,0.0,0.0,0.0,0.0,0.0,0.0,0.0,0.0,0.0,0.0,0.0,0.0,0.0,0.0,0.0,0.0,0.0,0.0,0.0,0.0,0.5303,0.5337,0.5345,0.0,0.552,0.0,0.0,0.0,0.0,0.0,0.0,0.0,0.0,0.0,0.0,0.0,0.0,0.0,0.0,0.0,0.0,0.0,0.0,0.0,0.0,0.0,0.0,0.0,0.0,0.0,0.0,0.0,0.0,0.0,0.0,0.0,0.0,0.0,0.0,0.0,0.0,0.0,0.0,0.0,0.0,0.0,0.0,0.0,0.0,0.0,0.0,0.0,0.0,0.0,0.0,0.0,0.0,0.0,0.0,0.0,0.0,0.0,0.0,0.0,0.0,0.0,0.0,0.0,0.0,0.0,0.0,0.0,0.0,0.0,0.0,0.0,0.0,0.0,0.0,0.0,0.0,0.0,0.0,0.0,0.0,0.0,0.0,0.0,0.0,0.0,0.0,0.0,0.0,0.0,0.0,0.0,0.0,0.0,0.0,0.0,0.0,0.0,0.0,0.0,0.0,0.0,0.0,0.0,0.0,0.0,0.0,0.0,0.0,0.0,0.0,0.0,0.5503,0.5631,0.5605,0.0,0.0,0.0,0.0,0.0,0.0,0.0,0.0,0.0,0.0,0.0,0.0,0.0,0.0,0.0,0.0,0.0,0.0,0.0,0.0,0.0,0.0,0.0,0.0,0.0,0.0,0.0,0.0,0.0,0.0,0.0,0.0,0.0,0.0,0.0,0.0,0.0,0.0,0.0,0.0,0.0,0.0,0.0,0.0,0.0,0.0,0.0,0.0,0.0,0.0,0.0,0.0,0.0,0.0,0.0,0.0,0.0,0.0,0.0,0.0,0.0,0.0,0.0,0.0,0.0,0.0,0.0,0.0,0.0,0.0,0.0,0.0,0.0,0.0,0.0,0.0,0.0,0.0,0.0,0.0,0.0,0.0,0.0,0.0,0.0,0.0,0.0,0.0,0.0,0.0,0.0,0.0,0.0,0.0,0.0,0.0,0.0,0.0,0.0,0.0,0.0,0.0,0.0,0.0,0.0,0.0,0.0,0.0,0.0,0.0,0.532,0.0,0.572,0.5798,0.5715,0.5425,0.0,0.0,0.0,0.0,0.0,0.0,0.0,0.0,0.0,0.0,0.0,0.0,0.0,0.0,0.0,0.0,0.0,0.0,0.0,0.0,0.0,0.0,0.0,0.0,0.0,0.0,0.0,0.0,0.0,0.0,0.0,0.0,0.0,0.0,0.0,0.0,0.0,0.0,0.0,0.0,0.0,0.0,0.0,0.0,0.0,0.0,0.0,0.0,0.0,0.0,0.0,0.0,0.0,0.0,0.0,0.0,0.0,0.0,0.0,0.0,0.0,0.0,0.0,0.0,0.0,0.0,0.0,0.0,0.0,0.0,0.0,0.0,0.0,0.0,0.0,0.0,0.0,0.0,0.0,0.0,0.0,0.0,0.0,0.0,0.0,0.0,0.0,0.0,0.0,0.0,0.0,0.0,0.0,0.0,0.0,0.0,0.0,0.0,0.0,0.0,0.0,0.0,0.0,0.0,0.0,0.0,0.0,0.0,0.0,0.5306,0.5521,0.5944,0.5807,0.5705,0.0,0.0,0.0,0.0,0.0,0.0,0.0,0.0,0.0,0.0,0.0,0.0,0.0,0.0,0.0,0.0,0.0,0.0,0.0,0.0,0.0,0.0,0.0,0.0,0.0,0.0,0.0,0.0,0.0,0.0,0.0,0.0,0.0,0.0,0.0,0.0,0.0,0.0,0.0,0.0,0.0,0.0,0.0,0.0,0.0,0.0,0.0,0.0,0.0,0.0,0.0,0.0,0.0,0.0,0.0,0.0,0.0,0.0,0.0,0.0,0.0,0.0,0.0,0.0,0.0,0.0,0.0,0.0,0.0,0.0,0.0,0.0,0.0,0.0,0.0,0.0,0.0,0.0,0.0,0.0,0.0,0.0,0.0,0.0,0.0,0.0,0.0,0.0,0.0,0.0,0.0,0.0,0.0,0.0,0.0,0.0,0.0,0.0,0.0,0.0,0.0,0.0,0.0,0.0,0.0,0.0,0.0,0.0,0.0,0.5008,0.5349,0.5693,0.597,0.5941,0.5746,0.0,0.0,0.0,0.0,0.0,0.0,0.0,0.0,0.0,0.0,0.0,0.0,0.0,0.0,0.0,0.0,0.0,0.0,0.0,0.0,0.0,0.0,0.0,0.0,0.0,0.0,0.0,0.0,0.0,0.0,0.0,0.0,0.0,0.0,0.0,0.0,0.0,0.0,0.0,0.0,0.0,0.0,0.0,0.0,0.0,0.0,0.0,0.0,0.0,0.0,0.0,0.0,0.0,0.0,0.0,0.0,0.0,0.0,0.0,0.0,0.0,0.0,0.0,0.0,0.0,0.0,0.0,0.0,0.0,0.0,0.0,0.0,0.0,0.0,0.0,0.0,0.0,0.0,0.0,0.0,0.0,0.0,0.0,0.0,0.0,0.0,0.0,0.0,0.0,0.0,0.0,0.0,0.0,0.0,0.0,0.0,0.0,0.0,0.0,0.0,0.0,0.0,0.0,0.0,0.0,0.0,0.0,0.0,0.0,0.5156,0.0,0.5964,0.0,0.596,0.5755,0.0,0.0,0.0,0.0,0.0,0.0,0.0,0.0,0.0,0.0,0.0,0.0,0.0,0.0,0.0,0.0,0.0,0.0,0.0,0.0,0.0,0.0,0.0,0.0,0.0,0.0,0.0,0.0,0.0,0.0,0.0,0.0,0.0,0.0,0.0,0.0,0.0,0.0,0.0,0.0,0.0,0.0,0.0,0.0,0.0,0.0,0.0,0.0,0.0,0.0,0.0,0.0,0.0,0.0,0.0,0.0,0.0,0.0,0.0,0.0,0.0,0.0,0.0,0.0,0.0,0.0,0.0,0.0,0.0,0.0,0.0,0.0,0.0,0.0,0.0,0.0,0.0,0.0,0.0,0.0,0.0,0.0,0.0,0.0,0.0,0.0,0.0,0.0,0.0,0.0,0.0,0.0,0.0,0.0,0.0,0.0,0.0,0.0,0.0,0.0,0.0,0.0,0.0,0.0,0.0,0.0,0.0,0.0,0.5928,0.5813,0.6136,0.6287,0.6287,0.5907,0.5705,0.0,0.0,0.0,0.0,0.0,0.0,0.0,0.0,0.0,0.0,0.0,0.0,0.0,0.0,0.0,0.0,0.0,0.0,0.0,0.0,0.0,0.0,0.0,0.0,0.0,0.0,0.0,0.0,0.0,0.0,0.0,0.0,0.0,0.0,0.0,0.0,0.0,0.0,0.0,0.0,0.0,0.0,0.0,0.0,0.0,0.0,0.0,0.0,0.0,0.0,0.0,0.0,0.0,0.0,0.0,0.0,0.0,0.0,0.0,0.0,0.0,0.0,0.0,0.0,0.0,0.0,0.0,0.0,0.0,0.0,0.0,0.0,0.0,0.0,0.0,0.0,0.0,0.0,0.0,0.0,0.0,0.0,0.0,0.0,0.0,0.0,0.0,0.0,0.0,0.0,0.0,0.0,0.0,0.0,0.0,0.0,0.0,0.0,0.0,0.0,0.0,0.0,0.0,0.0,0.0,0.0,0.0,0.0,0.0,0.609,0.6341,0.6391,0.6173,0.5863,0.559,0.0,0.0,0.0,0.0,0.0,0.0,0.0,0.0,0.0,0.0,0.0,0.0,0.0,0.0,0.0,0.0,0.0,0.0,0.0,0.0,0.0,0.0,0.0,0.0,0.0,0.0,0.0,0.0,0.0,0.0,0.0,0.0,0.0,0.0,0.0,0.0,0.0,0.0,0.0,0.0,0.0,0.0,0.0,0.0,0.0,0.0,0.0,0.0,0.0,0.0,0.0,0.0,0.0,0.0,0.0,0.0,0.0,0.0,0.0,0.0,0.0,0.0,0.0,0.0,0.0,0.0,0.0,0.0,0.0,0.0,0.0,0.0,0.0,0.0,0.0,0.0,0.0,0.0,0.0,0.0,0.0,0.0,0.0,0.0,0.0,0.0,0.0,0.0,0.0,0.0,0.0,0.0,0.0,0.0,0.0,0.0,0.0,0.0,0.0,0.0,0.0,0.0,0.0,0.0,0.0,0.0,0.0,0.0,0.0,0.697,0.698,0.6832,0.6506,0.6161,0.5764,0.535,0.0,0.0,0.0,0.0,0.0,0.0,0.0,0.0,0.0,0.0,0.0,0.0,0.0,0.0,0.0,0.0,0.0,0.0,0.0,0.0,0.0,0.0,0.0,0.0,0.0,0.0,0.0,0.0,0.0,0.0,0.0,0.0,0.0,0.0,0.0,0.0,0.0,0.0,0.0,0.0,0.0,0.0,0.0,0.0,0.0,0.0,0.0,0.0,0.0,0.0,0.0,0.0,0.0,0.0,0.0,0.0,0.0,0.0,0.0,0.0,0.0,0.0,0.0,0.0,0.0,0.0,0.0,0.0,0.0,0.0,0.0,0.0,0.0,0.0,0.0,0.0,0.0,0.0,0.0,0.0,0.0,0.0,0.0,0.0,0.0,0.0,0.0,0.0,0.0,0.0,0.0,0.0,0.0,0.0,0.0,0.0,0.0,0.0,0.0,0.0,0.0,0.0,0.0,0.0,0.0,0.0,0.0,0.0,0.8369,0.7981,0.7607,0.7291,0.6757,0.6222,0.0,0.0,0.0,0.0,0.0,0.0,0.0,0.0,0.0,0.0,0.0,0.0,0.0,0.0,0.0,0.0,0.0,0.0,0.0,0.0,0.0,0.0,0.0,0.0,0.0,0.0,0.0,0.0,0.0,0.0,0.0,0.0,0.0,0.0,0.0,0.0,0.0,0.0,0.0,0.0,0.0,0.0,0.0,0.0,0.0,0.0,0.0,0.0,0.0,0.0,0.0,0.0,0.0,0.0,0.0,0.0,0.0,0.0,0.0,0.0,0.0,0.0,0.0,0.0,0.0,0.0,0.0,0.0,0.0,0.0,0.0,0.0,0.0,0.0,0.0,0.0,0.0,0.0,0.0,0.0,0.0,0.0,0.0,0.0,0.0,0.0,0.0,0.0,0.0,0.0,0.0,0.0,0.0,0.0,0.0,0.0,0.0,0.0,0.0,0.0,0.0,0.0,0.0,0.0,0.0,0.0,0.0,0.0,0.0,0.9428,0.954,0.9186,0.8341,0.7642,0.7024,0.0,0.0,0.0,0.0,0.0,0.0,0.0,0.0,0.0,0.0,0.0,0.0,0.0,0.0,0.0,0.0,0.0,0.0,0.0,0.0,0.0,0.0,0.0,0.0,0.0,0.0,0.0,0.0,0.0,0.0,0.0,0.0,0.0,0.0,0.0,0.0,0.0,0.0,0.0,0.0,0.0,0.0,0.0,0.0,0.0,0.0,0.0,0.0,0.0,0.0,0.0,0.0,0.0,0.0,0.0,0.0,0.0,0.0,0.0,0.0,0.0,0.0,0.0,0.0,0.0,0.0,0.0,0.0,0.0,0.0,0.0,0.0,0.0,0.0,0.0,0.0,0.0,0.0,0.0,0.0,0.0,0.0,0.0,0.0,0.0,0.0,0.0,0.0,0.0,0.0,0.0,0.0,0.0,0.0,0.0,0.0,0.0,0.0,0.0,0.0,0.0,0.0,0.0,0.0,0.0,0.0,0.0,0.0,0.9092,1.0057,1.0755,1.0641,0.958,0.846,0.7558,0.0,0.0,0.0,0.0,0.0,0.0,0.0,0.0,0.0,0.0,0.0,0.0,0.0,0.0,0.0,0.0,0.0,0.0,0.0,0.0,0.0,0.0,0.0,0.0,0.0,0.0,0.0,0.0,0.0,0.0,0.0,0.0,0.0,0.0,0.0,0.0,0.0,0.0,0.0,0.0,0.0,0.0,0.0,0.0,0.0,0.0,0.0,0.0,0.0,0.0,0.0,0.0,0.0,0.0,0.0,0.0,0.0,0.0,0.0,0.0,0.0,0.0,0.0,0.0,0.0,0.0,0.0,0.0,0.0,0.0,0.0,0.0,0.0,0.0,0.0,0.0,0.0,0.0,0.0,0.0,0.0,0.0,0.0,0.0,0.0,0.0,0.0,0.0,0.0,0.0,0.0,0.0,0.0,0.0,0.0,0.0,0.0,0.0,0.0,0.0,0.0,0.0,0.0,0.0,0.0,0.0,0.0,0.0,0.9641,1.0472,1.1725,1.1882,1.0834,0.926,0.7964,0.0,0.0,0.0,0.0,0.0,0.0,0.0,0.0,0.0,0.0,0.0,0.0,0.0,0.0,0.0,0.0,0.0,0.0,0.0,0.0,0.0,0.0,0.0,0.0,0.0,0.0,0.0,0.0,0.0,0.0,0.0,0.0,0.0,0.0,0.0,0.0,0.0,0.0,0.0,0.0,0.0,0.0,0.0,0.0,0.0,0.0,0.0,0.0,0.0,0.0,0.0,0.0,0.0,0.0,0.0,0.0,0.0,0.0,0.0,0.0,0.0,0.0,0.0,0.0,0.0,0.0,0.0,0.0,0.0,0.0,0.0,0.0,0.0,0.0,0.0,0.0,0.0,0.0,0.0,0.0,0.0,0.0,0.0,0.0,0.0,0.0,0.0,0.0,0.0,0.0,0.0,0.0,0.0,0.0,0.0,0.0,0.0,0.0,0.0,0.0,0.0,0.0,0.0,0.0,0.0,0.0,0.0,0.0,1.0527,1.1545,1.2439,1.2521,1.1665,1.0094,0.8851,0.0,0.0,0.0,0.0,0.0,0.0,0.0,0.0,0.0,0.0,0.0,0.0,0.0,0.0,0.0,0.0,0.0,0.0,0.0,0.0,0.0,0.0,0.0,0.0,0.0,0.0,0.0,0.0,0.0,0.0,0.0,0.0,0.0,0.0,0.0,0.0,0.0,0.0,0.0,0.0,0.0,0.0,0.0,0.0,0.0,0.0,0.0,0.0,0.8733,0.0,0.0,0.0,0.0,0.0,0.0,0.0,0.0,0.0,0.0,0.0,0.0,0.0,0.0,0.0,0.0,0.0,0.0,0.0,0.0,0.0,0.0,0.0,0.0,0.0,0.0,0.0,0.0,0.0,0.0,0.0,0.0,0.0,0.0,0.0,0.0,0.0,0.0,0.0,0.0,0.0,0.0,0.0,0.0,0.0,0.0,0.0,0.0,0.0,0.0,0.0,0.0,0.0,0.0,0.0,0.0,0.0,0.0,0.0,1.1328,1.2256,1.3304,1.3412,1.2472,1.126,0.9961,0.0,0.0,0.0,0.0,0.0,0.0,0.0,0.0,0.0,0.0,0.0,0.0,0.0,0.0,0.0,0.0,0.0,0.0,0.0,0.0,0.0,0.0,0.0,0.0,0.0,0.0,0.0,0.0,0.0,0.0,0.0,0.0,0.0,0.0,0.0,0.0,0.0,0.0,0.0,0.0,0.0,0.0,0.0,0.0,0.0,0.0,0.0,0.0,0.0,0.0,0.0,0.0,0.0,0.0,0.0,0.0,0.0,0.0,0.0,0.0,0.0,0.0,0.0,0.0,0.0,0.0,0.0,0.0,0.0,0.0,0.0,0.0,0.0,0.0,0.0,0.0,0.0,0.0,0.0,0.0,0.0,0.0,0.0,0.0,0.0,0.0,0.0,0.0,0.0,0.0,0.0,0.0,0.0,0.0,0.0,0.0,0.0,0.0,0.0,0.0,0.0,0.0,0.0,0.0,0.0,0.0,0.0,1.0621,1.1816,1.2632,1.3862,1.4004,1.2962,1.2132,1.0776,0.8779,0.0,0.0,0.0,0.0,0.0,0.0,0.0,0.0,0.0,0.0,0.0,0.0,0.0,0.0,0.0,0.0,0.0,0.0,0.0,0.0,0.0,0.0,0.0,0.0,0.0,0.0,0.0,0.0,0.0,0.0,0.0,0.0,0.0,0.0,0.0,0.0,0.0,0.0,0.8473,0.9277,0.0,0.0,0.0,0.0,0.0,0.0,0.0,0.0,0.9804,0.0,0.0,0.0,0.0,0.0,0.0,0.0,0.0,0.0,0.0,0.0,0.0,0.0,0.0,0.0,0.0,0.0,0.0,0.0,0.0,0.0,0.0,0.0,0.0,0.0,0.0,0.0,0.0,0.0,0.0,0.0,0.0,0.0,0.0,0.0,0.0,0.0,0.0,0.0,0.0,0.0,0.0,0.0,0.0,0.0,0.0,0.0,0.0,0.0,0.0,0.0,0.0,0.0,0.0,0.0,0.0,0.8931,1.0297,1.1434,1.2349,1.318,1.3161,1.2211,1.1302,1.0154,0.8773,0.0,0.0,0.0,0.0,0.0,0.0,0.0,0.0,0.0,0.0,0.0,0.0,0.0,0.0,0.0,0.0,0.0,0.0,0.0,0.0,0.0,0.0,0.0,0.0,0.0,0.0,0.0,0.0,0.0,0.0,0.0,0.0,0.0,0.0,0.0,0.0,0.0,0.0,0.0,1.0389,1.0726,0.0,0.0,0.0,0.0,0.0,0.0,0.0,0.0,1.0521,0.0,0.0,0.0,0.0,0.0,0.0,0.0,0.0,0.0,0.0,0.0,0.0,0.0,0.0,0.0,0.0,0.0,0.0,0.0,0.0,0.0,0.0,0.0,0.0,0.0,0.0,0.0,0.0,0.0,0.0,0.0,0.0,0.0,0.0,0.0,0.0,0.0,0.0,0.0,0.0,0.0,0.0,0.0,0.0,0.0,0.0,0.0,0.0,0.0,0.0,0.0,0.0,0.0,0.0,0.0,0.8757,0.9998,1.1019,1.1814,1.2499,1.247,1.1657,1.0731,0.9649,0.0,0.0,0.0,0.0,0.0,0.0,0.0,0.0,0.0,0.0,0.0,0.0,0.0,0.0,0.0,0.0,0.0,0.0,0.0,0.0,0.0,0.0,0.0,0.0,0.0,0.0,0.0,0.0,0.0,0.0,0.0,0.0,0.0,0.0,0.0,0.0,0.0,0.0,0.0,0.0,1.1576,1.2028,1.1867,0.0,0.0,0.0,0.0,0.0,0.0,1.1517,1.137,0.0,0.0,0.0,0.0,0.0,0.0,0.0,0.0,0.0,0.0,0.0,0.0,0.0,0.0,0.0,0.0,0.0,0.0,0.0,0.0,0.0,0.0,0.0,0.0,0.0,0.0,0.0,0.0,0.0,0.0,0.0,0.0,0.0,0.0,0.0,0.0,0.0,0.0,0.0,0.0,0.0,0.0,0.0,0.0,0.0,0.0,0.0,0.0,0.0,0.0,0.0,0.0,0.0,0.0,0.0,0.8503,0.9616,1.0503,1.1134,1.1753,1.1705,1.0978,1.0057,0.9054,0.0,0.0,0.0,0.0,0.0,0.0,0.0,0.0,0.0,0.0,0.0,0.0,0.0,0.0,0.0,0.0,0.0,0.0,0.0,0.0,0.0,0.0,0.0,0.0,0.0,0.0,0.0,0.0,0.0,0.0,0.0,0.0,0.0,0.0,0.0,0.0,0.0,0.0,0.0,0.0,0.0,1.3214,1.3181,1.2819,0.0,0.0,0.0,0.0,1.2164,1.2584,0.0,0.0,0.0,0.0,0.0,0.0,0.0,0.0,0.0,0.0,0.0,0.0,0.0,0.0,0.0,0.0,0.0,0.0,0.0,0.0,0.0,0.0,0.0,0.0,0.0,0.0,0.0,0.0,0.0,0.0,0.0,0.0,0.0,0.0,0.0,0.0,0.0,0.0,0.0,0.0,0.0,0.0,0.0,0.0,0.0,0.0,0.0,0.0,0.0,0.0,0.0,0.0,0.0,0.0,0.0,0.0,0.7973,0.8949,0.9706,1.0319,1.0708,1.0533,0.9813,0.889,0.7992,0.0,0.0,0.0,0.0,0.0,0.0,0.0,0.0,0.0,0.0,0.0,0.0,0.0,0.0,0.0,0.0,0.0,0.0,0.0,0.0,0.0,0.0,0.0,0.0,0.0,0.0,0.0,0.0,0.0,0.0,0.0,0.0,0.0,0.0,0.0,0.0,0.0,0.0,0.0,0.0,0.0,1.3891,1.3872,1.4081,1.4008,0.0,0.0,0.0,1.3792,1.4219,0.0,0.0,0.0,0.0,0.0,0.0,0.0,0.0,0.0,0.0,0.0,0.0,0.0,0.0,0.0,0.0,0.0,0.0,0.0,0.0,0.0,0.0,0.0,0.0,0.0,0.0,0.0,0.0,0.0,0.0,0.0,0.0,0.0,0.0,0.0,0.0,0.0,0.0,0.0,0.0,0.0,0.0,0.0,0.0,0.0,0.0,0.0,0.0,0.0,0.0,0.0,0.0,0.0,0.0,0.0,0.6213,0.7219,0.8117,0.8764,0.9231,0.9509,0.937,0.8698,0.8075,0.7338,0.0,0.0,0.0,0.0,0.0,0.0,0.0,0.0,0.0,0.0,0.0,0.0,0.0,0.0,0.0,0.0,0.0,0.0,0.0,0.0,0.0,0.0,0.0,0.0,0.0,0.0,0.0,0.0,0.0,0.0,0.0,0.0,0.0,0.0,0.0,0.0,0.0,0.0,0.0,0.0,0.0,0.0,1.5057,1.5204,0.0,0.0,0.0,1.5268,1.5101,0.0,0.0,0.0,0.0,0.0,0.0,0.0,0.0,0.0,0.0,0.0,0.0,0.0,0.0,0.0,0.0,0.0,0.0,0.0,0.0,0.0,0.0,0.0,0.0,0.0,0.0,0.0,0.0,0.0,0.0,0.0,0.0,0.0,0.0,0.0,0.0,0.0,0.0,0.0,0.0,0.0,0.0,0.0,0.0,0.0,0.0,0.0,0.0,0.0,0.0,0.0,0.0,0.0,0.0,0.0,0.0,0.0,0.6698,0.7563,0.8162,0.8505,0.8716,0.8601,0.8088,0.7624,0.0,0.0,0.0,0.0,0.0,0.0,0.0,0.0,0.0,0.0,0.0,0.0,0.0,0.0,0.0,0.0,0.0,0.0,0.0,0.0,0.0,0.0,0.0,0.0,0.0,0.0,0.0,0.5921,0.0,0.0,0.0,0.0,0.0,0.0,0.0,0.0,0.0,0.0,0.0,0.0,0.0,0.0,1.5768,1.6096,1.6287,1.6338,0.0,0.0,1.6455,1.6404,1.7047,1.6981,0.0,0.0,0.0,0.0,0.0,0.0,0.0,0.0,0.0,0.0,0.0,0.0,0.0,0.0,0.0,0.0,0.0,0.0,0.0,0.0,0.0,0.0,0.0,0.0,0.0,0.0,0.0,0.0,0.0,0.0,0.0,0.0,0.0,0.0,0.0,0.0,0.0,0.0,0.0,0.0,0.0,0.0,0.0,0.0,0.0,0.0,0.0,0.0,0.0,0.0,0.0,0.0,0.0,0.0,0.0,0.6697,0.7572,0.8155,0.8498,0.8642,0.8574,0.8281,0.7702,0.7101,0.0,0.0,0.0,0.0,0.0,0.0,0.0,0.0,0.0,0.0,0.0,0.0,0.0,0.0,0.0,0.0,0.0,0.0,0.0,0.0,0.0,0.0,0.0,0.0,0.0,0.0,0.0,0.0,0.0,0.0,0.0,0.0,0.0,0.0,0.0,0.0,0.0,0.0,0.0,0.0,0.0,1.6477,1.6785,1.732,1.7565,0.0,0.0,1.8043,1.7735,1.7999,1.7589,1.568,0.0,0.0,0.0,0.0,0.0,0.0,0.0,0.0,0.0,0.0,0.0,0.0,0.0,0.0,0.0,0.0,0.0,0.0,0.0,0.0,0.0,0.0,0.0,0.0,0.0,0.0,0.0,0.0,0.0,0.0,0.0,0.0,0.0,0.0,0.0,0.0,0.0,0.0,0.0,0.0,0.0,0.0,0.0,0.0,0.0,0.0,0.0,0.0,0.0,0.0,0.0,0.0,0.0,0.56,0.6571,0.7627,0.8235,0.8383,0.8587,0.8526,0.8108,0.7902,0.7369,0.0,0.0,0.0,0.0,0.0,0.0,0.0,0.0,0.0,0.0,0.0,0.0,0.0,0.0,0.0,0.0,0.0,0.0,0.0,0.0,0.0,0.0,0.0,0.0,0.0,0.0,0.0,0.0,0.6622,0.6782,0.6986,0.0,0.0,0.0,0.0,0.0,0.0,0.0,0.0,0.0,0.0,1.7677,1.8038,1.8774,0.0,0.0,1.9304,1.929,1.8803,1.8657,1.8013,1.6309,1.4604,0.0,0.0,0.0,0.0,0.0,0.0,0.0,0.0,0.0,0.0,0.0,0.0,0.0,0.0,0.0,0.0,0.0,0.0,0.0,0.0,0.0,0.0,0.0,0.0,0.0,0.0,0.0,0.0,0.0,0.0,0.0,0.0,0.0,0.0,0.0,0.0,0.0,0.0,0.0,0.0,0.0,0.0,0.0,0.0,0.0,0.0,0.0,0.0,0.0,0.0,0.0,0.0,0.5646,0.662,0.777,0.8383,0.843,0.8648,0.8554,0.8162,0.8035,0.7567,0.0,0.0,0.0,0.0,0.0,0.0,0.0,0.0,0.0,0.0,0.0,0.0,0.0,0.0,0.0,0.0,0.0,0.0,0.0,0.0,0.0,0.0,0.0,0.0,0.0,0.0,0.0,0.0,0.7131,0.7199,0.735,0.0,0.0,0.0,0.0,0.0,0.0,0.0,0.0,0.0,0.0,1.8179,1.8716,1.9669,2.0312,2.0225,2.0371,2.021,1.943,1.8946,1.816,1.6785,0.0,0.0,0.0,0.0,0.0,0.0,0.0,0.0,0.0,0.0,0.0,0.0,0.0,0.0,0.0,0.0,0.0,0.0,0.0,0.0,0.0,0.0,0.0,0.0,0.0,0.0,0.0,0.0,0.0,0.0,0.4991,0.0,0.0,0.0,0.0,0.0,0.0,0.0,0.0,0.0,0.0,0.0,0.0,0.0,0.0,0.0,0.0,0.0,0.0,0.0,0.0,0.0,0.0,0.0,0.6869,0.795,0.8554,0.8689,0.8825,0.8784,0.8498,0.8169,0.7638,0.6904,0.0,0.0,0.0,0.0,0.0,0.0,0.0,0.0,0.0,0.0,0.0,0.0,0.0,0.0,0.0,0.0,0.0,0.0,0.0,0.0,0.0,0.0,0.0,0.0,0.0,0.0,0.8096,0.8176,0.8023,0.0,0.0,0.0,0.0,0.0,0.0,0.0,0.0,0.0,0.0,1.6126,1.7682,1.8672,1.9901,2.059,2.0256,2.0751,2.0735,1.9503,1.873,1.7969,0.0,0.0,0.0,0.0,0.0,0.0,0.0,0.0,0.0,0.0,0.0,0.0,0.0,0.0,0.0,0.0,0.0,0.0,0.0,0.0,0.0,0.0,0.0,0.0,0.0,0.0,0.0,0.5516,0.5316,0.0,0.0,0.0,0.0,0.0,0.0,0.0,0.0,0.0,0.0,0.0,0.6613,0.6878,0.0,0.0,0.0,0.0,0.0,0.0,0.0,0.0,0.0,0.0,0.0,0.0,0.6118,0.7046,0.8175,0.8764,0.8689,0.8954,0.892,0.8492,0.8384,0.7841,0.6789,0.0,0.0,0.0,0.0,0.0,0.0,0.0,0.0,0.0,0.0,0.0,0.0,0.0,0.0,0.0,0.0,0.0,0.0,0.0,0.0,0.0,0.0,0.0,0.0,0.0,0.8174,0.0,0.0,0.0,0.0,0.0,0.0,0.0,0.0,0.0,0.0,0.0,1.377,1.4518,1.6438,1.8025,1.8763,2.0288,2.1247,0.0,0.0,0.0,0.0,0.0,0.0,0.0,0.0,0.0,0.0,0.0,0.0,0.0,0.0,1.7229,1.5965,1.5342,1.485,1.4433,0.0,0.0,0.0,0.0,0.0,0.0,0.0,0.0,0.0,0.0,0.0,0.0,0.0,0.0,0.0,0.0,0.527,0.0,0.0,0.0,0.0,0.0,0.0,0.0,0.0,0.7366,0.7689,0.7732,0.8079,0.8165,0.0,0.8117,0.7553,0.0,0.0,0.0,0.0,0.0,0.0,0.0,0.0,0.6443,0.735,0.8426,0.8988,0.8954,0.9184,0.9096,0.8655,0.8384,0.7886,0.7041,0.6295,0.5713,0.0,0.0,0.0,0.0,0.0,0.0,0.0,0.0,0.0,0.0,0.0,0.0,0.0,0.0,0.0,0.0,0.0,0.0,0.0,0.0,0.0,0.0,0.0,0.8792,0.0,0.0,0.0,0.0,0.0,0.0,0.0,0.0,0.0,1.1656,1.3242,1.4559,1.5104,1.6791,1.8218,1.8938,0.0,0.0,0.0,0.0,0.0,0.0,0.0,1.8534,1.8205,1.834,1.856,1.8749,1.9151,1.9496,1.9724,0.0,0.0,1.8822,1.7968,1.7221,1.649,1.5513,1.4504,1.3494,1.3366,1.3395,0.0,0.0,0.0,0.0,0.0,0.0,0.0,0.0,0.6395,0.6169,0.0,0.5743,0.0,0.0,0.0,0.0,0.0,0.0,0.0,0.0,0.8227,0.8743,0.8884,0.9188,0.9306,0.9199,0.9179,0.8879,0.8253,0.7124,0.0,0.0,0.0,0.0,0.0,0.0,0.6804,0.7801,0.873,0.9289,0.941,0.953,0.9379,0.894,0.8223,0.7801,0.7617,0.6933,0.6418,0.6147,0.5924,0.0,0.0,0.0,0.0,0.0,0.0,0.0,0.0,0.0,0.0,0.0,0.0,0.0,0.0,0.0,0.0,0.0,0.0,0.0,0.0,0.9285,0.0,0.0,0.0,0.0,0.0,0.0,0.0,0.0,0.0,0.0,1.2608,1.3897,1.5096,1.6002,0.0,0.0,0.0,0.0,2.2037,2.1715,2.2198,2.2124,2.0898,2.0488,2.0146,1.9872,0.0,0.0,2.0609,2.0605,2.0603,2.0619,2.11,2.1617,2.1579,2.0658,1.9626,1.821,1.7221,1.6014,1.4172,1.4102,1.4341,0.7045,0.0,0.0,0.0,0.0,0.6558,0.6929,0.7278,0.7177,0.6912,0.6557,0.6196,0.0,0.0,0.0,0.0,0.0,0.0,0.6208,0.6983,0.7664,0.8136,0.8391,0.8884,0.9112,0.9153,0.9459,0.9381,0.8913,0.8369,0.7421,0.6178,0.0,0.0,0.0,0.0,0.7034,0.7939,0.8859,0.9417,0.9537,0.9686,0.9623,0.9393,0.8872,0.852,0.8365,0.7672,0.7204,0.7028,0.6328,0.0,0.0,0.0,0.0,0.0,0.0,0.0,0.0,0.0,0.0,0.0,0.0,0.0,0.0,0.0,0.0,0.0,0.0,0.0,0.8938,0.9522,0.9646,0.0,0.0,0.0,0.0,0.0,0.0,0.0,0.0,0.0,1.4184,1.554,1.6573,0.0,0.0,1.8892,1.9817,2.0788,2.1461,2.1528,0.0,0.0,0.0,2.1685,2.1947,2.2045,2.2043,2.1844,2.1123,2.1037,2.1037,2.1012,2.1162,2.1314,2.1293,2.0656,1.9841,1.9125,1.8027,1.6814,1.568,1.5571,1.5723,0.7302,0.6431,0.6754,0.6921,0.6964,0.7337,0.7675,0.799,0.7979,0.7782,0.7425,0.6887,0.6083,0.5071,0.4346,0.0,0.0,0.0,0.5475,0.6146,0.6789,0.7358,0.7875,0.8531,0.8967,0.9224,0.9797,0.9883,0.9503,0.9266,0.8608,0.7546,0.0,0.0,0.6654,0.6973,0.7533,0.8358,0.911,0.9544,0.9663,0.969,0.967,0.9575,0.9142,0.8865,0.877,0.8115,0.7763,0.775,0.6887,0.6179,0.0,0.0,0.0,0.0,0.0,0.0,0.0,0.0,0.0,0.0,0.0,0.5618,0.5746,0.0,0.0,0.0,0.7365,0.8278,0.8822,0.9375,0.0,0.0,0.0,0.0,0.0,0.0,0.0,1.2862,1.3874,1.4716,1.5244,1.6284,1.7154,1.7537,1.8632,1.9703,2.054,0.0,2.2072,2.2139,2.2387,2.2446,2.2042,2.2344,2.2614,2.2579,2.2173,2.1648,2.0911,2.0754,2.0766,2.0766,2.0766,2.0766,2.0754,2.014,1.951,1.9122,1.8294,1.7351,1.6528,1.656,1.6747,0.6478,0.6356,0.7114,0.7484,0.7614,0.7715,0.8042,0.8542,0.8499,0.8455,0.8281,0.7512,0.6313,0.481,0.32,0.0,0.0,0.388,0.4451,0.4995,0.5646,0.6392,0.7163,0.8023,0.8728,0.924,0.9948,1.0151,0.9864,0.9734,0.9525,0.9157,0.777,0.7269,0.7658,0.7801,0.8202,0.8919,0.9381,0.968,0.9785,0.9663,0.9625,0.9595,0.9176,0.8946,0.8933,0.8378,0.8142,0.8307,0.7506,0.6812,0.6357,0.0,0.0,0.0,0.0,0.0,0.0,0.0,0.0,0.0,0.0,0.0,0.0,0.0,0.0,0.0,0.7583,0.0,0.849,0.9069,0.0,0.0,0.0,0.9834,1.0987,1.2335,1.3467,1.4168,0.0,0.0,0.0,0.0,1.699,1.803,1.9443,2.0664,2.1476,2.2644,2.3398,2.3234,2.3226,2.3075,2.2457,2.2475,2.2287,2.17,2.1148,2.0564,2.0027,1.9907,1.991,1.9881,1.9935,1.9921,1.9935,1.934,1.8799,1.8446,1.8153,1.7753,1.7021,1.7161,1.7511,0.5221,0.5105,0.5203,0.5812,0.6697,0.6752,0.6892,0.709,0.6986,0.6909,0.6773,0.6215,0.5178,0.3864,0.287,0.2559,0.2778,0.3342,0.37,0.3927,0.4504,0.5168,0.5866,0.6668,0.7254,0.7765,0.8372,0.8713,0.8763,0.8802,0.8925,0.9104,0.8796,0.8532,0.8282,0.8328,0.8607,0.9124,0.9435,0.965,0.9785,0.9758,0.9774,0.9768,0.9449,0.9273,0.9273,0.8784,0.8554,0.8586,0.7873,0.7197,0.6633,0.5863,0.0,0.0,0.0,0.0,0.0,0.0,0.0,0.0,0.0,0.674,0.6987,0.0,0.7355,0.0,0.8056,0.8835,0.9343,0.9663,0.0,0.0,1.0217,1.0665,1.1872,1.3132,1.4131,1.4676,1.5267,1.5716,1.5903,1.5914,1.6456,1.7816,1.9749,2.1498,2.2722,2.3522,2.3932,2.365,2.3194,2.2641,2.1885,2.1673,2.1233,2.0227,2.0021,1.9699,1.8667,1.8474,1.8474,1.8474,1.8523,1.8484,1.8532,1.8319,1.8251,1.8096,1.8034,1.7848,1.7388,1.7576,1.7897,0.3763,0.3722,0.3603,0.3973,0.4663,0.5218,0.5517,0.5586,0.5544,0.5552,0.5446,0.4502,0.3507,0.2503,0.17,0.1362,0.1463,0.194,0.2177,0.2265,0.2924,0.361,0.4262,0.5131,0.5873,0.6394,0.6997,0.7499,0.7845,0.8152,0.8515,0.9033,0.9324,0.9327,0.9083,0.8947,0.9063,0.9383,0.9585,0.9741,0.9785,0.9792,0.9792,0.9785,0.9537,0.9376,0.9308,0.8873,0.8669,0.8784,0.797,0.7369,0.7,0.6171,0.5484,0.0,0.0,0.0,0.0,0.0,0.0,0.0,0.0,0.0,0.0,0.0,0.8095,0.0,0.869,0.0,0.9856,1.0213,1.0533,1.0741,1.101,1.1545,1.2513,1.3803,1.4786,1.5128,1.5657,1.5902,1.5663,1.5561,1.5883,1.6992,1.8673,2.0429,2.2168,2.3042,2.3404,2.3066,2.2417,2.1467,2.0409,2.0081,1.9734,1.9149,1.8983,1.874,1.8129,1.801,1.801,1.801,1.801,1.801,1.801,1.801,1.801,1.8031,1.8093,1.8076,1.792,1.8021,1.8201,0.2194,0.2195,0.2136,0.2088,0.2159,0.3282,0.385,0.4063,0.4145,0.4201,0.405,0.2757,0.178,0.1074,0.0349,0.0,0.0,0.0414,0.0594,0.0665,0.1435,0.2126,0.2745,0.3783,0.4611,0.5205,0.5739,0.6315,0.6938,0.7448,0.804,0.8659,0.9258,0.9571,0.9557,0.9327,0.9373,0.9666,0.9802,0.9883,0.9846,0.9832,0.9812,0.9778,0.9517,0.9308,0.918,0.8736,0.8615,0.8831,0.7977,0.7471,0.7437,0.6593,0.5997,0.0,0.5854,0.0,0.0,0.0,0.0,0.0,0.0,0.0,0.0,0.8519,0.8898,0.9266,0.951,0.982,1.0308,1.0829,1.1147,1.1188,1.1736,1.236,1.3025,1.4317,1.5231,1.5403,1.583,1.5867,1.5369,1.5198,1.5369,1.6132,1.7148,1.8563,2.0521,2.1709,2.2256,2.1857,2.0945,1.971,1.8459,1.8116,1.8076,1.8028,1.8032,1.7908,1.7869,1.7927,1.8016,1.8025,1.8084,1.8114,1.8086,1.8095,1.8104,1.8123,1.8307,1.8423,1.8364,1.8392,1.8496,0.0467,0.0471,0.047,0.047,0.0469,0.0699,0.1531,0.2669,0.2713,0.2527,0.2187,0.1655,0.1151,0.069,0.0215,0.0,0.0,0.0408,0.0614,0.0656,0.1438,0.1975,0.2358,0.3201,0.3746,0.4034,0.431,0.4792,0.5412,0.6025,0.6662,0.7365,0.8085,0.8419,0.0,0.0,0.0,0.0,1.012,1.0195,1.0188,1.0035,0.9913,0.9785,0.9444,0.0,0.8946,0.8655,0.8567,0.8723,0.8189,0.0,0.0,0.0,0.0,0.0,0.0,0.0,0.0,0.0,0.0,0.0,0.8784,0.9161,0.9505,0.9753,1.0009,1.0373,1.0585,1.0854,1.1208,1.1598,1.189,1.2052,1.2402,1.2873,1.3451,1.429,1.4865,1.4866,1.5212,1.535,1.5112,1.4906,1.5111,1.5862,1.6416,1.7163,1.828,1.9987,2.0885,2.0319,1.8955,1.7396,1.6047,1.6428,1.6805,1.6691,1.715,1.7404,1.7369,1.7701,1.8004,1.7995,1.8307,1.855,1.855,1.856,1.8532,1.856,1.8619,1.86,1.8439,1.8534,1.8667,0.0,0.0,0.0,0.0,0.0,0.0,0.0429,0.1157,0.1157,0.1041,0.0848,0.0694,0.0493,0.0294,0.0108,0.0,0.0,0.02,0.0299,0.0337,0.0929,0.129,0.1438,0.204,0.2369,0.2412,0.2643,0.3091,0.375,0.4527,0.527,0.598,0.6701,0.707,0.7075,0.7513,0.8322,0.9588,0.9881,1.0079,1.027,1.0096,0.9981,0.9893,0.0,0.0,0.0,0.0,0.0,0.0,0.0,0.0,0.0,0.0,0.0,0.7154,0.7316,0.7467,0.7643,0.8197,0.8703,0.9131,0.9948,1.0432,1.0426,1.0691,1.1,1.1321,1.1627,1.1896,1.2134,1.2451,1.2726,1.2865,1.3042,1.3305,1.3582,1.4057,1.4331,1.4338,1.47,1.4921,1.4736,1.5042,1.5314,1.565,1.6015,1.6415,1.6909,1.8399,1.9274,1.8503,1.7507,1.6341,1.5483,1.5574,1.6035,1.6208,1.6655,1.7037,1.7091,1.7426,1.7764,1.7969,1.8214,1.8419,1.8673,1.8714,1.8714,1.8714,1.8714,1.8686,1.8572,1.8638,1.8714,-0.0079,0.0,0.0,0.0,0.0,0.0,0.0,0.0,0.0,0.0,0.0,0.0,0.0,0.0,0.0,0.0,0.0,0.0,0.0,0.0,0.0406,0.0622,0.0632,0.1009,0.1147,0.1108,0.1384,0.1809,0.2371,0.3309,0.409,0.4683,0.5379,0.5702,0.5734,0.6586,0.7667,0.8875,0.9415,0.9928,1.0358,1.0177,1.0069,1.0021,0.9616,0.9369,0.9214,0.892,0.8818,0.8933,0.8601,0.8478,0.8607,0.8248,0.8089,0.8133,0.8287,0.8516,0.883,0.9152,0.952,0.9968,1.0875,1.1356,1.1092,1.1467,1.1825,1.2119,1.2467,1.2726,1.288,1.3222,1.3417,1.3425,1.3579,1.365,1.3658,1.3807,1.394,1.3985,1.4363,1.4586,1.4529,1.5147,1.565,1.5585,1.5829,1.6007,1.6147,1.7098,1.7596,1.6796,1.6333,1.586,1.5437,1.5455,1.5704,1.6065,1.6356,1.6654,1.6828,1.7101,1.7396,1.7704,1.7859,1.8092,1.8448,1.8527,1.854,1.854,1.8613,1.8654,1.8695,1.8746,1.8777,-0.0357,0.0,0.0,0.0,0.0,0.0,0.0,0.0,0.0,0.0,0.0,0.0,0.0,0.0,0.0,0.0,0.0,0.0,0.0,0.0,0.0435,0.0616,0.0632,0.1009,0.1158,0.1138,0.1471,0.1829,0.2208,0.2911,0.3492,0.3865,0.4306,0.4539,0.4642,0.5585,0.6619,0.7735,0.9026,1.0023,1.0623,1.0507,1.0272,0.999,0.9717,0.9442,0.9221,0.9001,0.8974,0.9138,0.8947,0.8913,0.907,0.905,0.9009,0.903,0.9255,0.9396,0.9475,0.9726,1.0026,1.0404,1.0922,1.131,1.1425,1.2051,1.2499,1.2678,1.2905,1.31,1.3313,1.349,1.3585,1.3593,1.3731,1.3863,1.388,1.3912,1.3985,1.416,1.4196,1.4408,1.4667,1.5074,1.5383,1.5505,1.5788,1.6007,1.6024,1.6049,1.6029,1.576,1.5632,1.5544,1.548,1.5618,1.5779,1.5861,1.6024,1.6106,1.6088,1.649,1.6864,1.7117,1.7458,1.7728,1.7995,1.8024,1.8073,1.8106,1.8349,1.8568,1.8601,1.8913,1.908,-0.0567,-0.036,-0.012,0.0,0.0,0.0,0.0,0.0,0.0,0.0,0.0,0.0,0.0,0.0,0.0,0.0,0.0,0.0,0.0,0.0,0.0203,0.0275,0.0281,0.0469,0.0507,0.0537,0.0853,0.1092,0.1286,0.1952,0.2381,0.2585,0.2972,0.3161,0.3262,0.4403,0.564,0.6907,0.8545,0.9815,1.0684,1.0568,1.0426,1.0258,0.9974,0.9788,0.9646,0.9467,0.9449,0.9517,0.9449,0.942,0.951,0.9546,0.9517,0.9523,0.969,0.9819,0.9819,1.0096,1.0385,1.0595,1.1057,1.1433,1.1618,1.2275,1.2734,1.2821,1.315,1.3425,1.3522,1.3766,1.3937,1.3937,1.4083,1.4188,1.4205,1.4286,1.4335,1.4351,1.4578,1.4773,1.4838,1.5244,1.5545,1.5666,1.5894,1.5999,1.5999,1.5894,1.5707,1.5545,1.5439,1.5383,1.5464,1.5577,1.5666,1.5796,1.5926,1.5918,1.5861,1.6122,1.6468,1.6893,1.7194,1.743,1.7781,1.7892,1.7892,1.7935,1.8019,1.8273,1.8569,1.895,1.9179,-0.0863,-0.0651,-0.0325,-0.0081,0.0,0.0,0.0,0.0,0.0,0.0,0.0,0.0,0.0,0.0,0.0,0.0,0.0,0.0,0.0,0.0,0.0,0.0,0.0,0.0,0.0,0.0,0.0359,0.0536,0.0601,0.1257,0.1663,0.1759,0.2044,0.2199,0.2232,0.3535,0.49,0.6398,0.8007,0.9449,1.0651,1.0602,1.0527,1.0473,1.027,1.0103,1.0069,0.9954,0.9924,0.9924,0.9924,0.9893,0.993,0.9927,0.9954,1.0025,1.0136,1.0238,1.0278,1.0507,1.069,1.0812,1.1233,1.1509,1.1649,1.2291,1.2743,1.2912,1.3343,1.3658,1.3698,1.3977,1.418,1.4225,1.4326,1.4371,1.4403,1.4525,1.4619,1.4554,1.4832,1.5049,1.512,1.5438,1.5715,1.5829,1.5959,1.5999,1.5991,1.5886,1.5723,1.5593,1.5383,1.5391,1.5537,1.561,1.5756,1.591,1.604,1.6056,1.5967,1.6008,1.622,1.6735,1.6885,1.7129,1.7588,1.7699,1.7665,1.7682,1.7776,1.805,1.8486,1.8828,1.9094,-0.1397,-0.0733,-0.0651,-0.0407,0.0,0.0,0.0,0.0,0.0,0.0,0.0,0.0,0.0,0.0,0.0,0.0,0.0,0.0,0.0,0.0,0.0,0.0,0.0,0.0,0.0,0.0,0.04,0.0545,0.058,0.129,0.1807,0.21,0.2175,0.2162,0.2331,0.3284,0.4669,0.6398,0.7541,0.8945,1.0585,1.0704,1.0603,1.0493,1.0466,1.0392,1.0276,1.0243,1.0267,1.0267,1.0236,1.0243,1.0281,1.039,1.0487,1.059,1.0738,1.0887,1.1036,1.1118,1.1125,1.1166,1.1316,1.1418,1.1488,1.2043,1.2625,1.2993,1.3535,1.3817,1.3852,1.4075,1.4176,1.4201,1.433,1.4395,1.4427,1.4411,1.4476,1.4676,1.4781,1.4806,1.5023,1.5309,1.5666,1.5918,1.5975,1.6007,1.5991,1.591,1.5845,1.5731,1.5601,1.5602,1.5821,1.595,1.6064,1.6349,1.6349,1.6243,1.6178,1.608,1.6137,1.6507,1.6638,1.6779,1.7058,1.7143,1.7197,1.7331,1.7565,1.7921,1.8366,1.8557,1.8658,-0.1615,-0.1038,-0.0789,-0.0415,0.0,0.0,0.0,0.0,0.0,0.0,0.0,0.0,0.0,0.0,0.0,0.0,0.0,0.0,0.0,0.0,0.0,0.0,0.0,0.0,0.0,0.0,0.0182,0.0255,0.0328,0.0756,0.1173,0.151,0.1569,0.1565,0.1633,0.2812,0.4318,0.6069,0.7368,0.8878,1.0485,1.0717,1.0657,1.0636,1.0629,1.0602,1.0548,1.0541,1.0541,1.0541,1.0541,1.0541,1.0541,1.0595,1.0697,1.0813,1.0961,1.1097,1.1193,1.12,1.1234,1.1322,1.1355,1.1423,1.1525,1.2077,1.2503,1.2713,1.3172,1.349,1.3534,1.3866,1.4154,1.4178,1.4493,1.4741,1.4749,1.48,1.4873,1.4887,1.4952,1.4992,1.5063,1.5285,1.561,1.5918,1.6007,1.6007,1.5999,1.5934,1.5943,1.5885,1.5829,1.5837,1.5902,1.5886,1.6056,1.6276,1.6267,1.6128,1.6267,1.612,1.6096,1.6381,1.6422,1.656,1.6868,1.6914,1.6939,1.7091,1.7463,1.7866,1.8042,1.8296,1.8383,-0.1836,-0.1261,-0.0716,-0.0295,0.0,0.0,0.0,0.0,0.0,0.0,0.0,0.0,0.0,0.0,0.0,0.0,0.0,0.0,0.0,0.0,0.0,0.0,0.0,0.0,0.0,0.0,0.0,0.0073,0.0182,0.0398,0.0752,0.1065,0.1095,0.1094,0.1233,0.2435,0.3964,0.5742,0.722,0.8834,1.0358,1.0759,1.0826,1.0752,1.0745,1.0799,1.0839,1.0839,1.0839,1.0839,1.0839,1.0839,1.0839,1.0839,1.0907,1.1029,1.1206,1.1322,1.1322,1.1356,1.1396,1.1497,1.1545,1.1619,1.1778,1.2134,1.2358,1.2409,1.2767,1.3026,1.3275,1.374,1.4096,1.4149,1.4634,1.5006,1.5006,1.509,1.509,1.5039,1.5041,1.5171,1.5163,1.5366,1.561,1.5926,1.6007,1.6007,1.6007,1.5999,1.5999,1.6007,1.5999,1.5975,1.5926,1.5959,1.6081,1.6259,1.6282,1.6211,1.6308,1.6153,1.6064,1.6308,1.6292,1.6405,1.6663,1.6752,1.6866,1.7091,1.7375,1.7595,1.7595,1.7902,1.7902,-0.2145,-0.122,-0.0379,0.0,0.0,0.0,0.0,0.0,0.0,0.0,0.0,0.0,0.0,0.0,0.0,0.0,0.0,0.0,0.0,0.0,0.0,0.0,0.0,0.0,0.0,0.0,0.0,0.0185,0.0511,0.0583,0.0802,0.1164,0.1079,0.1072,0.1213,0.2186,0.3706,0.5479,0.6996,0.8655,1.0255,1.0899,1.1029,1.0928,1.0907,1.0961,1.1145,1.1172,1.1172,1.1172,1.1159,1.1166,1.1166,1.1166,1.1234,1.1348,1.1504,1.155,1.1599,1.1687,1.1775,1.1809,1.1898,1.2057,1.2036,1.221,1.2299,1.2295,1.2474,1.2734,1.3124,1.3702,1.4044,1.4135,1.4642,1.4968,1.5015,1.5072,1.5023,1.5031,1.508,1.5179,1.5439,1.5504,1.5691,1.5902,1.6007,1.6007,1.6007,1.6007,1.6007,1.6007,1.6015,1.6047,1.6227,1.6154,1.6349,1.6453,1.6373,1.6316,1.6349,1.6341,1.6267,1.6219,1.6243,1.6349,1.6552,1.673,1.6849,1.7023,1.7088,1.7244,1.7288,1.72,1.7244,-0.1714,-0.0884,-0.0253,0.0,0.0,0.0,0.0,0.0,0.0,0.0,0.0,0.0,0.0,0.0,0.0,0.0,0.0,0.0,0.0,0.0,0.0,0.0,0.0,0.0,0.0,0.0,0.0,0.0074,0.0183,0.0219,0.0292,0.0401,0.04,0.0399,0.0578,0.1536,0.3083,0.5094,0.6461,0.8223,1.0266,1.0724,1.0936,1.1191,1.1138,1.1111,1.1193,1.12,1.12,1.12,1.12,1.12,1.1206,1.1295,1.1363,1.1396,1.1531,1.1584,1.1597,1.1712,1.1793,1.1807,1.1972,1.2104,1.2125,1.2234,1.2291,1.2318,1.242,1.258,1.2814,1.3388,1.3846,1.3938,1.4608,1.513,1.5124,1.5244,1.5317,1.5317,1.5317,1.5423,1.5585,1.5683,1.578,1.595,1.6007,1.6007,1.6007,1.6007,1.6007,1.6007,1.6007,1.6023,1.6072,1.6088,1.6161,1.6308,1.6308,1.6267,1.6267,1.6169,1.6088,1.6056,1.6137,1.6243,1.638,1.6665,1.6793,1.689,1.6963,1.7112,1.7112,1.7112,1.7112,-0.1254,-0.0673,-0.0168,0.0,0.0,0.0,0.0,0.0,0.0,0.0,0.0,0.0,0.0,0.0,0.0,0.0,0.0,0.0,0.0,0.0,0.0,0.0,0.0,0.0,0.0,0.0,0.0,0.0,0.0,0.0,0.0,0.0,0.0,0.0,0.0,0.112,0.2695,0.4404,0.5763,0.7525,0.9468,1.0022,1.0451,1.0953,1.1089,1.1229,1.1375,1.1417,1.141,1.141,1.137,1.1328,1.1417,1.156,1.1642,1.1655,1.1708,1.1762,1.1782,1.1861,1.1979,1.1986,1.2121,1.2241,1.2247,1.2343,1.2352,1.2386,1.2433,1.2501,1.267,1.3162,1.3625,1.3865,1.4657,1.519,1.5286,1.5439,1.5496,1.5496,1.5488,1.5585,1.5772,1.5804,1.5853,1.5983,1.6007,1.6007,1.6007,1.6007,1.6007,1.6007,1.6007,1.6007,1.6031,1.6039,1.6104,1.6251,1.6177,1.6186,1.6194,1.6072,1.5999,1.5958,1.5991,1.6096,1.6274,1.6525,1.6679,1.6785,1.6939,1.7112,1.7112,1.7112,1.7112,-0.0716,-0.059,0.0,0.0,0.0,0.0,0.0,0.0,0.0,0.0,0.0,0.0,0.0,0.0,0.0,0.0,0.0,0.0,0.0,0.0,0.0,0.0,0.0,0.0,0.0,0.0,0.0,0.0,0.0,0.0,0.0,0.0,0.0,0.0,0.0,0.1056,0.2221,0.3524,0.4894,0.6386,0.7803,0.8719,0.9476,1.0161,1.0668,1.1227,1.1723,1.1753,1.1712,1.1719,1.166,1.1681,1.1769,1.1918,1.207,1.2043,1.2077,1.2084,1.2091,1.2169,1.2237,1.2257,1.24,1.2454,1.2447,1.2467,1.2481,1.2481,1.2488,1.2508,1.2613,1.3021,1.349,1.3975,1.4633,1.5177,1.536,1.5489,1.5528,1.5513,1.5537,1.561,1.5731,1.5804,1.5878,1.5958,1.6007,1.6007,1.6007,1.6007,1.6007,1.6007,1.6007,1.6007,1.6007,1.6015,1.6112,1.6177,1.6096,1.6047,1.617,1.6137,1.6015,1.5966,1.5966,1.6064,1.6169,1.6412,1.6641,1.6728,1.6942,1.7088,1.7112,1.7112,1.7112,-0.0505,-0.0211,-0.0084,0.0,0.0,0.0,0.0,0.0,0.0,0.0,0.0,0.0,0.0,0.0,0.0,0.0,0.0,0.0,0.0,0.0,0.0,0.0,0.0,0.0,0.0,0.0,0.0,0.0,0.0,0.0,0.0,0.0,0.0,0.0,0.0,0.066,0.1531,0.2621,0.3385,0.4535,0.5965,0.6889,0.79,0.9109,0.9973,1.0877,1.1898,1.1796,1.1658,1.1694,1.1611,1.1651,1.1793,1.1979,1.2091,1.2098,1.2098,1.2098,1.2118,1.2241,1.2298,1.2318,1.242,1.2494,1.2501,1.2508,1.2515,1.2508,1.2508,1.2535,1.2683,1.3051,1.3376,1.3519,1.4224,1.4767,1.4965,1.5188,1.5544,1.5796,1.5837,1.5869,1.5902,1.591,1.5926,1.5983,1.6007,1.6007,1.6007,1.6007,1.6007,1.6007,1.6007,1.6023,1.6047,1.6072,1.6137,1.6153,1.6072,1.6015,1.608,1.6194,1.6064,1.6007,1.6007,1.6031,1.6137,1.6332,1.6535,1.6714,1.6877,1.699,1.708,1.7112,1.7112,-0.0293,0.0,0.0,0.0,0.0,0.0,0.0,0.0,0.0,0.0,0.0,0.0,0.0,0.0,0.0,0.0,0.0,0.0,0.0,0.0,0.0,0.0,0.0,0.0,0.0,0.0,0.0,0.0,0.0,0.0,0.0,0.0,0.0,0.0,0.0,0.0409,0.107,0.1836,0.2274,0.3074,0.426,0.5271,0.6503,0.796,0.918,1.0462,1.1649,1.168,1.1712,1.1843,1.187,1.1881,1.2006,1.2149,1.2261,1.2261,1.2268,1.223,1.2237,1.2325,1.2372,1.2393,1.2501,1.2583,1.2596,1.2623,1.2671,1.2671,1.2684,1.2712,1.2839,1.3073,1.3254,1.33,1.4018,1.4545,1.4809,1.5147,1.553,1.5859,1.5991,1.6007,1.6007,1.6007,1.6007,1.6007,1.6007,1.6007,1.6007,1.6007,1.6007,1.6031,1.6088,1.6104,1.6112,1.6145,1.6177,1.6137,1.6072,1.6023,1.6039,1.6211,1.6211,1.6104,1.6088,1.6015,1.6088,1.6292,1.647,1.6641,1.6787,1.6858,1.6947,1.7088,1.7104,0.0,0.0,0.0,0.0,0.0,0.0,0.0,0.0,0.0,0.0,0.0,0.0,0.0,0.0,0.0,0.0,0.0,0.0,0.0,0.0,0.0,0.0,0.0,0.0,0.0,0.0,0.0,0.0,0.0,0.0,0.0,0.0,0.0,0.0,0.0,0.0379,0.0714,0.1117,0.1413,0.196,0.2744,0.3873,0.5296,0.6861,0.8302,0.9823,1.1235,1.174,1.2013,1.2223,1.2216,1.223,1.2298,1.2427,1.2467,1.2461,1.2488,1.2474,1.2488,1.2467,1.2494,1.2522,1.263,1.2699,1.2752,1.284,1.2941,1.2941,1.2955,1.2982,1.3023,1.3145,1.3213,1.3302,1.3853,1.4538,1.5226,1.5291,1.5505,1.5842,1.6007,1.6007,1.6007,1.6007,1.6007,1.6007,1.6007,1.6007,1.6007,1.6007,1.6007,1.6072,1.6161,1.6267,1.6292,1.6259,1.6284,1.6219,1.6146,1.6056,1.6056,1.6227,1.63,1.6201,1.6128,1.6056,1.6072,1.6284,1.6397,1.6511,1.6649,1.6744,1.689,1.7055,1.7104,0.0,0.0,0.0,0.0,0.0,0.0,0.0,0.0,0.0,0.0,0.0,0.0,0.0,0.0,0.0,0.0,0.0,0.0,0.0,0.0,0.0,0.0,0.0,0.0,0.0,0.0,0.0,0.0,0.0,0.0,0.0,0.0,0.0,0.0,0.0,0.0,0.0189,0.0302,0.0377,0.0565,0.0974,0.2096,0.3667,0.5714,0.7133,0.9052,1.129,1.2081,1.223,1.2166,1.2237,1.2291,1.2311,1.2427,1.2501,1.2501,1.2508,1.2508,1.2508,1.2515,1.2556,1.2618,1.2725,1.274,1.2895,1.2975,1.3003,1.3003,1.3003,1.305,1.3139,1.32,1.3227,1.3363,1.3645,1.4065,1.4698,1.4919,1.5175,1.5793,1.5966,1.6007,1.6007,1.6007,1.6007,1.6007,1.6007,1.6007,1.6007,1.6007,1.6015,1.6194,1.6292,1.6389,1.643,1.6381,1.6332,1.6276,1.6202,1.6096,1.6137,1.6267,1.63,1.6284,1.6145,1.6064,1.6137,1.63,1.6365,1.643,1.6706,1.689,1.6963,1.7104,1.7104,0.0,0.0,0.0,0.0,0.0,0.0,0.0,0.0,0.0,0.0,0.0,0.0,0.0,0.0,0.0,0.0,0.0,0.0,0.0,0.0,0.0,0.0,0.0,0.0,0.0,0.0,0.0,0.0,0.0,0.0,0.0,0.0,0.0,0.0,0.0,0.0,0.0,0.0,0.0153,0.0229,0.0341,0.1816,0.3476,0.5434,0.6913,0.9036,1.1365,1.2196,1.2413,1.2336,1.2332,1.2379,1.2386,1.2454,1.2501,1.2501,1.2556,1.2596,1.261,1.2651,1.2732,1.282,1.2868,1.2956,1.3084,1.3139,1.3186,1.3193,1.3186,1.3186,1.3254,1.3322,1.3431,1.3559,1.3587,1.3867,1.4611,1.4713,1.5133,1.5711,1.6007,1.6007,1.6007,1.6007,1.6007,1.6007,1.6007,1.6007,1.6007,1.6007,1.6039,1.6194,1.6357,1.6462,1.6544,1.6527,1.6422,1.6349,1.6227,1.612,1.6161,1.6284,1.6292,1.6276,1.6153,1.6112,1.6153,1.6209,1.6332,1.6495,1.682,1.6982,1.6971,1.7145,1.7145,0.0,0.0,0.0,0.0,0.0,0.0,0.0,0.0,0.0,0.0,0.0,0.0,0.0,0.0,0.0,0.0,0.0,0.0,0.0,0.0,0.0,0.0,0.0,0.0,0.0,0.0,0.0,0.0,0.0,0.0,0.0,0.0,0.0,0.0,0.0,0.0,0.0,0.0,0.0348,0.0693,0.1185,0.2631,0.4269,0.598,0.7991,0.9666,1.1294,1.2164,1.2481,1.2494,1.2501,1.2488,1.2494,1.2501,1.2522,1.2549,1.2611,1.2718,1.2766,1.2901,1.2996,1.303,1.3132,1.3227,1.3248,1.3295,1.3349,1.3342,1.3397,1.3383,1.3431,1.3539,1.3605,1.37,1.3761,1.4048,1.4499,1.466,1.4983,1.5711,1.5834,1.5883,1.5925,1.5966,1.5917,1.6007,1.6007,1.6007,1.6007,1.6007,1.6039,1.6104,1.6332,1.6544,1.6617,1.6631,1.6501,1.6422,1.6259,1.6178,1.6194,1.6243,1.6267,1.6243,1.6104,1.6056,1.6047,1.6128,1.6292,1.6479,1.6712,1.6809,1.6882,1.7136,1.7218,0.0,0.0,0.0,0.0,0.0,0.0,0.0,0.0,0.0,0.0,0.0,0.0,0.0,0.0,0.0,0.0,0.0,0.0,0.0,0.0,0.0,0.0,0.0,0.0,0.0,0.0,0.0,0.0,0.0,0.0,0.0,0.0,0.0,0.0,0.0,0.0,0.0,0.0,0.043,0.1209,0.2137,0.3298,0.4965,0.7015,0.9338,1.0676,1.1361,1.2095,1.2501,1.2501,1.2508,1.2522,1.2522,1.2522,1.2576,1.2671,1.2718,1.2793,1.2888,1.2996,1.3057,1.3159,1.3207,1.3268,1.3342,1.3376,1.3403,1.3403,1.3403,1.3478,1.3587,1.3572,1.3687,1.3781,1.3777,1.3844,1.4258,1.4397,1.4624,1.4916,1.5043,1.5133,1.5463,1.5587,1.5669,1.5925,1.6007,1.6007,1.6007,1.6007,1.6039,1.6088,1.6324,1.6527,1.6649,1.6671,1.6682,1.6609,1.6462,1.6365,1.6373,1.6292,1.6349,1.6209,1.6047,1.6015,1.6007,1.6186,1.6324,1.6511,1.6647,1.6817,1.6987,1.7193,1.7291,0.0,0.0,0.0,0.0,0.0,0.0,0.0,0.0,0.0,0.0,0.0,0.0,0.0,0.0,0.0,0.0,0.0,0.0,0.0,0.0,0.0,0.0,0.0,0.0,0.0,0.0,0.0,0.0,0.0,0.0,0.0,0.0,0.0,0.0,0.0,0.0157,0.0,0.0,0.1296,0.2235,0.3135,0.4583,0.6147,0.8219,1.0208,1.1301,1.1378,1.2076,1.2464,1.2551,1.2571,1.261,1.263,1.2678,1.2759,1.282,1.2915,1.2963,1.3051,1.3173,1.3248,1.3268,1.3322,1.3322,1.3403,1.3458,1.3505,1.3526,1.358,1.3626,1.381,1.3838,1.3905,1.395,1.3919,1.3939,1.4019,1.4154,1.4325,1.457,1.4754,1.5002,1.5216,1.5257,1.5587,1.5883,1.5966,1.5966,1.6007,1.6007,1.6031,1.6112,1.6341,1.6511,1.6649,1.6747,1.682,1.6803,1.6787,1.6747,1.6747,1.6609,1.642,1.6274,1.6112,1.6015,1.6031,1.6219,1.6373,1.6535,1.673,1.695,1.7112,1.7218,1.7299,0.0,0.0,0.0,0.0,0.0,0.0,0.0,0.0,0.0,0.0,0.0,0.0,0.0,0.0,0.0,0.0,0.0,0.0,0.0,0.0,0.0,0.0,0.0,0.0,0.0,0.0,0.0,0.0,0.0,0.0,0.0,0.0,0.0,0.0,0.0,0.0394,0.0748,0.1139,0.2362,0.3701,0.4648,0.6227,0.7818,0.9361,1.0622,1.1366,1.1562,1.2148,1.2644,1.2752,1.2786,1.28,1.2827,1.2881,1.3023,1.3023,1.3125,1.3193,1.3207,1.3302,1.3376,1.3397,1.3397,1.3397,1.3424,1.3519,1.3593,1.3612,1.3673,1.3815,1.4084,1.4078,1.4159,1.4197,1.4136,1.3987,1.3874,1.3923,1.4102,1.4307,1.43,1.4431,1.4803,1.501,1.5422,1.5801,1.5891,1.5974,1.6023,1.6023,1.6047,1.608,1.6292,1.6501,1.6663,1.6893,1.695,1.7015,1.7047,1.7055,1.7031,1.682,1.6566,1.6363,1.6209,1.6145,1.6145,1.6324,1.647,1.66,1.6779,1.7006,1.7136,1.7226,1.7307,0.0,0.0,0.0,0.0,0.0,0.0,0.0,0.0,0.0,0.0,0.0,0.0,0.0,0.0,0.0,0.0,0.0,0.0,0.0,0.0,0.0,0.0,0.0,0.0,0.0,0.0,0.0,0.0,0.0,0.0,0.0,0.0,0.0,0.0,0.0,0.0438,0.119,0.2093,0.3329,0.4772,0.6568,0.776,0.8797,1.0126,1.1038,1.1482,1.1779,1.2436,1.2941,1.2975,1.3037,1.3078,1.3071,1.3064,1.3084,1.3125,1.3173,1.3282,1.3329,1.3383,1.3403,1.3397,1.3431,1.3424,1.3458,1.3559,1.3682,1.368,1.3761,1.3919,1.4098,1.4139,1.415,1.419,1.4082,1.3856,1.3804,1.3705,1.3631,1.3776,1.3769,1.3873,1.4358,1.4761,1.5131,1.5513,1.5763,1.5962,1.6128,1.6096,1.6072,1.6112,1.6169,1.6461,1.6728,1.6947,1.7145,1.7218,1.7258,1.7258,1.7185,1.6922,1.672,1.6671,1.656,1.6438,1.6462,1.6529,1.6584,1.6671,1.6849,1.7071,1.7177,1.7274,1.7356,0.0,0.0,0.0,0.0,0.0,0.0,0.0,0.0,0.0,0.0,0.0,0.0,0.0,0.0,0.0,0.0,0.0,0.0,0.0,0.0,0.0,0.0,0.0,0.0,0.0,0.0,0.0,0.0,0.0,0.0,0.0,0.0,0.0,0.0,0.0,0.0686,0.1647,0.288,0.4295,0.5956,0.8046,0.8948,0.9854,1.0384,1.0993,1.143,1.1792,1.2274,1.2795,1.3024,1.3132,1.3207,1.3241,1.3241,1.3207,1.3275,1.3288,1.3308,1.341,1.3458,1.3526,1.349,1.3531,1.3627,1.3668,1.377,1.3865,1.396,1.4014,1.4102,1.419,1.4227,1.4231,1.4238,1.4089,1.3896,1.3781,1.3641,1.3532,1.3458,1.3589,1.3874,1.4174,1.4545,1.4841,1.5184,1.5504,1.5832,1.6116,1.61,1.6001,1.6189,1.6293,1.6642,1.6864,1.7101,1.7295,1.7412,1.7346,1.7354,1.7343,1.7101,1.715,1.7222,1.7063,1.6596,1.6627,1.6594,1.669,1.6768,1.6874,1.7003,1.7193,1.7315,1.7388,0.0,0.0,0.0,0.0,0.0,0.0,0.0,0.0,0.0,0.0,0.0,0.0,0.0,0.0,0.0,0.0,0.0,0.0,0.0,0.0,0.0,0.0,0.0,0.0,0.0,0.0,0.0,0.0,0.0,0.0,0.0,0.0,0.0,0.0,0.0,0.0,0.2079,0.3738,0.521,0.6967,0.8734,0.9881,1.0454,1.0495,1.086,1.1283,1.1619,1.2193,1.2644,1.2989,1.3193,1.3322,1.3376,1.3397,1.3397,1.3397,1.3397,1.3397,1.3431,1.3539,1.3565,1.3565,1.3714,1.3774,1.3815,1.3933,1.4153,1.4258,1.4285,1.4272,1.4272,1.4292,1.4292,1.4265,1.4163,1.4027,1.3905,1.377,1.3654,1.362,1.3654,1.3781,1.4063,1.4196,1.445,1.4804,1.5128,1.544,1.5728,1.5928,1.5952,1.6206,1.6423,1.6813,1.7096,1.7235,1.7419,1.7524,1.7402,1.7264,1.7309,1.7322,1.728,1.7045,1.6881,1.6537,1.6577,1.6682,1.6836,1.689,1.6898,1.6971,1.7161,1.7307,1.7421,0.0,0.0,0.0,0.0,0.0,0.0,0.0,0.0,0.0,0.0,0.0,0.0,0.0,0.0,0.0,0.0,0.0,0.0,0.0,0.0,0.0,0.0,0.0,0.0,0.0,0.0,0.0,0.0,0.0,0.0,0.0,0.0,0.0,0.0,0.0,0.0,0.2585,0.4686,0.6107,0.79,0.9906,1.0542,1.063,1.076,1.1044,1.1328,1.1558,1.2136,1.2662,1.2799,1.3197,1.3376,1.3397,1.3397,1.3397,1.3397,1.3397,1.3403,1.3437,1.3587,1.3688,1.3715,1.3804,1.3788,1.3876,1.4014,1.42,1.4278,1.4299,1.4299,1.4299,1.4299,1.4299,1.4258,1.4183,1.4102,1.4007,1.3912,1.379,1.3783,1.381,1.3756,1.385,1.3911,1.4045,1.4394,1.475,1.5071,1.5393,1.5645,1.5762,1.5963,1.634,1.6755,1.6923,1.7128,1.724,1.7436,1.7281,1.7041,1.698,1.6926,1.6606,1.6437,1.6404,1.657,1.6721,1.6867,1.7003,1.7055,1.7055,1.708,1.712,1.723,1.7303,0.0,0.0,0.0,0.0,0.0,0.0,0.0,0.0,0.0,0.0,0.0,0.0,0.0,0.0,0.0,0.0,0.0,0.0,0.0,0.0,0.0,0.0,0.0,0.0,0.0,0.0,0.0,0.0,0.0,0.0,0.0,0.0,0.0,0.0,0.0,0.0,0.2827,0.5184,0.7564,0.9433,1.0429,1.0695,1.0695,1.0737,1.0945,1.1153,1.1486,1.1986,1.2484,1.2692,1.3148,1.3397,1.3397,1.3397,1.3397,1.341,1.345,1.349,1.3518,1.3749,1.3831,1.3905,1.4,1.4109,1.4116,1.415,1.4211,1.4292,1.4299,1.4299,1.4299,1.4299,1.4299,1.4272,1.4224,1.4156,1.4139,1.4034,1.3953,1.396,1.396,1.3919,1.3905,1.403,1.4222,1.4533,1.4807,1.5046,1.5337,1.5628,1.5694,1.568,1.6101,1.6528,1.6662,1.6794,1.6765,1.6888,1.6818,1.6603,1.6483,1.6317,1.6054,1.6167,1.6381,1.6614,1.6852,1.7025,1.7109,1.7153,1.7169,1.7165,1.7117,1.6855,1.6968,0.0,0.0,0.0,0.0,0.0,0.0,0.0,0.0,0.0,0.0,0.0,0.0,0.0,0.0,0.0,0.0,0.0,0.0,0.0,0.0,0.0,0.0,0.0,0.0,0.0,0.0,0.0,0.0,0.0,0.0,0.0,0.0,0.0,0.0,0.0,0.1002,0.2723,0.582,0.8874,1.0393,1.0695,1.0695,1.0695,1.0695,1.0737,1.0862,1.1242,1.1867,1.2339,1.2589,1.3233,1.3511,1.3546,1.3553,1.3553,1.3587,1.3639,1.3756,1.3804,1.3919,1.4091,1.4159,1.4241,1.4251,1.4272,1.4299,1.4299,1.4299,1.4299,1.4299,1.4299,1.4299,1.4299,1.4299,1.4285,1.4261,1.42,1.4122,1.4109,1.4116,1.4122,1.4129,1.4143,1.4217,1.4397,1.472,1.4911,1.4999,1.5168,1.5381,1.5286,1.5183,1.5536,1.5964,1.607,1.6212,1.6234,1.6263,1.62,1.6024,1.58,1.5646,1.5462,1.5763,1.616,1.6167,1.616,1.67,1.7206,1.7331,1.7344,1.7246,1.7136,1.6781,1.6755,0.0,0.0,0.0,0.0,0.0,0.0,0.0,0.0,0.0,0.0,0.0,0.0,0.0,0.0,0.0,0.0,0.0,0.0,0.0,0.0,0.0,0.0,0.0,0.0,0.0,0.0,0.0,0.0,0.0,0.0,0.0,0.0,0.0,0.0,0.0,0.1421,0.3442,0.6379,0.9272,1.0612,1.0701,1.0706,1.0712,1.0712,1.0706,1.0737,1.079,1.1693,1.2258,1.2433,1.318,1.37,1.3687,1.3693,1.3693,1.372,1.3878,1.3953,1.4007,1.4034,1.4068,1.4122,1.4197,1.4299,1.4299,1.4299,1.4299,1.4299,1.4299,1.4299,1.4299,1.4299,1.4299,1.4299,1.4299,1.4278,1.4245,1.4251,1.4238,1.4265,1.4258,1.4238,1.4231,1.4278,1.4292,1.4557,1.4557,1.469,1.4601,1.4734,1.4646,1.4639,1.4948,1.5203,1.5332,1.5471,1.5626,1.5562,1.5451,1.5237,1.5027,1.4885,1.5049,1.5167,1.5512,1.5481,1.5691,1.6461,1.7094,1.7419,1.7419,1.7055,1.6824,1.6575,1.675,0.0,0.0,0.0,0.0,0.0,0.0,0.0,0.0,0.0,0.0,0.0,0.0,0.0,0.0,0.0,0.0,0.0,0.0,0.0,0.0,0.0,0.0,0.0,0.0,0.0,0.0,0.0,0.0,0.0,0.0,0.0,0.0,0.0,0.0,0.0,0.2344,0.4747,0.664,0.9151,1.0654,1.0712,1.0777,1.0809,1.0851,1.0896,1.0954,1.1056,1.1601,1.2045,1.249,1.3054,1.3465,1.3786,1.3786,1.3822,1.3835,1.4014,1.4075,1.4153,1.415,1.4211,1.4217,1.4265,1.4299,1.4299,1.4299,1.4299,1.4299,1.4299,1.4299,1.4299,1.4299,1.4299,1.4299,1.4306,1.4312,1.434,1.436,1.436,1.438,1.4326,1.4278,1.4285,1.4292,1.4299,1.4343,1.4343,1.4299,1.4299,1.4299,1.4299,1.4357,1.4673,1.4718,1.4874,1.4981,1.5127,1.4979,1.4829,1.4758,1.4694,1.4733,1.4835,1.4863,1.5055,1.5378,1.5848,1.6481,1.688,1.7002,1.6803,1.6446,1.6314,1.6261,1.6612,0.0,0.0,0.0,0.0,0.0,0.0,0.0,0.0,0.0,0.0,0.0,0.0,0.0,0.0,0.0,0.0,0.0,0.0,0.0,0.0,0.0,0.0,0.0,0.0,0.0,0.0,0.0,0.0,0.0,0.0,0.0,0.0,0.0,0.0,0.0,0.3456,0.5848,0.7162,0.9235,1.0762,1.0867,1.0927,1.0976,1.0982,1.1041,1.1074,1.1219,1.1592,1.2009,1.2416,1.2922,1.3374,1.3684,1.385,1.3937,1.3971,1.4061,1.4129,1.417,1.4224,1.4299,1.4285,1.4285,1.4299,1.4299,1.4299,1.4299,1.4299,1.4299,1.4299,1.4299,1.4299,1.4346,1.4367,1.4387,1.4407,1.4475,1.4509,1.4496,1.4489,1.4455,1.4462,1.4468,1.4475,1.4387,1.436,1.4299,1.4299,1.4299,1.4299,1.4299,1.4415,1.4575,1.4537,1.4469,1.4689,1.4903,1.4878,1.4758,1.4726,1.4694,1.4721,1.4808,1.4894,1.514,1.5461,1.5696,1.6004,1.6217,1.6398,1.6199,1.6075,1.6002,1.5982,1.6332,0.0,0.0,0.0,0.0,0.0,0.0,0.0,0.0,0.0,0.0,0.0,0.0,0.0,0.0,0.0,0.0,0.0,0.0,0.0,0.0,0.0,0.0,0.0,0.0,0.0,0.0,0.0,0.0,0.0,0.0,0.0,0.0,0.0,0.0,0.0,0.3666,0.5848,0.7144,0.9683,1.0752,1.1052,1.1074,1.1096,1.1107,1.1145,1.1172,1.1275,1.1586,1.1925,1.2237,1.2973,1.3406,1.3595,1.4048,1.418,1.4245,1.4258,1.4278,1.4292,1.4299,1.4299,1.4299,1.4299,1.4299,1.4299,1.4299,1.4299,1.4299,1.4299,1.4299,1.4299,1.4319,1.4394,1.4441,1.4468,1.4523,1.4545,1.4579,1.4559,1.4545,1.462,1.4674,1.4667,1.4633,1.4543,1.4448,1.434,1.4319,1.4353,1.438,1.4414,1.4479,1.4609,1.4578,1.4529,1.4631,1.4719,1.4687,1.4714,1.4801,1.4855,1.4909,1.495,1.5017,1.5118,1.5372,1.532,1.5268,1.5634,1.5971,1.5946,1.5828,1.573,1.58,1.6124,0.0,0.0,0.0,0.0,0.0,0.0,0.0,0.0,0.0,0.0,0.0,0.0,0.0,0.0,0.0,0.0,0.0,0.0,0.0,0.0,0.0,0.0,0.0,0.0,0.0,0.0,0.0,0.0,0.0,0.0,0.0,0.0,0.0,0.0,0.1521,0.3902,0.594,0.7241,0.9448,1.1101,1.1118,1.1172,1.1259,1.1264,1.1324,1.1357,1.1352,1.1627,1.1814,1.2085,1.2869,1.3274,1.3546,1.3989,1.4299,1.4299,1.4299,1.4299,1.4299,1.4299,1.4299,1.4299,1.4299,1.4299,1.4299,1.4299,1.4299,1.4312,1.434,1.4333,1.4299,1.4401,1.4482,1.4516,1.4557,1.4638,1.466,1.466,1.466,1.4647,1.4687,1.4721,1.4728,1.4782,1.4733,1.4685,1.4611,1.4563,1.4577,1.4604,1.4631,1.4586,1.4652,1.4658,1.4654,1.4735,1.4809,1.4889,1.4916,1.4957,1.5057,1.5052,1.5072,1.5092,1.5133,1.5181,1.5187,1.5248,1.5397,1.5545,1.5599,1.5585,1.5538,1.5649,1.5911,0.0,0.0,0.0,0.0,0.0,0.0,0.0,0.0,0.0,0.0,0.0,0.0,0.0,0.0,0.0,0.0,0.0,0.0,0.0,0.0,0.0,0.0,0.0,0.0,0.0,0.0,0.0,0.0,0.0,0.0,0.0,0.0,0.0,0.0,0.1896,0.3956,0.6063,0.7516,0.9587,1.1253,1.1264,1.1341,1.1379,1.1401,1.1439,1.1488,1.1499,1.1543,1.1632,1.2077,1.252,1.3008,1.3413,1.3901,1.4255,1.4299,1.4299,1.4299,1.4299,1.4299,1.4299,1.4299,1.4299,1.4326,1.436,1.4387,1.4434,1.4448,1.4434,1.4441,1.4462,1.457,1.4604,1.4645,1.4726,1.4808,1.4882,1.4896,1.4896,1.4875,1.4869,1.4823,1.4823,1.4863,1.4923,1.4909,1.4889,1.4796,1.4735,1.4735,1.4735,1.4735,1.4755,1.4821,1.4848,1.4909,1.4977,1.5085,1.5105,1.5119,1.514,1.5181,1.5194,1.5215,1.5255,1.5269,1.5221,1.5275,1.5418,1.5472,1.5493,1.5425,1.5343,1.552,1.5835,0.0,0.0,0.0,0.0,0.0,0.0,0.0,0.0,0.0,0.0,0.0,0.0,0.0,0.0,0.0,0.0,0.0,0.0,0.0,0.0,0.0,0.0,0.0,0.0,0.0,0.0,0.0,0.0,0.0,0.0,0.0,0.0,0.0,0.0,0.2009,0.4054,0.6012,0.7651,0.9782,1.1158,1.1434,1.1461,1.1466,1.1477,1.1494,1.1499,1.1499,1.1543,1.1543,1.1855,1.2343,1.2698,1.3192,1.3812,1.4122,1.4299,1.4299,1.4306,1.4333,1.434,1.4367,1.4387,1.4367,1.4407,1.4455,1.4502,1.4518,1.4572,1.4638,1.4679,1.4667,1.4753,1.4794,1.4855,1.4936,1.5018,1.5106,1.5126,1.5126,1.512,1.5106,1.5106,1.5086,1.5099,1.5052,1.5059,1.5031,1.4984,1.4923,1.4875,1.4875,1.4875,1.4909,1.5017,1.5051,1.5038,1.5065,1.5106,1.5126,1.5153,1.5221,1.5276,1.5289,1.5309,1.5364,1.5377,1.5364,1.5384,1.5432,1.5479,1.5471,1.5437,1.5417,1.5581,1.5814,0.0,0.0,0.0,0.0,0.0,0.0,0.0,0.0,0.0,0.0,0.0,0.0,0.0,0.0,0.0,0.0,0.0,0.0,0.0,0.0,0.0,0.0,0.0,0.0,0.0,0.0,0.0,0.0,0.0,0.0,0.0,0.0,0.0,0.0,0.2063,0.4255,0.5864,0.7699,1.0065,1.1143,1.1499,1.1499,1.1499,1.1499,1.1499,1.1499,1.1499,1.1499,1.1499,1.1677,1.2077,1.2476,1.2964,1.3502,1.3901,1.4299,1.4312,1.4333,1.4428,1.4448,1.4482,1.4512,1.4545,1.4543,1.457,1.4618,1.466,1.4728,1.4755,1.4821,1.4841,1.4882,1.4916,1.4977,1.5045,1.5113,1.5181,1.5181,1.5181,1.5181,1.5181,1.5181,1.5181,1.5167,1.5126,1.516,1.516,1.5106,1.5065,1.5004,1.4984,1.4984,1.5011,1.5112,1.5146,1.5126,1.5153,1.5174,1.5181,1.5187,1.5215,1.5269,1.5343,1.5425,1.5506,1.554,1.554,1.5588,1.5676,1.5571,1.5533,1.5529,1.5502,1.5423,1.5404,0.0,0.0,0.0,0.0,0.0,0.0,0.0,0.0,0.0,0.0,0.0,0.0,0.0,0.0,0.0,0.0,0.0,0.0,0.0,0.0,0.0,0.0,0.0,0.0,0.0,0.0,0.0,0.0,0.0,0.0,0.0,0.0,0.0,0.0,0.1974,0.412,0.6043,0.7833,0.9625,1.1054,1.1499,1.1499,1.1499,1.1499,1.1499,1.1499,1.1499,1.1499,1.1499,1.1588,1.1943,1.2299,1.2742,1.3186,1.3812,1.4224,1.4373,1.4421,1.4496,1.4577,1.4599,1.4681,1.4755,1.4787,1.4767,1.4801,1.4869,1.4936,1.493,1.4936,1.4964,1.4991,1.5025,1.5059,1.5113,1.5174,1.5181,1.5181,1.5181,1.5181,1.5181,1.5181,1.5181,1.5181,1.5181,1.5181,1.5181,1.516,1.514,1.512,1.5106,1.5106,1.5126,1.516,1.5181,1.5187,1.5187,1.5187,1.5181,1.5187,1.5215,1.5316,1.5445,1.556,1.5669,1.5654,1.5611,1.583,1.5925,1.5635,1.5116,1.4763,1.457,1.4527,1.4601,0.0,0.0,0.0,0.0,0.0,0.0,0.0,0.0,0.0,0.0,0.0,0.0,0.0,0.0,0.0,0.0,0.0,0.0,0.0,0.0,0.0,0.0,0.0,0.0,0.0,0.0,0.0,0.0,0.0,0.0,0.0,0.0,0.0,0.0,0.1705,0.4299,0.6177,0.752,0.9714,1.1499,1.1499,1.1499,1.1499,1.1499,1.1499,1.1499,1.1499,1.1499,1.1499,1.1632,1.181,1.2121,1.252,1.3097,1.3768,1.4118,1.4325,1.4502,1.4584,1.464,1.4721,1.4796,1.4903,1.495,1.4964,1.4964,1.5018,1.5059,1.5059,1.5059,1.5086,1.5092,1.5113,1.5126,1.5153,1.5181,1.5181,1.5181,1.5181,1.5181,1.5181,1.5181,1.5181,1.5181,1.5181,1.5181,1.5181,1.5181,1.5194,1.5194,1.5201,1.5201,1.5181,1.5187,1.5201,1.5201,1.5201,1.5201,1.5208,1.5228,1.5276,1.5411,1.5574,1.5675,1.5781,1.5694,1.5704,1.5565,1.5299,1.5038,1.4492,1.383,1.3503,1.3061,1.2959,0.0,0.0,0.0,0.0,0.0,0.0,0.0,0.0,0.0,0.0,0.0,0.0,0.0,0.0,0.0,0.0,0.0,0.0,0.0,0.0,0.0,0.0,0.0,0.0,0.0,0.0,0.0,0.0,0.0,0.0,0.0,0.0,0.0,0.0,0.1528,0.4216,0.6052,0.7239,0.9701,1.132,1.1448,1.1471,1.1499,1.151,1.1515,1.1526,1.1526,1.1521,1.151,1.1543,1.1588,1.1855,1.221,1.3103,1.3591,1.3838,1.4245,1.4448,1.4699,1.4821,1.493,1.5025,1.5092,1.5113,1.5173,1.5133,1.514,1.5167,1.5181,1.5181,1.5181,1.5181,1.5181,1.5181,1.5181,1.5181,1.5181,1.5181,1.5181,1.5181,1.5181,1.5194,1.5194,1.5201,1.5181,1.5181,1.5181,1.5187,1.5221,1.5235,1.5262,1.5255,1.5194,1.5194,1.5215,1.5262,1.5282,1.5303,1.5323,1.5337,1.5364,1.556,1.5778,1.5806,1.5854,1.5481,1.4975,1.4433,1.4169,1.3805,1.2925,1.1946,1.0801,1.0202,1.0355,0.0,0.0,0.0,0.0,0.0,0.0,0.0,0.0,0.0,0.0,0.0,0.0,0.0,0.0,0.0,0.0,0.0,0.0,0.0,0.0,0.0,0.0,0.0,0.0,0.0,0.0,0.0,0.0,0.0,0.0,0.0,0.0,0.0,0.054,0.1669,0.3834,0.5734,0.6993,0.9608,1.0835,1.1231,1.1439,1.1585,1.159,1.1612,1.1607,1.1618,1.1663,1.1618,1.1623,1.1679,1.1944,1.2311,1.2807,1.3335,1.3733,1.414,1.4518,1.4756,1.4917,1.5039,1.506,1.5181,1.516,1.516,1.516,1.516,1.5181,1.5181,1.5181,1.5181,1.5181,1.5181,1.5181,1.5181,1.5181,1.5181,1.5181,1.5181,1.5187,1.5228,1.5309,1.5337,1.5418,1.5411,1.5425,1.5391,1.5364,1.5364,1.5323,1.5337,1.533,1.5289,1.5276,1.5316,1.5357,1.5398,1.5418,1.5445,1.5574,1.5683,1.5818,1.5988,1.5844,1.5447,1.4761,1.4232,1.3262,1.2398,1.1829,1.0852,0.9726,0.8629,0.7665,0.7496,0.0,0.0,0.0,0.0,0.0,0.0,0.0,0.0,0.0,0.0,0.0,0.0,0.0,0.0,0.0,0.0,0.0,0.0,0.0,0.0,0.0,0.0,0.0,0.0,0.0,0.0,0.0,0.0,0.0,0.0,0.0,0.0,0.0,0.0496,0.1681,0.3189,0.483,0.6422,0.8415,1.0147,1.0815,1.1362,1.1595,1.1775,1.1819,1.1819,1.1819,1.1813,1.1768,1.1803,1.1781,1.1953,1.2221,1.2528,1.295,1.343,1.3845,1.4204,1.4553,1.4699,1.4812,1.4946,1.504,1.5087,1.5087,1.5134,1.5134,1.5181,1.5181,1.5181,1.5181,1.5181,1.5181,1.5187,1.5187,1.5194,1.5194,1.5194,1.5201,1.5208,1.5303,1.5398,1.5445,1.5533,1.5566,1.5587,1.5593,1.5593,1.556,1.5485,1.5499,1.5472,1.5432,1.5425,1.5438,1.5493,1.5554,1.5554,1.5608,1.5811,1.5925,1.5893,1.5801,1.5701,1.5221,1.3841,1.2663,1.1558,1.0759,0.9767,0.8829,0.7834,0.7048,0.6036,0.4961,0.0,0.0,0.0,0.0,0.0,0.0,0.0,0.0,0.0,0.0,0.0,0.0,0.0,0.0,0.0,0.0,0.0,0.0,0.0,0.0,0.0,0.0,0.0,0.0,0.0,0.0,0.0,0.0,0.0,0.0,0.0,0.0,0.0,0.0,0.1002,0.2466,0.3854,0.55,0.7514,0.9422,1.0291,1.0895,1.1665,1.1813,1.1819,1.1819,1.1819,1.1819,1.1819,1.1819,1.1841,1.1938,1.2081,1.2317,1.2685,1.3042,1.3456,1.3725,1.402,1.419,1.4234,1.4247,1.4388,1.461,1.4711,1.4993,1.504,1.5181,1.5181,1.5181,1.5181,1.5181,1.5181,1.5208,1.5221,1.5235,1.5242,1.5255,1.5269,1.5323,1.5411,1.5506,1.5601,1.5614,1.5683,1.5654,1.5661,1.5654,1.5723,1.5641,1.5614,1.5587,1.5594,1.5533,1.5553,1.5683,1.5779,1.5723,1.5764,1.5947,1.594,1.5734,1.5593,1.5125,1.3706,1.2166,1.1001,0.9596,0.8513,0.7508,0.6806,0.5996,0.5312,0.4884,0.4146]},{"header":{"parameterUnit":"m.s-1","parameterCategory":1,"la1":31.0,"la2":29.5877,"lo1":-88.7671,"lo2":-86.6584,"dy":0.0162,"dx":0.0185,"nx":115,"ny":88,"refTime":"2026-04-06T00:00:00:Z","depth":0,"parameterNumber":3,"parameterNumberName":"V-component_of_WINDS"},"data":[0.0,0.0,0.0,0.0,0.0,0.0,0.0,0.0,0.0,0.0,0.0,0.0,0.0,0.0,0.0,0.0,0.0,0.0,0.0,0.0,0.0,0.0,0.0,0.0,0.0,0.0,0.0,0.0,0.0,0.0,0.0,0.0,0.0,0.0,0.0,0.0,0.0,0.0,0.0,0.0,0.0,0.0,0.0,0.0,0.0,0.0,0.0,0.0,0.0,0.0,0.0,0.0,0.0,0.0,0.0,0.0,0.0,0.0,0.0,0.0,0.0,0.0,0.0,0.0,0.0,0.0,0.0,0.0,0.0,0.0,0.0,0.0,0.0,0.0,0.0,0.0,0.0,0.0,0.0,0.0,0.0,0.0,0.0,0.0,0.0,0.0,0.0,0.0,0.0,0.0,0.0,0.0,0.0,0.0,0.0,0.0,0.0,0.0,0.0,0.0,0.0,0.0,0.0,0.0,0.0,0.0,0.0,0.0,0.0,0.0,0.0,0.0,0.0,0.0,0.0,0.0,0.0,0.0,0.0,0.0,0.0,0.0,0.0,0.0,0.0,0.0,0.0,0.0,0.0,0.0,0.0,0.0,0.0,0.0,0.0,0.0,0.0,0.0,0.0,0.0,0.0,0.0,0.0,0.0,0.0,0.0,0.0,0.0,0.0,0.0,0.0,0.0,0.0,0.0,0.0,0.0,0.0,0.0,0.0,0.0,0.0,0.0,0.0,0.0,0.0,0.0,0.0,0.0,0.0,0.0,0.0,0.0,0.0,0.0,0.0,0.0,0.0,0.0,0.0,0.0,0.0,0.0,0.0,0.0,0.0,0.0,0.0,0.0,0.0,0.0,0.0,0.0,0.0,0.0,0.0,0.0,0.0,0.0,0.0,0.0,0.0,0.0,0.0,0.0,0.0,0.0,0.0,0.0,0.0,0.0,0.0,0.0,0.0,0.0,0.0,0.0,0.0,0.0,0.0,0.0,0.0,0.0,0.0,0.0,0.0,0.0,0.0,0.0,0.0,0.0,0.0,0.0,0.0,0.0,0.0,0.0,0.0,0.0,0.0,0.0,0.0,0.0,0.0,0.0,0.0,0.0,0.0,0.0,0.0,0.0,0.0,0.0,0.0,0.0,0.0,0.0,0.0,0.0,0.0,0.0,0.0,0.0,0.0,0.0,0.0,0.0,0.0,0.0,0.0,0.0,0.0,0.0,0.0,0.0,0.0,0.0,0.0,0.0,0.0,0.0,0.0,0.0,0.0,0.0,0.0,0.0,0.0,0.0,0.0,0.0,0.0,0.0,0.0,0.0,0.0,0.0,0.0,0.0,0.0,0.0,0.0,0.0,0.0,0.0,0.0,0.0,0.0,0.0,0.0,0.0,0.0,0.0,0.0,0.0,0.0,0.0,0.0,0.0,0.0,0.0,0.0,0.0,0.0,0.0,0.0,0.0,0.0,0.0,0.0,0.0,0.0,0.0,0.0,0.0,0.0,0.0,0.0,0.0,0.0,0.0,0.0,0.0,0.0,0.0,0.0,0.0,0.0,0.0,0.0,0.0,0.0,0.0,0.0,0.0,0.0,0.0,0.0,0.0,0.0,0.0,0.0,0.0,0.0,0.0,0.0,0.0,0.0,0.0,0.0,0.0,0.0,0.0,0.0,0.0,0.0,0.0,0.0,0.0,0.0,0.0,0.0,0.0,0.0,0.0,0.0,0.0,0.0,0.0,0.0,0.0,0.0,0.0,0.0,0.0,0.0,0.0,0.0,0.0,0.0,0.0,0.0,0.0,0.0,0.0,0.0,0.0,0.0,0.0,0.0,0.0,0.0,0.0,0.0,0.0,0.0,0.0,0.0,0.0,0.0,0.0,0.0,0.0,0.0,0.0,0.0,0.0,0.0,0.0,0.0,0.0,0.0,0.0,0.0,0.0,0.0,0.0,0.0,0.0,0.0,0.0,0.0,0.0,0.0,0.0,0.0,0.0,0.0,0.0,0.0,0.0,0.0,0.0,0.0,0.0,0.0,0.0,0.0,0.0,0.0,0.0,0.0,0.0,0.0,0.0,0.0,0.0,0.0,0.0,0.0,0.0,0.0,0.0,0.0,0.0,0.0,0.0,0.0,0.0,0.0,0.0,0.0,0.0,0.0,0.0,0.0,0.0,0.0,0.0,0.0,0.0,0.0,0.0,0.0,0.0,0.0,0.0,0.0,0.0,0.0,0.0,0.0,0.0,0.0,0.0,0.0,0.0,0.0,0.0,0.0,0.0,0.0,0.0,0.0,0.0,0.0,0.0,0.0,0.0,0.0,0.0,0.0,0.0,0.0,0.0,0.0,0.0,0.0,0.0,0.0,0.0,0.0,0.0,0.0,0.0,0.0,0.0,0.0,0.0,0.0,0.0,0.0,0.0,0.0,0.0,0.0,0.0,0.0,0.0,0.0,0.0,0.0,0.0,0.0,0.0,0.0,0.0,0.0,0.0,0.0,0.0,0.0,0.0,0.0,0.0,0.0,0.0,0.0,0.0,0.0,0.0,0.0,0.0,0.0,0.0,0.0,0.0,0.0,0.0,0.0,0.0,0.0,0.0,0.0,0.0,0.0,0.0,0.0,0.0,0.0,0.0,0.0,0.0,0.0,0.0,0.0,0.0,0.0,0.0,0.0,0.0,0.0,0.0,0.0,0.0,0.0,0.0,0.0,0.0,0.0,0.0,0.0,0.0,0.0,0.0,0.0,0.0,0.0,0.0,0.0,0.0,0.0,0.0,0.0,0.0,0.0,0.0,0.0,0.0,0.0,0.0,0.0,0.0,0.0,0.0,0.0,0.0,0.0,0.0,0.0,0.0,0.0,0.0,0.0,0.0,0.0,0.0,0.0,0.0,0.0,0.0,0.0,0.0,0.0,0.0,0.0,0.0,0.0,0.0,0.0,0.0,0.0,0.0,0.0,0.0,0.0,0.0,0.0,0.0,0.0,0.0,0.0,0.0,0.0,0.0,0.0,0.0,0.0,0.0,0.0,0.0,0.0,0.0,0.0,0.0,0.0,0.0,0.0,0.0,0.0,0.0,0.0,0.0,0.0,0.0,0.0,0.0,0.0,0.0,0.0,0.0,0.0,0.0,0.0,0.0,0.0,0.0,0.0,0.0,0.0,0.0,0.0,0.0,0.0,0.0,0.0,0.0,0.0,0.0,0.0,0.0,0.0,0.0,0.0,0.0,0.0,0.0,0.0,0.0,0.0,0.0,0.0,0.0,0.0,0.0,0.0,0.0,0.0,0.0,0.0,0.0,0.0,0.0,0.0,0.0,0.0,0.0,0.0,0.0,0.0,0.0,0.0,0.0,0.0,0.0,0.0,0.0,0.0,0.0,0.0,0.0,0.0,0.0,0.0,0.0,0.0,0.0,0.0,0.0,0.0,0.0,0.0,0.0,0.0,0.0,0.0,0.0,0.0,0.0,0.0,0.0,0.0,0.0,0.0,0.0,0.0,0.0,0.0,0.0,0.0,0.0,0.0,0.0,0.0,0.0,0.0,0.0,0.0,0.0,0.0,0.0,0.0,0.0,0.0,0.0,0.0,0.0,0.0,0.0,0.0,0.0,0.0,0.0,0.0,0.0,0.0,0.0,0.0,0.0,0.0,0.0,0.0,0.0,0.0,0.0,0.0,0.0,0.0,0.0,0.0,0.0,0.0,0.0,0.0,0.0,0.0,0.0,0.0,0.0,0.0,0.0,0.0,0.0,0.0,0.0,0.0,0.0,0.0,0.0,0.0,0.0,0.0,0.0,0.0,0.0,0.0,0.0,0.0,0.0,0.0,0.0,0.0,0.0,0.0,0.0,0.0,0.0,0.0,0.0,0.0,0.0,0.0,0.0,0.0,0.0,0.0,0.0,0.0,0.0,0.0,0.0,0.0,0.0,0.0,0.0,0.0,0.0,0.0,0.0,0.0,0.0,0.0,0.0,0.0,0.0,0.0,0.0,0.0,0.0,0.0,0.0,0.0,0.0,0.0,0.0,0.0,0.0,0.0,0.0,0.0,0.0,0.0,0.0,0.0,0.0,0.0,0.0,0.0,0.0,0.0,0.0,0.0,0.0,0.0,0.0,0.0,0.0,0.0,0.0,0.0,0.0,0.0,0.0,0.0,0.0,0.0,0.0,0.0,0.0,0.0,0.0,0.0,0.0,0.0,0.0,0.0,0.0,0.0,0.0,0.0,0.0,0.0,0.0,0.0,0.0,0.0,0.0,0.0,0.0,0.0,0.0,0.0,0.0,0.0,0.0,0.0,0.0,1.4504,0.0,0.0,0.0,0.0,0.0,0.0,0.0,0.0,0.0,0.0,0.0,0.0,0.0,0.0,0.0,0.0,0.0,0.0,0.0,0.0,0.0,0.0,0.0,0.0,0.0,0.0,0.0,0.0,0.0,0.0,0.0,0.0,0.0,0.0,0.0,0.0,0.0,0.0,0.0,0.0,0.0,0.0,0.0,0.0,0.0,0.0,0.0,0.0,0.0,0.0,0.0,0.0,0.0,0.0,0.0,0.0,0.0,0.0,0.0,0.0,0.0,0.0,0.0,0.0,0.0,0.0,0.0,0.0,0.0,0.0,0.0,0.0,0.0,0.0,0.0,0.0,0.0,0.0,0.0,0.0,0.0,0.0,0.0,0.0,0.0,0.0,0.0,0.0,0.0,0.0,0.0,0.0,0.0,0.0,0.0,0.0,0.0,0.0,0.0,0.0,0.0,0.0,0.0,0.0,0.0,0.0,0.0,0.0,0.0,0.0,1.4213,1.3755,1.4234,1.4522,1.455,0.0,0.0,0.0,0.0,0.0,0.0,0.0,0.0,0.0,0.0,0.0,0.0,0.0,0.0,0.0,0.0,0.0,0.0,0.0,0.0,0.0,0.0,0.0,0.0,0.0,0.0,0.0,0.0,0.0,0.0,0.0,0.0,0.0,0.0,0.0,0.0,0.0,0.0,0.0,0.0,0.0,0.0,0.0,0.0,0.0,0.0,0.0,0.0,0.0,0.0,0.0,0.0,0.0,0.0,0.0,0.0,0.0,0.0,0.0,0.0,0.0,0.0,0.0,0.0,0.0,0.0,0.0,0.0,0.0,0.0,0.0,0.0,0.0,0.0,0.0,0.0,0.0,0.0,0.0,0.0,0.0,0.0,0.0,0.0,0.0,0.0,0.0,0.0,0.0,0.0,0.0,0.0,0.0,0.0,0.0,0.0,0.0,0.0,0.0,0.0,0.0,0.0,0.0,0.0,0.0,0.0,0.0,0.0,0.0,0.0,0.0,0.0,1.4512,1.4975,1.5168,0.0,0.0,0.0,0.0,0.0,0.0,0.0,0.0,0.0,0.0,0.0,0.0,0.0,0.0,0.0,0.0,0.0,0.0,0.0,0.0,0.0,0.0,0.0,0.0,0.0,0.0,0.0,0.0,0.0,0.0,0.0,0.0,0.0,0.0,0.0,0.0,0.0,0.0,0.0,0.0,0.0,0.0,0.0,0.0,0.0,0.0,0.0,0.0,0.0,0.0,0.0,0.0,0.0,0.0,0.0,0.0,0.0,0.0,0.0,0.0,0.0,0.0,0.0,0.0,0.0,0.0,0.0,0.0,0.0,0.0,0.0,0.0,0.0,0.0,0.0,0.0,0.0,0.0,0.0,0.0,0.0,0.0,0.0,0.0,0.0,0.0,0.0,0.0,0.0,0.0,0.0,0.0,0.0,0.0,0.0,0.0,0.0,0.0,0.0,0.0,0.0,0.0,0.0,0.0,0.0,0.0,0.0,0.0,0.0,0.0,1.4822,1.5555,1.5635,0.0,1.6771,0.0,0.0,0.0,0.0,0.0,0.0,0.0,0.0,0.0,0.0,0.0,0.0,0.0,0.0,0.0,0.0,0.0,0.0,0.0,0.0,0.0,0.0,0.0,0.0,0.0,0.0,0.0,0.0,0.0,0.0,0.0,0.0,0.0,0.0,0.0,0.0,0.0,0.0,0.0,0.0,0.0,0.0,0.0,0.0,0.0,0.0,0.0,0.0,0.0,0.0,0.0,0.0,0.0,0.0,0.0,0.0,0.0,0.0,0.0,0.0,0.0,0.0,0.0,0.0,0.0,0.0,0.0,0.0,0.0,0.0,0.0,0.0,0.0,0.0,0.0,0.0,0.0,0.0,0.0,0.0,0.0,0.0,0.0,0.0,0.0,0.0,0.0,0.0,0.0,0.0,0.0,0.0,0.0,0.0,0.0,0.0,0.0,0.0,0.0,0.0,0.0,0.0,0.0,0.0,0.0,0.0,0.0,0.0,0.0,0.0,0.0,1.5787,1.6239,1.6454,0.0,0.0,0.0,0.0,0.0,0.0,0.0,0.0,0.0,0.0,0.0,0.0,0.0,0.0,0.0,0.0,0.0,0.0,0.0,0.0,0.0,0.0,0.0,0.0,0.0,0.0,0.0,0.0,0.0,0.0,0.0,0.0,0.0,0.0,0.0,0.0,0.0,0.0,0.0,0.0,0.0,0.0,0.0,0.0,0.0,0.0,0.0,0.0,0.0,0.0,0.0,0.0,0.0,0.0,0.0,0.0,0.0,0.0,0.0,0.0,0.0,0.0,0.0,0.0,0.0,0.0,0.0,0.0,0.0,0.0,0.0,0.0,0.0,0.0,0.0,0.0,0.0,0.0,0.0,0.0,0.0,0.0,0.0,0.0,0.0,0.0,0.0,0.0,0.0,0.0,0.0,0.0,0.0,0.0,0.0,0.0,0.0,0.0,0.0,0.0,0.0,0.0,0.0,0.0,0.0,0.0,0.0,0.0,0.0,0.0,1.4816,0.0,1.6125,1.6719,1.6747,1.6185,0.0,0.0,0.0,0.0,0.0,0.0,0.0,0.0,0.0,0.0,0.0,0.0,0.0,0.0,0.0,0.0,0.0,0.0,0.0,0.0,0.0,0.0,0.0,0.0,0.0,0.0,0.0,0.0,0.0,0.0,0.0,0.0,0.0,0.0,0.0,0.0,0.0,0.0,0.0,0.0,0.0,0.0,0.0,0.0,0.0,0.0,0.0,0.0,0.0,0.0,0.0,0.0,0.0,0.0,0.0,0.0,0.0,0.0,0.0,0.0,0.0,0.0,0.0,0.0,0.0,0.0,0.0,0.0,0.0,0.0,0.0,0.0,0.0,0.0,0.0,0.0,0.0,0.0,0.0,0.0,0.0,0.0,0.0,0.0,0.0,0.0,0.0,0.0,0.0,0.0,0.0,0.0,0.0,0.0,0.0,0.0,0.0,0.0,0.0,0.0,0.0,0.0,0.0,0.0,0.0,0.0,0.0,0.0,0.0,1.453,1.5325,1.6874,1.7046,1.708,0.0,0.0,0.0,0.0,0.0,0.0,0.0,0.0,0.0,0.0,0.0,0.0,0.0,0.0,0.0,0.0,0.0,0.0,0.0,0.0,0.0,0.0,0.0,0.0,0.0,0.0,0.0,0.0,0.0,0.0,0.0,0.0,0.0,0.0,0.0,0.0,0.0,0.0,0.0,0.0,0.0,0.0,0.0,0.0,0.0,0.0,0.0,0.0,0.0,0.0,0.0,0.0,0.0,0.0,0.0,0.0,0.0,0.0,0.0,0.0,0.0,0.0,0.0,0.0,0.0,0.0,0.0,0.0,0.0,0.0,0.0,0.0,0.0,0.0,0.0,0.0,0.0,0.0,0.0,0.0,0.0,0.0,0.0,0.0,0.0,0.0,0.0,0.0,0.0,0.0,0.0,0.0,0.0,0.0,0.0,0.0,0.0,0.0,0.0,0.0,0.0,0.0,0.0,0.0,0.0,0.0,0.0,0.0,0.0,1.3807,1.4722,1.5803,1.6948,1.7041,1.6778,0.0,0.0,0.0,0.0,0.0,0.0,0.0,0.0,0.0,0.0,0.0,0.0,0.0,0.0,0.0,0.0,0.0,0.0,0.0,0.0,0.0,0.0,0.0,0.0,0.0,0.0,0.0,0.0,0.0,0.0,0.0,0.0,0.0,0.0,0.0,0.0,0.0,0.0,0.0,0.0,0.0,0.0,0.0,0.0,0.0,0.0,0.0,0.0,0.0,0.0,0.0,0.0,0.0,0.0,0.0,0.0,0.0,0.0,0.0,0.0,0.0,0.0,0.0,0.0,0.0,0.0,0.0,0.0,0.0,0.0,0.0,0.0,0.0,0.0,0.0,0.0,0.0,0.0,0.0,0.0,0.0,0.0,0.0,0.0,0.0,0.0,0.0,0.0,0.0,0.0,0.0,0.0,0.0,0.0,0.0,0.0,0.0,0.0,0.0,0.0,0.0,0.0,0.0,0.0,0.0,0.0,0.0,0.0,0.0,1.4584,0.0,1.6784,0.0,1.7158,1.6774,0.0,0.0,0.0,0.0,0.0,0.0,0.0,0.0,0.0,0.0,0.0,0.0,0.0,0.0,0.0,0.0,0.0,0.0,0.0,0.0,0.0,0.0,0.0,0.0,0.0,0.0,0.0,0.0,0.0,0.0,0.0,0.0,0.0,0.0,0.0,0.0,0.0,0.0,0.0,0.0,0.0,0.0,0.0,0.0,0.0,0.0,0.0,0.0,0.0,0.0,0.0,0.0,0.0,0.0,0.0,0.0,0.0,0.0,0.0,0.0,0.0,0.0,0.0,0.0,0.0,0.0,0.0,0.0,0.0,0.0,0.0,0.0,0.0,0.0,0.0,0.0,0.0,0.0,0.0,0.0,0.0,0.0,0.0,0.0,0.0,0.0,0.0,0.0,0.0,0.0,0.0,0.0,0.0,0.0,0.0,0.0,0.0,0.0,0.0,0.0,0.0,0.0,0.0,0.0,0.0,0.0,0.0,0.0,1.7004,1.7002,1.7759,1.8161,1.8161,1.7465,1.708,0.0,0.0,0.0,0.0,0.0,0.0,0.0,0.0,0.0,0.0,0.0,0.0,0.0,0.0,0.0,0.0,0.0,0.0,0.0,0.0,0.0,0.0,0.0,0.0,0.0,0.0,0.0,0.0,0.0,0.0,0.0,0.0,0.0,0.0,0.0,0.0,0.0,0.0,0.0,0.0,0.0,0.0,0.0,0.0,0.0,0.0,0.0,0.0,0.0,0.0,0.0,0.0,0.0,0.0,0.0,0.0,0.0,0.0,0.0,0.0,0.0,0.0,0.0,0.0,0.0,0.0,0.0,0.0,0.0,0.0,0.0,0.0,0.0,0.0,0.0,0.0,0.0,0.0,0.0,0.0,0.0,0.0,0.0,0.0,0.0,0.0,0.0,0.0,0.0,0.0,0.0,0.0,0.0,0.0,0.0,0.0,0.0,0.0,0.0,0.0,0.0,0.0,0.0,0.0,0.0,0.0,0.0,0.0,0.0,1.794,1.868,1.8828,1.8283,1.7522,1.683,0.0,0.0,0.0,0.0,0.0,0.0,0.0,0.0,0.0,0.0,0.0,0.0,0.0,0.0,0.0,0.0,0.0,0.0,0.0,0.0,0.0,0.0,0.0,0.0,0.0,0.0,0.0,0.0,0.0,0.0,0.0,0.0,0.0,0.0,0.0,0.0,0.0,0.0,0.0,0.0,0.0,0.0,0.0,0.0,0.0,0.0,0.0,0.0,0.0,0.0,0.0,0.0,0.0,0.0,0.0,0.0,0.0,0.0,0.0,0.0,0.0,0.0,0.0,0.0,0.0,0.0,0.0,0.0,0.0,0.0,0.0,0.0,0.0,0.0,0.0,0.0,0.0,0.0,0.0,0.0,0.0,0.0,0.0,0.0,0.0,0.0,0.0,0.0,0.0,0.0,0.0,0.0,0.0,0.0,0.0,0.0,0.0,0.0,0.0,0.0,0.0,0.0,0.0,0.0,0.0,0.0,0.0,0.0,0.0,2.1023,2.0937,2.0493,1.9695,1.8616,1.7513,1.6375,0.0,0.0,0.0,0.0,0.0,0.0,0.0,0.0,0.0,0.0,0.0,0.0,0.0,0.0,0.0,0.0,0.0,0.0,0.0,0.0,0.0,0.0,0.0,0.0,0.0,0.0,0.0,0.0,0.0,0.0,0.0,0.0,0.0,0.0,0.0,0.0,0.0,0.0,0.0,0.0,0.0,0.0,0.0,0.0,0.0,0.0,0.0,0.0,0.0,0.0,0.0,0.0,0.0,0.0,0.0,0.0,0.0,0.0,0.0,0.0,0.0,0.0,0.0,0.0,0.0,0.0,0.0,0.0,0.0,0.0,0.0,0.0,0.0,0.0,0.0,0.0,0.0,0.0,0.0,0.0,0.0,0.0,0.0,0.0,0.0,0.0,0.0,0.0,0.0,0.0,0.0,0.0,0.0,0.0,0.0,0.0,0.0,0.0,0.0,0.0,0.0,0.0,0.0,0.0,0.0,0.0,0.0,0.0,2.5949,2.4474,2.3281,2.2274,2.0682,1.9008,0.0,0.0,0.0,0.0,0.0,0.0,0.0,0.0,0.0,0.0,0.0,0.0,0.0,0.0,0.0,0.0,0.0,0.0,0.0,0.0,0.0,0.0,0.0,0.0,0.0,0.0,0.0,0.0,0.0,0.0,0.0,0.0,0.0,0.0,0.0,0.0,0.0,0.0,0.0,0.0,0.0,0.0,0.0,0.0,0.0,0.0,0.0,0.0,0.0,0.0,0.0,0.0,0.0,0.0,0.0,0.0,0.0,0.0,0.0,0.0,0.0,0.0,0.0,0.0,0.0,0.0,0.0,0.0,0.0,0.0,0.0,0.0,0.0,0.0,0.0,0.0,0.0,0.0,0.0,0.0,0.0,0.0,0.0,0.0,0.0,0.0,0.0,0.0,0.0,0.0,0.0,0.0,0.0,0.0,0.0,0.0,0.0,0.0,0.0,0.0,0.0,0.0,0.0,0.0,0.0,0.0,0.0,0.0,0.0,2.9179,2.9471,2.8272,2.5671,2.3434,2.1499,0.0,0.0,0.0,0.0,0.0,0.0,0.0,0.0,0.0,0.0,0.0,0.0,0.0,0.0,0.0,0.0,0.0,0.0,0.0,0.0,0.0,0.0,0.0,0.0,0.0,0.0,0.0,0.0,0.0,0.0,0.0,0.0,0.0,0.0,0.0,0.0,0.0,0.0,0.0,0.0,0.0,0.0,0.0,0.0,0.0,0.0,0.0,0.0,0.0,0.0,0.0,0.0,0.0,0.0,0.0,0.0,0.0,0.0,0.0,0.0,0.0,0.0,0.0,0.0,0.0,0.0,0.0,0.0,0.0,0.0,0.0,0.0,0.0,0.0,0.0,0.0,0.0,0.0,0.0,0.0,0.0,0.0,0.0,0.0,0.0,0.0,0.0,0.0,0.0,0.0,0.0,0.0,0.0,0.0,0.0,0.0,0.0,0.0,0.0,0.0,0.0,0.0,0.0,0.0,0.0,0.0,0.0,0.0,2.8138,3.1069,3.3224,3.281,2.954,2.6084,2.3174,0.0,0.0,0.0,0.0,0.0,0.0,0.0,0.0,0.0,0.0,0.0,0.0,0.0,0.0,0.0,0.0,0.0,0.0,0.0,0.0,0.0,0.0,0.0,0.0,0.0,0.0,0.0,0.0,0.0,0.0,0.0,0.0,0.0,0.0,0.0,0.0,0.0,0.0,0.0,0.0,0.0,0.0,0.0,0.0,0.0,0.0,0.0,0.0,0.0,0.0,0.0,0.0,0.0,0.0,0.0,0.0,0.0,0.0,0.0,0.0,0.0,0.0,0.0,0.0,0.0,0.0,0.0,0.0,0.0,0.0,0.0,0.0,0.0,0.0,0.0,0.0,0.0,0.0,0.0,0.0,0.0,0.0,0.0,0.0,0.0,0.0,0.0,0.0,0.0,0.0,0.0,0.0,0.0,0.0,0.0,0.0,0.0,0.0,0.0,0.0,0.0,0.0,0.0,0.0,0.0,0.0,0.0,0.0,2.9726,3.229,3.6154,3.6637,3.3404,2.8658,2.4602,0.0,0.0,0.0,0.0,0.0,0.0,0.0,0.0,0.0,0.0,0.0,0.0,0.0,0.0,0.0,0.0,0.0,0.0,0.0,0.0,0.0,0.0,0.0,0.0,0.0,0.0,0.0,0.0,0.0,0.0,0.0,0.0,0.0,0.0,0.0,0.0,0.0,0.0,0.0,0.0,0.0,0.0,0.0,0.0,0.0,0.0,0.0,0.0,0.0,0.0,0.0,0.0,0.0,0.0,0.0,0.0,0.0,0.0,0.0,0.0,0.0,0.0,0.0,0.0,0.0,0.0,0.0,0.0,0.0,0.0,0.0,0.0,0.0,0.0,0.0,0.0,0.0,0.0,0.0,0.0,0.0,0.0,0.0,0.0,0.0,0.0,0.0,0.0,0.0,0.0,0.0,0.0,0.0,0.0,0.0,0.0,0.0,0.0,0.0,0.0,0.0,0.0,0.0,0.0,0.0,0.0,0.0,0.0,3.2518,3.5597,3.8427,3.8606,3.5968,3.118,2.7394,0.0,0.0,0.0,0.0,0.0,0.0,0.0,0.0,0.0,0.0,0.0,0.0,0.0,0.0,0.0,0.0,0.0,0.0,0.0,0.0,0.0,0.0,0.0,0.0,0.0,0.0,0.0,0.0,0.0,0.0,0.0,0.0,0.0,0.0,0.0,0.0,0.0,0.0,0.0,0.0,0.0,0.0,0.0,0.0,0.0,0.0,0.0,0.0,2.1581,0.0,0.0,0.0,0.0,0.0,0.0,0.0,0.0,0.0,0.0,0.0,0.0,0.0,0.0,0.0,0.0,0.0,0.0,0.0,0.0,0.0,0.0,0.0,0.0,0.0,0.0,0.0,0.0,0.0,0.0,0.0,0.0,0.0,0.0,0.0,0.0,0.0,0.0,0.0,0.0,0.0,0.0,0.0,0.0,0.0,0.0,0.0,0.0,0.0,0.0,0.0,0.0,0.0,0.0,0.0,0.0,0.0,0.0,0.0,3.4928,3.7789,4.1021,4.1356,3.8458,3.4785,3.0772,0.0,0.0,0.0,0.0,0.0,0.0,0.0,0.0,0.0,0.0,0.0,0.0,0.0,0.0,0.0,0.0,0.0,0.0,0.0,0.0,0.0,0.0,0.0,0.0,0.0,0.0,0.0,0.0,0.0,0.0,0.0,0.0,0.0,0.0,0.0,0.0,0.0,0.0,0.0,0.0,0.0,0.0,0.0,0.0,0.0,0.0,0.0,0.0,0.0,0.0,0.0,0.0,0.0,0.0,0.0,0.0,0.0,0.0,0.0,0.0,0.0,0.0,0.0,0.0,0.0,0.0,0.0,0.0,0.0,0.0,0.0,0.0,0.0,0.0,0.0,0.0,0.0,0.0,0.0,0.0,0.0,0.0,0.0,0.0,0.0,0.0,0.0,0.0,0.0,0.0,0.0,0.0,0.0,0.0,0.0,0.0,0.0,0.0,0.0,0.0,0.0,0.0,0.0,0.0,0.0,0.0,0.0,3.3431,3.7192,3.976,4.355,4.3997,4.0721,3.8116,3.3792,2.7582,0.0,0.0,0.0,0.0,0.0,0.0,0.0,0.0,0.0,0.0,0.0,0.0,0.0,0.0,0.0,0.0,0.0,0.0,0.0,0.0,0.0,0.0,0.0,0.0,0.0,0.0,0.0,0.0,0.0,0.0,0.0,0.0,0.0,0.0,0.0,0.0,0.0,0.0,2.097,2.2962,0.0,0.0,0.0,0.0,0.0,0.0,0.0,0.0,2.4266,0.0,0.0,0.0,0.0,0.0,0.0,0.0,0.0,0.0,0.0,0.0,0.0,0.0,0.0,0.0,0.0,0.0,0.0,0.0,0.0,0.0,0.0,0.0,0.0,0.0,0.0,0.0,0.0,0.0,0.0,0.0,0.0,0.0,0.0,0.0,0.0,0.0,0.0,0.0,0.0,0.0,0.0,0.0,0.0,0.0,0.0,0.0,0.0,0.0,0.0,0.0,0.0,0.0,0.0,0.0,0.0,3.0395,3.5327,3.9389,4.2541,4.5309,4.5152,4.1808,3.8696,3.4555,2.9382,0.0,0.0,0.0,0.0,0.0,0.0,0.0,0.0,0.0,0.0,0.0,0.0,0.0,0.0,0.0,0.0,0.0,0.0,0.0,0.0,0.0,0.0,0.0,0.0,0.0,0.0,0.0,0.0,0.0,0.0,0.0,0.0,0.0,0.0,0.0,0.0,0.0,0.0,0.0,2.5715,2.6506,0.0,0.0,0.0,0.0,0.0,0.0,0.0,0.0,2.5999,0.0,0.0,0.0,0.0,0.0,0.0,0.0,0.0,0.0,0.0,0.0,0.0,0.0,0.0,0.0,0.0,0.0,0.0,0.0,0.0,0.0,0.0,0.0,0.0,0.0,0.0,0.0,0.0,0.0,0.0,0.0,0.0,0.0,0.0,0.0,0.0,0.0,0.0,0.0,0.0,0.0,0.0,0.0,0.0,0.0,0.0,0.0,0.0,0.0,0.0,0.0,0.0,0.0,0.0,0.0,3.2189,3.764,4.1855,4.4675,4.7161,4.6845,4.3504,3.9789,3.5469,0.0,0.0,0.0,0.0,0.0,0.0,0.0,0.0,0.0,0.0,0.0,0.0,0.0,0.0,0.0,0.0,0.0,0.0,0.0,0.0,0.0,0.0,0.0,0.0,0.0,0.0,0.0,0.0,0.0,0.0,0.0,0.0,0.0,0.0,0.0,0.0,0.0,0.0,0.0,0.0,2.8606,2.9771,2.9373,0.0,0.0,0.0,0.0,0.0,0.0,2.8461,2.8141,0.0,0.0,0.0,0.0,0.0,0.0,0.0,0.0,0.0,0.0,0.0,0.0,0.0,0.0,0.0,0.0,0.0,0.0,0.0,0.0,0.0,0.0,0.0,0.0,0.0,0.0,0.0,0.0,0.0,0.0,0.0,0.0,0.0,0.0,0.0,0.0,0.0,0.0,0.0,0.0,0.0,0.0,0.0,0.0,0.0,0.0,0.0,0.0,0.0,0.0,0.0,0.0,0.0,0.0,0.0,3.379,3.9671,4.3958,4.6377,4.872,4.8289,4.4968,4.081,3.6229,0.0,0.0,0.0,0.0,0.0,0.0,0.0,0.0,0.0,0.0,0.0,0.0,0.0,0.0,0.0,0.0,0.0,0.0,0.0,0.0,0.0,0.0,0.0,0.0,0.0,0.0,0.0,0.0,0.0,0.0,0.0,0.0,0.0,0.0,0.0,0.0,0.0,0.0,0.0,0.0,0.0,3.2705,3.2676,3.1727,0.0,0.0,0.0,0.0,3.0012,3.1148,0.0,0.0,0.0,0.0,0.0,0.0,0.0,0.0,0.0,0.0,0.0,0.0,0.0,0.0,0.0,0.0,0.0,0.0,0.0,0.0,0.0,0.0,0.0,0.0,0.0,0.0,0.0,0.0,0.0,0.0,0.0,0.0,0.0,0.0,0.0,0.0,0.0,0.0,0.0,0.0,0.0,0.0,0.0,0.0,0.0,0.0,0.0,0.0,0.0,0.0,0.0,0.0,0.0,0.0,0.0,0.0,3.4882,4.0788,4.506,4.7525,4.932,4.8638,4.5317,4.116,3.6519,0.0,0.0,0.0,0.0,0.0,0.0,0.0,0.0,0.0,0.0,0.0,0.0,0.0,0.0,0.0,0.0,0.0,0.0,0.0,0.0,0.0,0.0,0.0,0.0,0.0,0.0,0.0,0.0,0.0,0.0,0.0,0.0,0.0,0.0,0.0,0.0,0.0,0.0,0.0,0.0,0.0,3.4327,3.4335,3.4798,3.4617,0.0,0.0,0.0,3.403,3.5248,0.0,0.0,0.0,0.0,0.0,0.0,0.0,0.0,0.0,0.0,0.0,0.0,0.0,0.0,0.0,0.0,0.0,0.0,0.0,0.0,0.0,0.0,0.0,0.0,0.0,0.0,0.0,0.0,0.0,0.0,0.0,0.0,0.0,0.0,0.0,0.0,0.0,0.0,0.0,0.0,0.0,0.0,0.0,0.0,0.0,0.0,0.0,0.0,0.0,0.0,0.0,0.0,0.0,0.0,0.0,2.9789,3.5285,4.1638,4.5889,4.7908,4.9644,4.8915,4.5544,4.2283,3.7969,0.0,0.0,0.0,0.0,0.0,0.0,0.0,0.0,0.0,0.0,0.0,0.0,0.0,0.0,0.0,0.0,0.0,0.0,0.0,0.0,0.0,0.0,0.0,0.0,0.0,0.0,0.0,0.0,0.0,0.0,0.0,0.0,0.0,0.0,0.0,0.0,0.0,0.0,0.0,0.0,0.0,0.0,3.7268,3.7631,0.0,0.0,0.0,3.7731,3.7377,0.0,0.0,0.0,0.0,0.0,0.0,0.0,0.0,0.0,0.0,0.0,0.0,0.0,0.0,0.0,0.0,0.0,0.0,0.0,0.0,0.0,0.0,0.0,0.0,0.0,0.0,0.0,0.0,0.0,0.0,0.0,0.0,0.0,0.0,0.0,0.0,0.0,0.0,0.0,0.0,0.0,0.0,0.0,0.0,0.0,0.0,0.0,0.0,0.0,0.0,0.0,0.0,0.0,0.0,0.0,0.0,0.0,3.5705,4.2218,4.6436,4.8082,4.9591,4.8937,4.6013,4.3239,0.0,0.0,0.0,0.0,0.0,0.0,0.0,0.0,0.0,0.0,0.0,0.0,0.0,0.0,0.0,0.0,0.0,0.0,0.0,0.0,0.0,0.0,0.0,0.0,0.0,0.0,0.0,1.4586,0.0,0.0,0.0,0.0,0.0,0.0,0.0,0.0,0.0,0.0,0.0,0.0,0.0,0.0,3.9088,3.984,4.0311,4.0501,0.0,0.0,4.079,4.06,4.2194,4.2095,0.0,0.0,0.0,0.0,0.0,0.0,0.0,0.0,0.0,0.0,0.0,0.0,0.0,0.0,0.0,0.0,0.0,0.0,0.0,0.0,0.0,0.0,0.0,0.0,0.0,0.0,0.0,0.0,0.0,0.0,0.0,0.0,0.0,0.0,0.0,0.0,0.0,0.0,0.0,0.0,0.0,0.0,0.0,0.0,0.0,0.0,0.0,0.0,0.0,0.0,0.0,0.0,0.0,0.0,0.0,3.6579,4.2534,4.6398,4.8043,4.9009,4.8625,4.6812,4.3543,3.9762,0.0,0.0,0.0,0.0,0.0,0.0,0.0,0.0,0.0,0.0,0.0,0.0,0.0,0.0,0.0,0.0,0.0,0.0,0.0,0.0,0.0,0.0,0.0,0.0,0.0,0.0,0.0,0.0,0.0,0.0,0.0,0.0,0.0,0.0,0.0,0.0,0.0,0.0,0.0,0.0,0.0,4.0655,4.1415,4.28,4.3544,0.0,0.0,4.4657,4.3896,4.4548,4.3534,3.8871,0.0,0.0,0.0,0.0,0.0,0.0,0.0,0.0,0.0,0.0,0.0,0.0,0.0,0.0,0.0,0.0,0.0,0.0,0.0,0.0,0.0,0.0,0.0,0.0,0.0,0.0,0.0,0.0,0.0,0.0,0.0,0.0,0.0,0.0,0.0,0.0,0.0,0.0,0.0,0.0,0.0,0.0,0.0,0.0,0.0,0.0,0.0,0.0,0.0,0.0,0.0,0.0,0.0,3.126,3.6682,4.312,4.6701,4.7389,4.8702,4.8355,4.6129,4.4816,4.1658,0.0,0.0,0.0,0.0,0.0,0.0,0.0,0.0,0.0,0.0,0.0,0.0,0.0,0.0,0.0,0.0,0.0,0.0,0.0,0.0,0.0,0.0,0.0,0.0,0.0,0.0,0.0,0.0,1.6494,1.6892,1.74,0.0,0.0,0.0,0.0,0.0,0.0,0.0,0.0,0.0,0.0,4.3751,4.4575,4.6468,0.0,0.0,4.7855,4.7818,4.654,4.6178,4.4584,4.0302,3.6146,0.0,0.0,0.0,0.0,0.0,0.0,0.0,0.0,0.0,0.0,0.0,0.0,0.0,0.0,0.0,0.0,0.0,0.0,0.0,0.0,0.0,0.0,0.0,0.0,0.0,0.0,0.0,0.0,0.0,0.0,0.0,0.0,0.0,0.0,0.0,0.0,0.0,0.0,0.0,0.0,0.0,0.0,0.0,0.0,0.0,0.0,0.0,0.0,0.0,0.0,0.0,0.0,3.2125,3.7427,4.3927,4.7389,4.7658,4.9048,4.8668,4.6436,4.5864,4.3051,0.0,0.0,0.0,0.0,0.0,0.0,0.0,0.0,0.0,0.0,0.0,0.0,0.0,0.0,0.0,0.0,0.0,0.0,0.0,0.0,0.0,0.0,0.0,0.0,0.0,0.0,0.0,0.0,1.7762,1.7904,1.8222,0.0,0.0,0.0,0.0,0.0,0.0,0.0,0.0,0.0,0.0,4.5065,4.6323,4.876,5.0354,5.0137,5.0499,5.0101,4.8015,4.682,4.4947,4.1415,0.0,0.0,0.0,0.0,0.0,0.0,0.0,0.0,0.0,0.0,0.0,0.0,0.0,0.0,0.0,0.0,0.0,0.0,0.0,0.0,0.0,0.0,0.0,0.0,0.0,0.0,0.0,0.0,0.0,0.0,1.9972,0.0,0.0,0.0,0.0,0.0,0.0,0.0,0.0,0.0,0.0,0.0,0.0,0.0,0.0,0.0,0.0,0.0,0.0,0.0,0.0,0.0,0.0,0.0,3.9207,4.5086,4.8509,4.9279,5.0207,4.9817,4.8043,4.6475,4.3594,3.9281,0.0,0.0,0.0,0.0,0.0,0.0,0.0,0.0,0.0,0.0,0.0,0.0,0.0,0.0,0.0,0.0,0.0,0.0,0.0,0.0,0.0,0.0,0.0,0.0,0.0,0.0,2.0069,2.0205,1.9888,0.0,0.0,0.0,0.0,0.0,0.0,0.0,0.0,0.0,0.0,3.9912,4.3833,4.6214,4.9257,5.1042,5.0293,5.1441,5.1321,4.8196,4.6359,4.4476,0.0,0.0,0.0,0.0,0.0,0.0,0.0,0.0,0.0,0.0,0.0,0.0,0.0,0.0,0.0,0.0,0.0,0.0,0.0,0.0,0.0,0.0,0.0,0.0,0.0,0.0,0.0,2.5744,2.4548,0.0,0.0,0.0,0.0,0.0,0.0,0.0,0.0,0.0,0.0,0.0,3.7626,3.9008,0.0,0.0,0.0,0.0,0.0,0.0,0.0,0.0,0.0,0.0,0.0,0.0,3.4699,4.0089,4.6513,4.9702,4.9437,5.0779,5.0428,4.8163,4.7548,4.447,3.8627,0.0,0.0,0.0,0.0,0.0,0.0,0.0,0.0,0.0,0.0,0.0,0.0,0.0,0.0,0.0,0.0,0.0,0.0,0.0,0.0,0.0,0.0,0.0,0.0,0.0,2.0585,0.0,0.0,0.0,0.0,0.0,0.0,0.0,0.0,0.0,0.0,0.0,3.5467,3.7272,4.1596,4.5253,4.7104,5.0532,5.2589,0.0,0.0,0.0,0.0,0.0,0.0,0.0,0.0,0.0,0.0,0.0,0.0,0.0,0.0,4.271,3.9514,3.8333,3.7519,3.6466,0.0,0.0,0.0,0.0,0.0,0.0,0.0,0.0,0.0,0.0,0.0,0.0,0.0,0.0,0.0,0.0,2.7348,0.0,0.0,0.0,0.0,0.0,0.0,0.0,0.0,4.1777,4.3743,4.4132,4.5817,4.6158,0.0,4.5889,4.2696,0.0,0.0,0.0,0.0,0.0,0.0,0.0,0.0,3.6427,4.182,4.7937,5.0971,5.0779,5.2087,5.1587,4.9086,4.7548,4.4581,3.9931,3.5699,3.1994,0.0,0.0,0.0,0.0,0.0,0.0,0.0,0.0,0.0,0.0,0.0,0.0,0.0,0.0,0.0,0.0,0.0,0.0,0.0,0.0,0.0,0.0,0.0,2.2357,0.0,0.0,0.0,0.0,0.0,0.0,0.0,0.0,0.0,3.0714,3.4666,3.8177,3.9475,4.2969,4.6101,4.8001,0.0,0.0,0.0,0.0,0.0,0.0,0.0,4.6017,4.556,4.5969,4.6596,4.7445,4.8463,4.9334,4.9832,0.0,0.0,4.6659,4.5108,4.4142,4.3169,4.328,4.3505,4.3543,4.5214,4.7198,0.0,0.0,0.0,0.0,0.0,0.0,0.0,0.0,3.9129,3.6989,0.0,3.2782,0.0,0.0,0.0,0.0,0.0,0.0,0.0,0.0,4.7258,5.0062,5.0871,5.2443,5.2779,5.2005,5.189,5.0197,4.6658,4.0273,0.0,0.0,0.0,0.0,0.0,0.0,3.8465,4.4239,4.9351,5.2346,5.3197,5.4049,5.3362,5.0861,4.6783,4.4239,4.3201,3.9196,3.5717,3.3265,3.0564,0.0,0.0,0.0,0.0,0.0,0.0,0.0,0.0,0.0,0.0,0.0,0.0,0.0,0.0,0.0,0.0,0.0,0.0,0.0,0.0,2.4428,0.0,0.0,0.0,0.0,0.0,0.0,0.0,0.0,0.0,0.0,3.4819,3.6924,3.9519,4.1891,0.0,0.0,0.0,0.0,5.4629,5.3916,5.5027,5.4931,5.1887,5.0789,5.0337,5.0529,0.0,0.0,5.4307,5.4475,5.456,5.4512,5.5875,5.6222,5.4433,5.2613,5.1128,4.9948,4.9926,5.0121,5.0145,5.1948,5.4229,5.0329,0.0,0.0,0.0,0.0,4.4717,4.636,4.7808,4.6125,4.3952,4.1398,3.9122,0.0,0.0,0.0,0.0,0.0,0.0,4.3149,4.7615,5.2056,5.4237,5.4514,5.5504,5.519,5.3797,5.4339,5.3203,5.0389,4.7312,4.2085,3.4926,0.0,0.0,0.0,0.0,3.9892,4.5167,5.024,5.3236,5.4087,5.4934,5.4747,5.3439,5.0476,4.8476,4.7591,4.3508,4.0338,3.8385,3.4145,0.0,0.0,0.0,0.0,0.0,0.0,0.0,0.0,0.0,0.0,0.0,0.0,0.0,0.0,0.0,0.0,0.0,0.0,0.0,2.6378,2.7458,2.7622,0.0,0.0,0.0,0.0,0.0,0.0,0.0,0.0,0.0,4.3816,4.4266,4.4848,0.0,0.0,5.0028,5.2393,5.4155,5.5277,5.5628,0.0,0.0,0.0,5.4181,5.4749,5.6055,5.8859,6.1261,6.2339,6.2533,6.2533,6.2459,6.2903,6.3016,6.2281,5.8532,5.5547,5.5054,5.5793,5.6537,5.6781,5.8753,6.0934,5.92,5.2852,5.0448,4.944,4.9552,5.0801,5.2331,5.3864,5.2799,5.0932,4.8418,4.6958,4.4153,4.0386,3.8899,0.0,0.0,0.0,4.852,5.2414,5.6311,5.809,5.8101,5.8838,5.8259,5.6636,5.7016,5.6049,5.3895,5.2549,4.8817,4.2658,0.0,0.0,3.7738,3.9546,4.2859,4.7552,5.1664,5.4126,5.4977,5.5131,5.5016,5.4477,5.2015,5.0438,4.9899,4.6167,4.3611,4.2462,3.7617,3.3338,0.0,0.0,0.0,0.0,0.0,0.0,0.0,0.0,0.0,0.0,0.0,1.6821,1.8053,0.0,0.0,0.0,2.4421,2.7288,2.9082,3.0547,0.0,0.0,0.0,0.0,0.0,0.0,0.0,4.3163,4.6652,4.9581,5.1258,5.2043,5.1927,5.0395,5.2163,5.4226,5.5959,0.0,5.7971,5.8823,5.8896,5.8665,5.8275,5.8495,5.9395,6.1202,6.3382,6.517,6.5944,6.6075,6.6112,6.6112,6.6112,6.6112,6.6075,6.3155,6.0609,6.0077,6.0905,6.1911,6.25,6.4469,6.6397,6.5775,6.3825,5.82,5.5671,5.5496,5.6231,5.7448,5.8915,5.8842,5.7428,5.5203,5.5194,5.2119,4.6745,4.4377,0.0,0.0,5.0711,5.3565,5.6734,6.0008,6.1465,6.138,6.1983,6.1375,5.96,5.9447,5.8501,5.6846,5.5917,5.4367,5.1933,4.4205,4.1358,4.3431,4.4239,4.6667,5.0745,5.3203,5.4895,5.567,5.4977,5.4587,5.4593,5.2207,5.0899,5.0822,4.7668,4.5885,4.5656,4.0998,3.6757,3.3384,0.0,0.0,0.0,0.0,0.0,0.0,0.0,0.0,0.0,0.0,0.0,0.0,0.0,0.0,0.0,2.7813,0.0,3.1614,3.3845,0.0,0.0,0.0,3.7602,4.0043,4.4575,4.8152,4.9821,0.0,0.0,0.0,0.0,5.9618,5.6325,5.7587,5.9068,5.9816,6.097,6.2064,6.3084,6.317,6.3184,6.3199,6.3358,6.4045,6.5688,6.6442,6.687,6.7074,6.7069,6.6946,6.7117,6.6897,6.6983,6.6897,6.7031,6.6657,6.5133,6.5459,6.6256,6.7174,6.8669,7.0233,6.8238,6.7698,6.5653,6.3249,6.0843,6.1034,6.1686,6.2529,6.1912,6.0938,5.9734,5.9127,5.7384,5.4825,5.3634,5.3884,5.5321,5.7207,5.8907,6.0419,6.2455,6.3031,6.2342,6.2457,6.1291,5.8983,5.819,5.7231,5.6117,5.4608,5.3875,5.3686,5.0529,4.8235,4.6971,4.7081,4.8659,5.1582,5.351,5.49,5.567,5.5516,5.5434,5.5395,5.3587,5.2587,5.2587,4.9976,4.8509,4.8385,4.4226,4.03,3.6909,3.2324,0.0,0.0,0.0,0.0,0.0,0.0,0.0,0.0,0.0,2.2936,2.5303,0.0,2.8439,0.0,3.2613,3.5519,3.7647,3.8936,0.0,0.0,4.1656,4.3074,4.6113,4.966,5.2507,5.418,5.6731,5.9038,6.0806,6.2095,6.3205,6.3972,6.4097,6.4603,6.5755,6.5515,6.5865,6.7252,6.7121,6.6939,6.7107,6.7833,6.8381,6.9255,6.9965,7.0584,7.0904,7.0955,7.0955,7.0955,7.0982,7.0992,7.0859,7.0995,7.0891,7.0447,6.9576,6.8857,6.9257,7.0659,7.1948,7.0329,7.0292,6.9477,6.8009,6.6164,6.4947,6.4687,6.5073,6.4998,6.4684,6.4262,6.3395,6.2362,6.116,5.9937,5.9437,5.9591,6.1297,6.2345,6.2889,6.4543,6.4821,6.396,6.3857,6.2419,5.9894,5.8568,5.7442,5.6489,5.4748,5.4337,5.5084,5.4085,5.2895,5.151,5.0741,5.1236,5.3044,5.4357,5.5241,5.567,5.5708,5.5708,5.567,5.4087,5.3005,5.262,5.0159,4.9163,4.9817,4.5201,4.1658,3.97,3.4888,3.0328,0.0,0.0,0.0,0.0,0.0,0.0,0.0,0.0,0.0,0.0,0.0,3.4211,0.0,3.8404,0.0,4.3227,4.4908,4.6197,4.7111,4.8532,5.0133,5.1871,5.4852,5.7303,5.8626,6.0951,6.2904,6.401,6.5923,6.7452,6.8309,6.8638,6.8829,6.8864,6.837,6.8577,7.0338,6.9768,6.9003,6.9039,6.9745,7.0412,7.0694,7.1467,7.2137,7.2373,7.2403,7.2403,7.2403,7.2403,7.2403,7.2403,7.2403,7.2403,7.2317,7.1899,7.15,7.154,7.2279,7.2999,7.1802,7.1841,7.1179,7.0868,7.067,6.832,6.7155,6.7025,6.7764,6.8073,6.8043,6.7365,6.6578,6.5655,6.4061,6.2812,6.1992,6.3319,6.4021,6.4215,6.5765,6.6059,6.5333,6.5359,6.3935,6.142,5.9607,5.8252,5.7277,5.5636,5.5238,5.6054,5.6077,5.6064,5.5987,5.4639,5.4195,5.4818,5.5588,5.6049,5.6016,5.5939,5.5824,5.5631,5.3972,5.262,5.1731,4.9389,4.8856,5.0245,4.524,4.2235,4.2043,3.7511,3.3372,0.0,2.9941,0.0,0.0,0.0,0.0,0.0,0.0,0.0,0.0,3.7842,4.0239,4.3477,4.4503,4.5955,4.8367,5.0812,5.2302,5.2493,5.5212,5.7075,5.7128,5.9633,6.1662,6.2505,6.4693,6.6251,6.6569,6.945,7.0972,7.0402,7.1086,7.1456,7.0837,7.0319,7.0721,7.2479,7.1568,7.0621,7.0111,7.0684,7.1339,7.1311,7.2156,7.267,7.2679,7.2745,7.2764,7.2802,7.2868,7.282,7.2706,7.2744,7.2782,7.2858,7.3255,7.3548,7.3482,7.3596,7.4013,7.1326,7.1951,7.1795,7.1756,7.1717,7.1207,7.0178,6.8893,6.9048,6.9133,6.9106,6.8964,6.8076,6.6598,6.5585,6.4258,6.2734,6.2342,6.2575,6.3278,6.4281,6.4657,6.4488,6.5156,6.4109,6.1547,5.9767,5.8437,5.7519,5.6437,5.6287,5.7144,5.7757,5.8065,0.0,0.0,0.0,0.0,5.7396,5.7819,5.778,5.7093,5.6401,5.567,5.339,0.0,5.0899,4.9086,4.8586,4.9471,4.659,0.0,0.0,0.0,0.0,0.0,0.0,0.0,0.0,0.0,0.0,0.0,4.4413,4.4656,4.2545,4.445,4.6713,4.8672,4.9666,5.0926,5.2728,5.4562,5.5938,5.6702,5.8504,5.9922,6.0515,6.2208,6.3438,6.3598,6.5242,6.6654,6.7469,6.8834,7.0149,7.1184,7.1459,7.2006,7.298,7.2531,7.2684,7.3736,7.3292,7.2633,7.1462,7.2418,7.2973,7.2839,7.3735,7.4277,7.3764,7.4086,7.4456,7.4418,7.4462,7.4402,7.4402,7.444,7.4326,7.444,7.4505,7.443,7.3785,7.4164,7.4695,7.1992,0.0,7.1992,7.1992,0.0,7.1992,7.1522,7.0693,7.0693,7.0695,7.0659,7.07,6.9529,6.746,6.6172,6.4414,6.2305,6.1054,6.0898,6.1757,6.3079,6.3893,6.4281,6.5593,6.48,6.2258,6.0528,5.8981,5.7691,5.6734,5.6669,5.7502,5.8249,5.8638,5.8676,5.9055,5.8749,5.7685,5.8072,5.8275,5.8242,5.744,5.6786,5.6285,0.0,0.0,0.0,0.0,0.0,0.0,0.0,0.0,0.0,0.0,0.0,3.9315,3.9961,4.041,4.0496,4.3174,4.5702,4.7808,5.1031,5.1852,4.918,5.0162,5.1614,5.3263,5.4556,5.5817,5.7084,5.8734,5.9873,6.0363,6.1523,6.2426,6.2886,6.3902,6.4641,6.484,6.648,6.7831,6.7872,7.0203,7.1663,7.227,7.299,7.3662,7.4351,7.3795,7.337,7.3528,7.345,7.2958,7.2066,7.2686,7.3466,7.3108,7.4168,7.4723,7.4029,7.4553,7.5075,7.5026,7.4967,7.4917,7.4895,7.4884,7.4884,7.4884,7.4884,7.4771,7.4316,7.4581,7.4884,7.2773,7.1992,7.1992,7.1992,7.1992,7.1992,7.1992,7.1992,0.0,0.0,0.0,7.1992,7.0586,6.8125,6.6367,6.418,6.164,5.9805,5.9492,6.0469,6.203,6.3317,6.4372,6.6086,6.5693,6.3467,6.1859,6.0285,5.8702,5.7718,5.7589,5.8289,5.8895,5.9218,5.9215,5.9834,5.9744,5.8945,5.8821,5.8737,5.8742,5.7901,5.7286,5.7016,5.4708,5.2967,5.1923,5.0428,5.001,5.0822,4.8779,4.7928,4.8659,4.6778,4.5299,4.4696,4.5541,4.6373,4.7069,4.8639,5.0596,5.2976,5.5786,5.6606,5.4827,5.4829,5.5632,5.7167,5.8651,5.9873,6.0759,6.2204,6.3121,6.3159,6.3885,6.4389,6.4428,6.4955,6.5406,6.5796,6.7393,6.8623,6.8356,7.1259,7.3628,7.3323,7.4269,7.5509,7.536,7.4428,7.3469,7.2935,7.292,7.2664,7.2236,7.2711,7.3098,7.3219,7.4355,7.4929,7.437,7.4628,7.5161,7.537,7.5294,7.5358,7.5393,7.5534,7.541,7.541,7.5352,7.5342,7.5332,7.536,7.5311,7.2811,7.1992,7.1992,7.1992,7.1992,7.1992,7.1992,7.1992,7.1992,7.1992,7.1992,7.1992,7.0586,6.8086,6.6367,6.418,6.1601,5.918,5.8906,0.0,6.1405,6.2731,6.4372,6.6086,6.6318,6.5224,6.4202,6.3255,6.2265,6.1298,6.0915,6.101,6.1098,6.1081,6.1113,6.1152,6.1048,6.0799,6.0621,6.0503,6.0441,5.9588,5.844,5.7022,5.5285,5.3549,5.1962,5.1048,5.0894,5.1659,5.0741,5.0548,5.1274,5.1,5.0769,5.0726,5.2154,5.3121,5.3226,5.4808,5.65,5.8258,5.9474,5.9044,5.6632,5.762,5.8803,5.9804,6.0714,6.1631,6.2464,6.3465,6.4084,6.4122,6.4771,6.5222,6.5299,6.5452,6.5796,6.6437,6.6789,6.7782,6.9005,7.0916,7.2567,7.314,7.4478,7.5509,7.5386,7.4702,7.3827,7.3165,7.2953,7.2932,7.2826,7.3476,7.384,7.4023,7.4787,7.5169,7.4293,7.4766,7.5483,7.6227,7.6189,7.6408,7.6987,7.7301,7.7129,7.7082,7.6984,7.6972,7.6923,7.6928,7.6524,7.4216,7.3436,7.3398,7.3398,7.3359,7.289,7.2695,7.2656,7.2187,7.1992,7.1992,7.1992,7.0859,6.8828,6.707,6.5117,6.2969,6.043,5.9922,6.1133,6.1992,6.3085,6.4374,6.6092,6.6443,6.5623,6.519,6.4561,6.3698,6.2782,6.2337,6.2329,6.1882,6.1598,6.1593,6.1522,6.1382,6.1213,6.1045,6.0894,6.0787,5.9935,5.9127,5.8363,5.6747,5.5511,5.4703,5.3862,5.3587,5.3972,5.3587,5.3592,5.3933,5.3967,5.3972,5.401,5.5131,5.5862,5.5862,5.744,5.8896,6.0089,6.0958,6.1127,6.0297,6.0844,6.1388,6.1809,6.2538,6.3159,6.3618,6.4764,6.5566,6.5566,6.6254,6.6751,6.6827,6.7209,6.7439,6.7515,6.8585,6.9502,6.9807,7.1718,7.3132,7.3705,7.4775,7.5471,7.5471,7.4775,7.3896,7.3132,7.2635,7.2567,7.2949,7.3284,7.3705,7.4116,7.4927,7.5089,7.4422,7.4846,7.565,7.6397,7.657,7.6837,7.7598,7.7693,7.7693,7.7683,7.7663,7.7604,7.7534,7.7442,7.7103,7.5386,7.4606,7.4569,7.457,7.4492,7.3672,7.332,7.3203,7.2383,7.1992,7.1992,7.1992,7.1172,6.9687,6.8164,6.664,6.5,6.2656,6.2031,6.289,6.3359,6.4062,6.4922,6.6289,6.6523,6.5937,6.5897,6.5545,6.4841,6.4011,6.3494,6.3218,6.2427,6.1992,6.1991,6.1656,6.1406,6.119,6.1079,6.0951,6.0793,6.0127,5.9704,5.9396,5.8242,5.7478,5.7286,5.6632,5.628,5.628,5.628,5.6285,5.6319,5.6478,5.6632,5.6857,5.7671,5.8248,5.8478,5.9588,6.0627,6.132,6.2117,6.2861,6.3431,6.3787,6.3699,6.3465,6.3975,6.4428,6.4619,6.5757,6.6713,6.6743,6.74,6.779,6.7943,6.8516,6.8776,6.847,6.9968,7.0801,7.0946,7.2435,7.3934,7.4469,7.508,7.5471,7.5433,7.4736,7.3972,7.3361,7.2567,7.2605,7.3293,7.3637,7.4125,7.4851,7.5462,7.5539,7.5119,7.531,7.5903,7.6671,7.6958,7.7465,7.8123,7.8418,7.8466,7.8542,7.8561,7.8378,7.8316,7.8235,7.7849,7.5338,7.4645,7.4645,7.4569,7.457,7.3711,7.3359,7.3242,7.2383,7.1992,7.2031,7.1992,7.1484,7.0547,6.9648,6.8711,6.7734,6.5937,6.5586,6.6211,6.5664,6.582,6.6562,6.6836,6.6875,6.6758,6.6717,6.6638,6.6482,6.569,6.4936,6.4145,6.3283,6.2892,6.2808,6.2022,6.1463,6.119,6.1138,6.0988,6.0804,6.0704,6.0325,5.9511,5.9358,5.8934,5.828,5.8088,5.8044,5.8044,5.805,5.8088,5.8121,5.8736,5.9473,6.0248,6.1095,6.1941,6.2589,6.2852,6.2891,6.3121,6.3769,6.4346,6.4532,6.5781,6.5911,6.4764,6.4892,6.5352,6.5345,6.6216,6.6873,6.6988,6.7599,6.7905,6.8058,6.7981,6.8287,6.9043,6.954,6.9655,7.0487,7.2024,7.3705,7.5089,7.5356,7.5509,7.5433,7.4851,7.4346,7.401,7.3399,7.3599,7.463,7.5242,7.5577,7.6914,7.6914,7.6418,7.6112,7.5853,7.5921,7.704,7.7651,7.8101,7.9399,8.022,8.0048,7.982,7.9848,8.001,7.9949,7.9784,7.9239,7.592,7.6086,7.6129,7.6132,7.6015,7.5195,7.4844,7.4765,7.3906,7.3242,7.2812,7.2773,7.2305,7.1445,7.1133,7.0781,7.0351,6.918,6.8789,6.9023,6.7773,6.7344,6.7578,6.7109,6.6914,6.6914,6.6914,6.6913,6.6757,6.6011,6.5146,6.4357,6.3926,6.377,6.369,6.2828,6.2233,6.1969,6.1395,6.0998,6.0821,6.0781,6.0633,6.0319,6.0281,6.0127,5.9819,5.9781,5.9781,5.9781,5.9781,5.9781,5.9781,6.0089,6.0666,6.1518,6.2364,6.2935,6.3275,6.3314,6.3506,6.4006,6.4397,6.4782,6.5359,6.6371,6.665,6.6173,6.66,6.7055,6.7086,6.7776,6.8235,6.835,6.8922,6.9349,6.9387,6.9816,7.0159,7.0037,7.0342,7.0533,7.0678,7.1909,7.3637,7.5089,7.5509,7.5509,7.5471,7.5165,7.5004,7.4936,7.4669,7.4507,7.4813,7.4736,7.5539,7.657,7.6532,7.6083,7.6532,7.6044,7.593,7.7067,7.7258,7.7908,7.936,7.9789,7.9904,8.0191,8.0431,8.0382,8.0343,8.0245,7.9824,7.6501,7.706,7.7184,7.7226,7.7109,7.625,7.5898,7.5781,7.4961,7.4258,7.3672,7.3398,7.2969,7.2383,7.2109,7.1992,7.1914,7.1328,7.1055,7.0898,6.9531,6.8867,6.8789,6.8008,6.7617,6.7539,6.7383,6.7148,6.6875,6.6327,6.5621,6.5069,6.4756,6.4678,6.4558,6.3742,6.3118,6.2863,6.216,6.1636,6.1279,6.1408,6.1396,6.1172,6.1133,6.1243,6.1473,6.1473,6.1473,6.1473,6.1473,6.1473,6.1473,6.1473,6.1858,6.2749,6.3551,6.4006,6.4006,6.4199,6.4628,6.5205,6.5474,6.5897,6.6583,6.7313,6.7709,6.7779,6.8468,6.8817,6.8292,6.8877,6.9284,6.9352,6.997,7.0411,7.0411,7.0992,7.0992,7.0563,7.0763,7.1374,7.1336,7.2291,7.3637,7.5127,7.5509,7.5509,7.5509,7.5471,7.5471,7.5509,7.5471,7.5356,7.4927,7.508,7.5653,7.6494,7.6809,7.6265,7.6723,7.6197,7.5777,7.6723,7.6647,7.7182,7.8605,7.9025,7.956,8.0191,8.045,8.0402,8.0402,8.0334,8.0334,7.7079,7.71,7.7186,7.7226,7.7148,7.6328,7.5937,7.5937,7.5078,7.4609,7.4453,7.375,7.332,7.3203,7.25,7.2031,7.1992,7.1914,7.1875,7.1758,7.0898,7.0547,7.0547,6.9765,6.9297,6.9023,6.832,6.7656,6.6951,6.6833,6.6831,6.6708,6.5929,6.5538,6.5418,6.4611,6.4033,6.3828,6.3561,6.3081,6.2326,6.2811,6.2749,6.2172,6.2056,6.2364,6.3006,6.316,6.316,6.316,6.3083,6.3121,6.3121,6.3121,6.3506,6.4359,6.5243,6.5711,6.5782,6.6282,6.6782,6.6974,6.7475,6.816,6.8045,6.8808,6.9308,6.9507,7.007,6.9984,6.8719,6.9084,6.9414,6.9475,7.0009,7.0419,7.0449,7.0716,7.0487,7.0525,7.0754,7.1412,7.2635,7.2941,7.3819,7.5013,7.5509,7.5509,7.5509,7.5509,7.5509,7.5509,7.5548,7.57,7.6341,7.5997,7.6914,7.7611,7.7029,7.6761,7.6914,7.6876,7.6532,7.6303,7.6418,7.6914,7.787,7.871,7.9484,8.0086,8.0391,8.0478,8.0468,8.0487,8.0478,7.6621,7.7143,7.7187,7.7226,7.7187,7.6836,7.6719,7.668,7.6406,7.5937,7.543,7.5078,7.4648,7.4101,7.3789,7.3047,7.207,7.1992,7.1992,7.1875,7.1094,7.0703,7.0625,6.9883,6.9492,6.9336,6.8594,6.7773,6.6992,6.6914,6.6913,6.6874,6.66,6.6444,6.6286,6.549,6.4927,6.4722,6.4168,6.3532,6.3037,6.3238,6.3439,6.3672,6.3166,6.3012,6.3275,6.3314,6.3314,6.3314,6.3314,6.3314,6.3352,6.3852,6.4237,6.4628,6.5397,6.5904,6.5981,6.6635,6.7096,6.7173,6.7898,6.843,6.8545,6.9161,6.9706,6.986,7.0437,7.0448,7.0207,7.01,7.021,7.0272,7.0813,7.1183,7.1344,7.1718,7.2062,7.2062,7.2062,7.2559,7.3323,7.3781,7.424,7.5242,7.5509,7.5509,7.5509,7.5509,7.5509,7.5509,7.5509,7.5586,7.5815,7.5891,7.6235,7.6723,7.6723,7.6532,7.6532,7.6274,7.5891,7.5739,7.5921,7.6418,7.7267,7.8404,7.9216,7.9675,8.0018,8.0506,8.0506,8.0506,8.0506,7.663,7.7145,7.7226,7.7226,7.7226,7.7226,7.7226,7.7226,7.7226,7.6875,7.6367,7.6015,7.5586,7.5039,7.4726,7.4023,7.289,7.2578,7.2265,7.1953,7.1406,7.1133,7.1055,7.0586,7.0312,7.0195,6.9414,6.8594,6.7812,6.7734,6.7578,6.7344,6.7305,6.7148,6.6836,6.624,6.5843,6.5555,6.5058,6.4484,6.407,6.4183,6.4392,6.4586,6.4324,6.43,6.4512,6.4545,6.4506,6.4506,6.4275,6.4243,6.4545,6.5352,6.5814,6.5891,6.6397,6.6705,6.6821,6.7481,6.7936,6.7975,6.8744,6.9199,6.9237,6.9776,7.0052,7.0244,7.0514,7.0898,7.0948,7.1017,7.1129,7.1122,7.1442,7.1849,7.2108,7.2635,7.2902,7.2902,7.2864,7.3323,7.4002,7.4155,7.4584,7.5395,7.5509,7.5509,7.5509,7.5509,7.5509,7.5509,7.5509,7.5509,7.5624,7.5662,7.5968,7.6456,7.6312,7.615,7.6188,7.5815,7.5471,7.528,7.5433,7.593,7.677,7.7955,7.8681,7.9178,7.9904,8.0506,8.0506,8.0506,8.0506,7.7184,7.7224,7.7226,7.7226,7.7226,7.7226,7.7226,7.7226,7.7226,7.7148,7.6953,7.6328,7.6015,7.5781,7.5234,7.4687,7.4375,7.375,7.293,7.2187,7.1953,7.1875,7.1875,7.168,7.1523,7.1484,7.0976,7.0195,6.9297,6.914,6.8828,6.832,6.8125,6.7734,6.6953,6.6788,6.6721,6.6547,6.6343,6.5941,6.5317,6.5674,6.5608,6.5071,6.5504,6.6203,6.691,6.6865,6.6635,6.6673,6.6128,6.6244,6.6744,6.759,6.8237,6.8084,6.8276,6.8314,6.8353,6.9013,6.9398,6.9513,7.0321,7.0629,7.0591,7.0706,7.0783,7.0783,7.0821,7.0937,7.1077,7.1559,7.1909,7.1896,7.1925,7.2371,7.2851,7.3064,7.3055,7.3178,7.3293,7.3437,7.401,7.4354,7.4698,7.528,7.5509,7.5509,7.5509,7.5509,7.5509,7.5509,7.5509,7.5509,7.5509,7.5548,7.6006,7.6312,7.593,7.57,7.6074,7.5921,7.5548,7.5318,7.5318,7.5777,7.6274,7.742,7.829,7.891,7.9704,8.0391,8.0506,8.0506,8.0506,7.7225,7.7226,7.7226,7.7226,7.7226,7.7226,7.7226,7.7226,7.7226,7.7226,7.7148,7.6914,7.6797,7.6758,7.6484,7.6055,7.5508,7.5156,7.4297,7.3008,7.2305,7.2031,7.1914,7.1406,7.082,7.043,7.0586,7.0273,6.9609,6.9492,6.9297,6.9062,6.8515,6.8086,6.7773,6.7223,6.6818,6.6706,6.6672,6.6408,6.6098,6.6244,6.6131,6.5857,6.6483,6.7251,6.7911,6.6898,6.6327,6.632,6.6058,6.6288,6.7096,6.7936,6.8353,6.8391,6.8391,6.8391,6.8507,6.9199,6.9744,6.986,7.0437,7.086,7.0898,7.0937,7.0975,7.0937,7.0937,7.1091,7.1699,7.1951,7.2169,7.2063,7.2962,7.3611,7.397,7.4443,7.4729,7.4715,7.4707,7.486,7.5013,7.5051,7.5127,7.5395,7.5509,7.5509,7.5509,7.5509,7.5509,7.5509,7.5509,7.5586,7.57,7.5815,7.6121,7.6197,7.5815,7.5548,7.5853,7.6188,7.5777,7.5509,7.5509,7.5624,7.6121,7.6838,7.7793,7.8634,7.9398,7.9933,8.0353,8.0506,8.0506,7.6718,7.668,7.6367,7.6211,7.6289,7.6562,7.6719,7.6758,7.707,7.7226,7.7226,7.7187,7.7226,7.7226,7.7226,7.6914,7.6367,7.6055,7.5312,7.4258,7.3359,7.2812,7.2422,7.1601,7.0976,7.0586,7.0937,7.0898,7.039,7.039,7.0273,6.9883,6.9375,6.8945,6.8672,6.8124,6.7648,6.7319,6.7227,6.7039,6.6661,6.651,6.6401,6.6321,6.6636,6.7238,6.7795,6.6878,6.6635,6.7167,6.7321,6.7596,6.809,6.8898,6.9314,6.9314,6.9353,6.936,6.9398,6.9898,7.0167,7.0283,7.0898,7.136,7.1437,7.1591,7.186,7.186,7.1937,7.2091,7.2584,7.2979,7.3065,7.3097,7.3837,7.4611,7.4878,7.5288,7.5489,7.5421,7.5433,7.5509,7.5509,7.5509,7.5509,7.5509,7.5509,7.5509,7.5509,7.5509,7.5509,7.5624,7.5891,7.5968,7.6006,7.6159,7.6312,7.6121,7.5815,7.5586,7.5662,7.6265,7.6265,7.5968,7.5891,7.5548,7.5891,7.6647,7.7487,7.829,7.8978,7.9522,7.9942,8.0391,8.0468,7.5976,7.5859,7.5078,7.4883,7.4961,7.5547,7.582,7.5937,7.6601,7.6953,7.7031,7.6992,7.7109,7.7187,7.7226,7.7148,7.707,7.6406,7.6055,7.5703,7.5039,7.4219,7.293,7.2305,7.1875,7.164,7.1797,7.1875,7.168,7.1719,7.1601,7.082,7.0547,7.0273,6.9609,6.9452,6.8863,6.8272,6.8188,6.7784,6.7053,6.6919,6.6822,6.6679,6.6712,6.6979,6.7588,6.7661,6.8129,6.9321,6.9283,6.936,6.9744,7.0475,7.0706,7.0667,7.0821,7.0744,7.0821,7.0706,7.086,7.1014,7.1629,7.2252,7.2322,7.2822,7.3161,7.3161,7.3238,7.3392,7.3623,7.4077,7.4462,7.4724,7.4743,7.501,7.5471,7.5578,7.5574,7.5544,7.5509,7.5509,7.5509,7.5509,7.5509,7.5509,7.5509,7.5509,7.5509,7.5509,7.5509,7.5815,7.6235,7.6532,7.6647,7.6494,7.6609,7.6303,7.5959,7.5739,7.5739,7.6341,7.6685,7.6426,7.6083,7.5739,7.5815,7.6609,7.7144,7.7678,7.8328,7.8987,7.9675,8.0238,8.0468,7.6875,7.6758,7.5937,7.5547,7.5469,7.5156,7.4961,7.4961,7.5195,7.5742,7.6133,7.625,7.664,7.7148,7.7187,7.7226,7.7109,7.6953,7.6836,7.6836,7.668,7.4844,7.2969,7.2773,7.2265,7.1367,7.1758,7.1992,7.1992,7.1992,7.1875,7.164,7.1015,7.0664,7.0351,6.9805,6.9336,6.9179,6.9139,6.9021,6.8704,6.8601,6.8535,6.8316,6.8222,6.8467,6.9083,6.9624,6.936,6.8776,6.9398,6.9706,6.9821,7.0475,7.0898,7.0898,7.0937,7.0937,7.0937,7.0975,7.1206,7.179,7.2168,7.2482,7.3129,7.3353,7.3507,7.3507,7.3507,7.3776,7.4276,7.4623,7.5014,7.5546,7.5694,7.5657,7.5616,7.5652,7.5641,7.5514,7.5518,7.5509,7.5509,7.5509,7.5509,7.5509,7.5509,7.5509,7.5509,7.5509,7.5548,7.6188,7.6647,7.7105,7.7296,7.7067,7.6838,7.657,7.6227,7.593,7.6121,7.6532,7.6685,7.6609,7.6159,7.5777,7.6121,7.6685,7.6991,7.7296,7.8596,7.9675,8.0018,8.0468,8.0468,7.664,7.6523,7.5312,7.4805,7.4765,7.4258,7.4062,7.414,7.4453,7.4844,7.5351,7.5781,7.6172,7.668,7.7031,7.7187,7.7226,7.7226,7.7187,7.7187,7.7148,7.5625,7.3711,7.3359,7.2578,7.1445,7.1758,7.1953,7.1992,7.1992,7.1992,7.1914,7.1523,7.125,7.1211,7.0781,7.0273,7.0078,7.0,6.9843,6.9452,6.9351,6.9209,6.9044,6.903,6.9217,6.9784,7.0515,7.0398,6.9738,6.9937,7.0206,7.0244,7.0629,7.0898,7.0898,7.1206,7.1437,7.1514,7.1745,7.2206,7.2706,7.2976,7.3476,7.3969,7.4276,7.4546,7.4584,7.4546,7.4784,7.5168,7.5553,7.6169,7.6899,7.7053,7.6686,7.5832,7.5692,7.5649,7.5532,7.5509,7.5509,7.5509,7.5509,7.5509,7.5509,7.5509,7.5509,7.5509,7.5509,7.5662,7.6188,7.6953,7.7449,7.7831,7.7755,7.7258,7.6914,7.6341,7.6044,7.6235,7.6609,7.6647,7.657,7.6197,7.6006,7.6197,7.6465,7.6838,7.7602,7.913,7.9895,8.0057,8.0659,8.0659,7.6211,7.6015,7.4297,7.3515,7.3555,7.3242,7.3164,7.332,7.3867,7.4297,7.457,7.5273,7.5508,7.582,7.6367,7.6875,7.7031,7.6953,7.7109,7.7148,7.7109,7.6172,7.4726,7.4101,7.3359,7.25,7.2226,7.2187,7.2226,7.2148,7.1992,7.1953,7.1953,7.1953,7.1836,7.1836,7.1523,7.0976,7.0858,7.0543,7.0068,6.9872,6.9791,6.9666,6.9464,6.9605,7.0072,7.0561,7.0783,7.086,7.0898,7.0821,7.086,7.0898,7.1014,7.1168,7.1752,7.2129,7.2399,7.293,7.3469,7.3661,7.4238,7.4776,7.4892,7.5399,7.5707,7.5668,7.5976,7.5899,7.6169,7.6784,7.7407,7.7946,7.8292,7.7447,7.637,7.5862,7.5759,7.5532,7.5506,7.5535,7.5527,7.5518,7.5489,7.5509,7.5509,7.5509,7.5509,7.5509,7.5662,7.5968,7.6838,7.7831,7.8175,7.8452,7.784,7.7258,7.6494,7.6112,7.6188,7.6418,7.6532,7.6418,7.5968,7.5739,7.57,7.6083,7.6647,7.7526,7.8834,7.9292,7.9636,8.0621,8.1003,7.8515,7.7812,7.6055,7.4922,7.418,7.289,7.2305,7.2344,7.25,7.3125,7.3515,7.3789,7.4297,7.4883,7.5195,7.5508,7.6133,7.625,7.6523,7.7187,7.7226,7.664,7.5742,7.5351,7.4805,7.3984,7.3281,7.3008,7.289,7.2383,7.1992,7.1992,7.1992,7.1992,7.1992,7.1992,7.1953,7.1719,7.1678,7.1474,7.1218,7.1095,7.0998,7.0825,7.0635,7.0643,7.0734,7.085,7.0898,7.0898,7.0937,7.1014,7.1014,7.1014,7.1321,7.186,7.2129,7.2552,7.3091,7.3469,7.3815,7.4392,7.4661,7.5007,7.5668,7.5861,7.6015,7.6015,7.6015,7.6438,7.7053,7.7215,7.7869,7.8407,7.813,7.7523,7.6932,7.6747,7.6346,7.5852,7.5628,7.5649,7.5583,7.5557,7.554,7.5527,7.5509,7.5509,7.5509,7.5509,7.5662,7.5891,7.68,7.7755,7.8328,7.8643,7.8481,7.8137,7.7449,7.6991,7.7029,7.6647,7.6914,7.6465,7.57,7.5548,7.5509,7.615,7.68,7.7678,7.8528,7.9331,8.0133,8.0888,8.1347,7.9453,7.8906,7.7226,7.625,7.5586,7.3984,7.3008,7.2656,7.2617,7.2617,7.2773,7.3086,7.3594,7.4023,7.4414,7.4922,7.5312,7.5742,7.6367,7.7031,7.7187,7.6953,7.664,7.6367,7.5898,7.4765,7.414,7.375,7.3242,7.2851,7.2422,7.1992,7.2031,7.1992,7.1992,7.2031,7.1992,7.1953,7.198,7.1879,7.1806,7.1729,7.1611,7.1443,7.1225,7.11,7.1087,7.0972,7.1143,7.1405,7.1521,7.1514,7.1629,7.1898,7.236,7.2706,7.3245,7.3514,7.4014,7.4469,7.4892,7.5245,7.5315,7.5553,7.6015,7.6322,7.6592,7.6707,7.7015,7.7522,7.8323,7.8477,7.8861,7.9369,7.8938,7.83,7.777,7.707,7.6363,7.5839,7.5684,7.5636,7.5633,7.5625,7.5557,7.5535,7.5518,7.5518,7.5509,7.5509,7.5624,7.6006,7.6876,7.7678,7.8328,7.8787,7.913,7.9054,7.8978,7.8787,7.8787,7.8137,7.7458,7.677,7.6006,7.5548,7.5624,7.6303,7.7029,7.7793,7.871,7.9742,8.0506,8.1003,8.1385,8.0039,7.9765,7.8086,7.7344,7.6914,7.5312,7.414,7.3555,7.332,7.289,7.2383,7.289,7.3008,7.3242,7.3789,7.418,7.4609,7.5273,7.6015,7.6758,7.6836,7.6953,7.6992,7.6914,7.6484,7.5078,7.4844,7.4414,7.3984,7.3555,7.3242,7.2578,7.2461,7.2539,7.2344,7.2225,7.2144,7.1983,7.2149,7.2131,7.2116,7.2075,7.2116,7.2011,7.1875,7.1762,7.173,7.1633,7.1706,7.2322,7.2514,7.2591,7.2745,7.3053,7.3623,7.3623,7.4199,7.4584,7.4899,7.5438,7.5861,7.5976,7.5976,7.5976,7.613,7.6669,7.7092,7.7445,7.7792,7.86,7.9623,7.9585,8.0046,8.0516,8.0169,7.9323,7.8431,7.6993,7.6087,7.581,7.5772,7.5786,7.5715,7.5674,7.5591,7.5553,7.5574,7.5556,7.5586,7.5586,7.57,7.5853,7.6647,7.784,7.8605,7.9474,7.9742,8.0047,8.02,8.0238,8.0124,7.913,7.8146,7.7191,7.6465,7.6159,7.6159,7.68,7.7487,7.8099,7.8939,8.0009,8.0621,8.1041,8.1423,8.1445,8.0625,7.8984,7.7851,7.6992,7.5351,7.457,7.4258,7.3711,7.3242,7.3047,7.2539,7.2422,7.2383,7.2344,7.2851,7.375,7.4492,7.5273,7.6015,7.6211,7.6484,7.6992,7.7187,7.6914,7.668,7.6094,7.5547,7.5156,7.4765,7.4219,7.414,7.4023,7.3711,7.3203,7.3045,7.2724,7.2391,7.2619,7.2812,7.279,7.3065,7.3302,7.3209,7.3038,7.3009,7.308,7.309,7.3161,7.3353,7.3937,7.4168,7.413,7.3853,7.3969,7.4437,7.4707,7.5084,7.5592,7.5899,7.6015,7.5976,7.6169,7.613,7.6322,7.6899,7.7592,7.783,7.8292,7.8938,7.97,7.9931,8.0246,8.0477,7.9862,7.883,7.8284,7.7231,7.6093,7.5948,7.591,7.601,7.6079,7.6161,7.6287,7.625,7.6199,7.6118,7.6083,7.593,7.5815,7.6006,7.6274,7.7649,7.891,7.9942,8.0659,8.1003,8.1194,8.1194,8.085,7.9827,7.8872,7.8643,7.7908,7.7335,7.7449,7.7555,7.8022,7.8643,7.9484,8.0315,8.0812,8.127,8.1652,8.0703,8.0195,7.9023,7.8281,7.7695,7.6523,7.5664,7.5234,7.4805,7.4375,7.3945,7.3515,7.3086,7.2773,7.2695,7.2969,7.332,7.3672,7.4414,7.5117,7.5703,7.6055,7.6601,7.6914,7.7187,7.707,7.6719,7.6289,7.5898,7.5508,7.5078,7.4609,7.457,7.4375,7.4062,7.3981,7.3653,7.3303,7.3507,7.3626,7.3467,7.3874,7.3916,7.3883,7.3834,7.3728,7.3671,7.3593,7.3742,7.4098,7.4476,7.4899,7.5091,7.5091,7.4899,7.5284,7.5361,7.5476,7.6053,7.6322,7.6707,7.6753,7.6984,7.7284,7.7515,7.8092,7.8631,7.9169,7.9477,7.9977,8.0477,8.0431,8.0708,8.0746,7.99,7.9061,7.8407,7.7361,7.6746,7.6322,7.6577,7.6724,7.6709,7.6838,7.7021,7.6993,7.685,7.6743,7.6644,7.6568,7.6509,7.6988,7.7485,7.8929,8.0199,8.1107,8.2024,8.2359,8.2493,8.2531,8.2254,8.1546,8.1337,8.1241,8.0277,7.8499,7.8013,7.786,7.8519,7.9101,7.9598,8.021,8.0888,8.1461,8.1805,7.9726,7.9648,7.8828,7.8476,7.8359,7.7578,7.6797,7.6211,7.5898,7.543,7.4922,7.4609,7.414,7.3672,7.332,7.3203,7.3086,7.3047,7.3555,7.4297,7.4922,7.5351,7.582,7.6406,7.6836,7.6797,7.707,7.6836,7.6406,7.6211,7.5781,7.5508,7.5195,7.4961,7.4922,7.4883,7.4737,7.4437,7.4505,7.4479,7.449,7.4425,7.4386,7.438,7.4328,7.4383,7.4411,7.4358,7.456,7.4858,7.506,7.5315,7.5861,7.5976,7.5976,7.5976,7.5976,7.5976,7.6169,7.6784,7.7176,7.7176,7.8023,7.8369,7.86,7.9015,8.0008,8.0862,8.1016,8.0939,8.0939,8.1054,8.1054,8.09,8.0323,7.9554,7.8861,7.8092,7.7438,7.7246,7.7438,7.7416,7.7286,7.7539,7.7731,7.7743,7.7601,7.762,7.7522,7.7641,7.7755,7.8341,7.9174,8.0609,8.1747,8.2636,8.3515,8.4251,8.4356,8.4385,8.4136,8.3735,8.3305,8.2396,8.0714,7.907,7.8623,7.8481,7.9207,7.9675,7.9713,8.0057,8.0735,8.1423,8.1958,7.9726,7.9609,7.8828,7.8476,7.832,7.7539,7.7187,7.6914,7.625,7.5859,7.5703,7.5039,7.4648,7.4336,7.3633,7.293,7.25,7.2422,7.289,7.3594,7.3828,7.4219,7.4805,7.5664,7.5976,7.6172,7.6797,7.7109,7.6836,7.6836,7.6875,7.6601,7.6484,7.6445,7.5586,7.5664,7.519,7.4618,7.4986,7.5565,7.5879,7.5912,7.5939,7.596,7.588,7.5799,7.5645,7.5555,7.5666,7.5723,7.5813,7.5861,7.5976,7.5976,7.5976,7.5976,7.5976,7.6015,7.6207,7.7053,7.763,7.7784,7.8284,7.8446,7.8946,7.9477,8.0277,8.0977,8.1093,8.1093,8.1093,8.1093,8.1093,8.0862,8.0439,7.9977,7.9438,7.89,7.8207,7.8169,7.8323,7.8015,7.78,7.8146,7.84,7.8377,7.839,7.8448,7.8505,7.8654,7.879,7.9347,7.9869,8.1219,8.2261,8.3256,8.4031,8.5227,8.5418,8.5426,8.4641,8.3895,8.3481,8.24,8.0853,8.0101,7.995,7.9999,8.021,8.0238,8.0238,8.0353,8.0544,8.128,8.2063,7.8281,7.8242,7.793,7.7773,7.7734,7.7344,7.7226,7.7109,7.6797,7.664,7.6562,7.6289,7.582,7.5234,7.4414,7.3867,7.3398,7.2969,7.293,7.3281,7.3398,7.3555,7.3984,7.4687,7.5156,7.5508,7.5976,7.6367,7.6562,7.6914,7.7031,7.6601,7.6914,7.668,7.6055,7.6367,7.6197,7.5917,7.5952,7.6136,7.6322,7.6403,7.6403,7.6397,7.6368,7.6338,7.6288,7.6212,7.6131,7.6097,7.602,7.5976,7.5976,7.5976,7.5976,7.6053,7.6522,7.6753,7.6907,7.7977,7.8438,7.8861,7.94,8.0015,8.0054,8.0246,8.0592,8.1054,8.1093,8.1093,8.1093,8.1093,8.1093,8.0939,8.0669,8.0285,7.9931,7.9592,7.9131,7.9169,7.9169,7.8938,7.8861,7.9315,7.9638,7.9622,7.9651,7.9725,7.9829,7.9932,8.0038,8.02,8.0714,8.1465,8.2355,8.3244,8.3569,8.4421,8.4793,8.4676,8.4063,8.3459,8.3072,8.2692,8.1654,8.1208,8.1239,8.0964,8.0706,8.0697,8.0773,8.0974,8.1184,8.1478,8.2252,7.7226,7.7226,7.7226,7.7226,7.7226,7.7226,7.7226,7.7226,7.7187,7.7187,7.7226,7.7109,7.668,7.5937,7.5195,7.4765,7.4531,7.4101,7.3828,7.375,7.3789,7.3906,7.418,7.457,7.5039,7.4961,7.6055,7.6406,7.6562,7.6758,7.6797,7.6015,7.6836,7.664,7.6328,7.6556,7.6787,7.6615,7.64,7.6366,7.6403,7.6403,7.6403,7.6403,7.6397,7.638,7.6364,7.6546,7.6551,7.651,7.6758,7.6868,7.6823,7.6861,7.6861,7.7053,7.7599,7.8015,7.8284,7.8938,7.9662,8.0046,8.0508,8.0823,8.0939,8.1093,8.1093,8.1093,8.1093,8.1093,8.1093,8.1093,8.1093,8.1093,8.1016,8.0623,8.0277,8.0092,8.0015,8.0054,8.0092,8.0131,8.0208,8.0631,8.0877,8.0898,8.0943,8.0926,8.0855,8.0775,8.0753,8.0693,8.0865,8.1418,8.2194,8.2922,8.3276,8.3668,8.4078,8.4152,8.3717,8.315,8.2668,8.2293,8.2176,8.2214,8.2176,8.1629,8.1165,8.1538,8.1815,8.1795,8.1938,8.2251,8.2814,7.7226,7.7226,7.7226,7.7226,7.7226,7.7226,7.7226,7.7226,7.7226,7.7226,7.7226,7.7148,7.6719,7.6094,7.5898,7.543,7.4726,7.539,7.5195,7.5039,7.5195,7.5156,7.5156,7.539,7.5859,7.5976,7.668,7.707,7.7187,7.7422,7.6875,7.6172,7.6914,7.6601,7.6406,7.6627,7.6915,7.6767,7.655,7.6415,7.6442,7.6481,7.6519,7.6519,7.6481,7.6397,7.6469,7.7087,7.7394,7.7406,7.7718,7.7946,7.7869,7.7907,7.7907,7.8061,7.8707,7.9131,7.9438,7.9592,7.9785,8.0092,8.0516,8.1093,8.1093,8.1093,8.1093,8.1093,8.1093,8.1093,8.1093,8.1093,8.1093,8.1093,8.1093,8.0977,8.0785,8.0823,8.0746,8.09,8.0862,8.0746,8.0708,8.0977,8.1054,8.1007,8.1007,8.0983,8.0999,8.0975,8.0991,8.0953,8.0896,8.1286,8.1977,8.2467,8.2796,8.3205,8.3623,8.3742,8.3621,8.3091,8.2704,8.2842,8.2937,8.3022,8.3141,8.2992,8.2864,8.2837,8.2837,8.2673,8.3159,8.3806,8.4448,7.7226,7.7226,7.7226,7.7226,7.7226,7.7226,7.7226,7.7226,7.7226,7.7226,7.7226,7.7187,7.7031,7.6758,7.668,7.6562,7.625,7.6484,7.6445,7.6406,7.6445,7.6445,7.6406,7.6484,7.6719,7.6914,7.7578,7.8008,7.8047,7.832,7.8164,7.7812,7.7422,7.6601,7.6406,7.6722,7.6924,7.6862,7.6604,7.6409,7.6519,7.6984,7.7216,7.721,7.7835,7.7945,7.8049,7.8207,7.8258,7.8307,7.8532,7.8621,7.8684,7.8684,7.8638,7.8715,7.9477,7.9823,8.0008,8.0246,8.0592,8.0631,8.09,8.1093,8.1093,8.1093,8.1093,8.1093,8.1093,8.1093,8.1093,8.1093,8.1093,8.1093,8.1131,8.117,8.1323,8.1439,8.1439,8.1554,8.1246,8.0977,8.1016,8.1054,8.1093,8.1085,8.1085,8.1093,8.1093,8.1093,8.1093,8.1162,8.1145,8.1137,8.1744,8.2081,8.2372,8.2836,8.33,8.3431,8.3601,8.3555,8.3338,8.3492,8.3775,8.3994,8.4225,8.4541,8.4383,8.38,8.3522,8.3394,8.4176,8.5141,8.571,7.7226,7.7226,7.7226,7.7226,7.7226,7.7226,7.7226,7.7226,7.7226,7.7383,7.7617,7.7773,7.793,7.793,7.7969,7.7969,7.8047,7.8242,7.8164,7.8164,7.8242,7.8125,7.8008,7.7969,7.8086,7.8125,7.8398,7.8867,7.8867,7.9453,7.9219,7.8711,7.8242,7.7578,7.7109,7.7227,7.7553,7.7482,7.7302,7.7183,7.7326,7.7751,7.8099,7.8138,7.8564,7.8796,7.8894,7.9037,7.9172,7.9228,7.9345,7.9389,7.9376,7.9307,7.9292,7.9485,7.9746,8.0131,8.0362,8.0669,8.1093,8.1016,8.1016,8.1093,8.1093,8.1093,8.1093,8.1093,8.1093,8.1093,8.1093,8.1093,8.1362,8.1477,8.1593,8.1708,8.2093,8.2285,8.2208,8.217,8.1977,8.2016,8.2054,8.2093,8.1593,8.1439,8.1093,8.1093,8.1093,8.1093,8.1093,8.1231,8.1361,8.1407,8.1538,8.2253,8.2929,8.3053,8.3431,8.3516,8.3601,8.3755,8.3978,8.42,8.4514,8.4972,8.5207,8.5309,8.491,8.4358,8.4317,8.442,8.4792,8.571,8.628,7.7226,7.7226,7.7226,7.7226,7.7226,7.7226,7.7226,7.7226,7.7305,7.7695,7.8398,7.9062,7.9453,7.9414,7.9258,7.9219,7.9453,8.0078,8.0195,7.9687,8.0078,8.0156,7.9883,7.9648,7.9687,7.9648,7.9844,7.9922,7.9805,8.0078,7.9922,7.9883,7.9687,7.918,7.8555,7.9016,7.9277,7.917,7.8861,7.8683,7.8641,7.8796,7.895,7.9028,7.9299,7.9492,7.9596,7.9906,8.0093,8.0086,8.0484,8.0651,8.0699,8.07,8.0677,8.0785,8.0862,8.0977,8.1054,8.1093,8.1093,8.1093,8.1093,8.1093,8.1093,8.1093,8.1093,8.1093,8.1093,8.1093,8.1093,8.1208,8.1631,8.19,8.2054,8.2362,8.2755,8.2947,8.2832,8.2755,8.3178,8.3486,8.3447,8.3255,8.2477,8.1939,8.1323,8.1208,8.14,8.1554,8.1747,8.1854,8.2069,8.2154,8.2401,8.2978,8.3478,8.3563,8.3717,8.3939,8.4247,8.4555,8.4786,8.4893,8.5192,8.5544,8.5791,8.6038,8.5655,8.5394,8.5518,8.5659,8.5915,8.63,8.6995,7.7226,7.7226,7.7226,7.7226,7.7226,7.7226,7.7226,7.7305,7.7773,7.8242,7.8633,7.9336,7.9687,7.9726,7.9805,7.9844,7.9961,8.0586,8.0664,8.0742,8.1406,8.164,8.1406,8.1211,8.1328,8.1406,8.1406,8.1289,8.1445,8.125,8.1367,8.1445,8.1054,8.0625,7.9673,7.9435,7.9348,7.9279,7.9086,7.8989,7.9105,7.9492,7.9795,7.9834,8.026,8.0492,8.0453,8.0808,8.086,8.086,8.1253,8.1227,8.1222,8.1147,8.1093,8.1093,8.1093,8.1093,8.1093,8.1093,8.1093,8.1093,8.1093,8.1093,8.1093,8.1093,8.1093,8.117,8.1323,8.1285,8.1093,8.167,8.2131,8.2324,8.2554,8.3016,8.3409,8.3409,8.3409,8.3332,8.3563,8.3755,8.3793,8.4101,8.3555,8.3285,8.2862,8.2593,8.267,8.2824,8.2978,8.2986,8.3093,8.3131,8.337,8.3832,8.4255,8.4439,8.4593,8.4824,8.5124,8.5363,8.5478,8.5593,8.5824,8.6094,8.6132,8.6201,8.6492,8.6505,8.6535,8.6458,8.6466,8.7081,8.7987,7.7226,7.7226,7.7226,7.7226,7.7226,7.7226,7.7344,7.7812,7.8828,7.9375,7.957,8.0234,8.0664,8.0625,8.0586,8.0586,8.0664,8.1133,8.1445,8.1523,8.1953,8.2109,8.2226,8.2304,8.207,8.2304,8.2304,8.2226,8.2109,8.2265,8.2187,8.2148,8.2304,8.1601,8.0837,8.0528,8.0397,8.0352,8.025,8.0072,8.015,8.0376,8.0646,8.0801,8.1072,8.142,8.1497,8.1491,8.1478,8.1414,8.1347,8.127,8.1244,8.1162,8.11,8.1093,8.1093,8.1093,8.1093,8.1093,8.1093,8.1093,8.1093,8.1246,8.1439,8.1593,8.1862,8.1939,8.1862,8.19,8.2016,8.2631,8.2824,8.3054,8.3516,8.3978,8.4401,8.4478,8.4478,8.4362,8.4324,8.4332,8.4332,8.4563,8.4632,8.4555,8.4439,8.4178,8.3832,8.3832,8.3832,8.3832,8.3947,8.4055,8.4209,8.4555,8.4939,8.5277,8.5393,8.547,8.5863,8.6094,8.617,8.6286,8.6517,8.6594,8.6324,8.6355,8.6885,8.7192,8.7308,8.7201,8.7017,8.7739,8.8675,7.7226,7.7226,7.7226,7.7226,7.7226,7.7383,7.7812,7.8633,8.0195,8.0898,8.0976,8.1679,8.1953,8.2148,8.2187,8.207,8.1992,8.2148,8.2148,8.2148,8.2265,8.2304,8.2304,8.2304,8.2304,8.2304,8.2304,8.2304,8.2304,8.2304,8.2304,8.2304,8.2304,8.207,8.185,8.1618,8.1497,8.132,8.1131,8.0993,8.1033,8.1226,8.1265,8.1343,8.1459,8.1497,8.1497,8.1491,8.1491,8.1446,8.1374,8.1319,8.128,8.1177,8.1124,8.1093,8.1093,8.1131,8.1285,8.1323,8.1477,8.1593,8.1477,8.1708,8.1977,8.2247,8.2601,8.2909,8.3016,8.3247,8.3447,8.367,8.3901,8.4247,8.4709,8.517,8.567,8.5786,8.5786,8.5747,8.567,8.567,8.5555,8.5632,8.5363,8.5401,8.5247,8.4978,8.4632,8.4362,8.4362,8.4362,8.4555,8.4893,8.5085,8.5286,8.544,8.567,8.5786,8.594,8.6324,8.6632,8.6709,8.6824,8.7132,8.7209,8.7132,8.7248,8.7517,8.7786,8.8303,8.8111,8.7995,8.8363,8.9115,7.7226,7.7226,7.7226,7.7226,7.7383,7.8437,7.8828,7.8789,8.0273,8.1015,8.1054,8.1914,8.2304,8.2304,8.2304,8.2304,8.2304,8.2304,8.2304,8.2304,8.2304,8.2304,8.2304,8.2304,8.2304,8.2304,8.2304,8.2304,8.2304,8.2304,8.2304,8.2304,8.2304,8.2304,8.22,8.2038,8.1939,8.1826,8.1608,8.1547,8.1497,8.1497,8.1497,8.1497,8.1497,8.1497,8.1497,8.1497,8.1497,8.1472,8.1414,8.1353,8.1277,8.1229,8.1162,8.1093,8.117,8.1285,8.1823,8.1939,8.2131,8.2562,8.2755,8.2477,8.2631,8.2901,8.3409,8.3793,8.3947,8.4055,8.417,8.4401,8.4593,8.4939,8.5324,8.5709,8.6094,8.6094,8.6094,8.6094,8.6094,8.6094,8.6094,8.6017,8.5786,8.5978,8.5978,8.567,8.544,8.5093,8.4978,8.4978,8.5132,8.5431,8.5624,8.5786,8.594,8.6055,8.6094,8.6132,8.6286,8.6594,8.7017,8.7478,8.794,8.8132,8.8132,8.8402,8.8902,8.9158,8.9522,8.9205,8.9051,8.9461,8.994,7.7226,7.7226,7.7226,7.7226,7.7422,7.8633,7.8906,7.8906,8.0625,8.1523,8.1601,8.207,8.2304,8.2304,8.2304,8.2304,8.2304,8.2304,8.2304,8.2304,8.2304,8.2304,8.2304,8.2304,8.2304,8.2304,8.2304,8.2304,8.2304,8.2304,8.2304,8.2304,8.2304,8.2304,8.2242,8.2045,8.1926,8.1813,8.17,8.1559,8.1497,8.1497,8.1497,8.1497,8.1497,8.1497,8.1497,8.1497,8.1497,8.1485,8.1433,8.138,8.1312,8.1241,8.1177,8.1185,8.1516,8.1785,8.2208,8.267,8.3062,8.3524,8.3947,8.3862,8.3747,8.3939,8.4324,8.4709,8.467,8.4709,8.4863,8.5016,8.5209,8.5401,8.5709,8.6055,8.6094,8.6094,8.6094,8.6094,8.6094,8.6094,8.6094,8.6094,8.6094,8.6094,8.6094,8.5978,8.5863,8.5747,8.567,8.567,8.5786,8.5978,8.6094,8.6132,8.6132,8.6132,8.6094,8.6132,8.6286,8.6863,8.7594,8.8248,8.8863,8.9064,8.9389,9.0064,9.0603,9.0693,9.094,9.1275,9.1029,9.0759,9.1221,7.7226,7.7226,7.7226,7.7226,7.7344,7.8164,7.8515,7.8789,8.1015,8.2148,8.2109,8.2226,8.2304,8.2304,8.2304,8.2304,8.2304,8.2304,8.2304,8.2304,8.2304,8.2304,8.2304,8.2304,8.2304,8.2304,8.2304,8.2304,8.2304,8.2304,8.2304,8.2304,8.2304,8.2304,8.2248,8.2036,8.1916,8.1843,8.169,8.1497,8.1497,8.1497,8.1497,8.1497,8.1497,8.1497,8.1497,8.1497,8.1497,8.1478,8.1453,8.1407,8.1347,8.1256,8.1184,8.1362,8.1762,8.2247,8.2708,8.3293,8.3755,8.4178,8.4516,8.4786,8.4863,8.4863,8.517,8.5401,8.5401,8.5401,8.5555,8.5593,8.5709,8.5786,8.594,8.6094,8.6094,8.6094,8.6094,8.6094,8.6094,8.6094,8.6094,8.6094,8.6094,8.6094,8.6094,8.6094,8.617,8.617,8.6209,8.6209,8.6094,8.6132,8.6209,8.6209,8.6209,8.6209,8.6247,8.6363,8.6632,8.7401,8.8325,8.918,9.0073,9.0445,9.08,9.1181,9.1424,9.1705,9.2148,9.3237,9.3128,9.2204,9.2574,7.7226,7.7226,7.7226,7.7226,7.7344,7.8125,7.8476,7.8672,8.0469,8.1289,8.1445,8.1953,8.2304,8.2304,8.2304,8.2304,8.2304,8.2304,8.2304,8.2304,8.2304,8.2304,8.2304,8.2304,8.2304,8.2304,8.2304,8.2304,8.2304,8.2304,8.2304,8.2304,8.2304,8.2304,8.2408,8.2157,8.2043,8.2221,8.1967,8.1838,8.1781,8.162,8.1497,8.1575,8.1613,8.1691,8.1691,8.1652,8.1575,8.1491,8.1485,8.1446,8.1394,8.1294,8.1214,8.1331,8.2093,8.2732,8.3362,8.4055,8.467,8.5209,8.5593,8.5709,8.5778,8.5824,8.5863,8.6017,8.6094,8.6094,8.6094,8.6094,8.6094,8.6094,8.6094,8.6094,8.6094,8.6094,8.6094,8.6094,8.6094,8.617,8.617,8.6209,8.6094,8.6094,8.6094,8.6132,8.6324,8.6401,8.6555,8.6517,8.617,8.617,8.6286,8.6555,8.6671,8.6786,8.6901,8.6978,8.7132,8.8248,8.9479,9.0505,9.1369,9.1591,9.1636,9.1446,9.1724,9.2372,9.2697,9.3497,9.344,9.2682,9.3608,7.7226,7.7226,7.7226,7.7226,7.7305,7.7734,7.793,7.8242,7.9687,8.0429,8.0625,8.164,8.2304,8.2304,8.2304,8.2304,8.2304,8.2304,8.2304,8.2304,8.2304,8.2304,8.2304,8.2304,8.2304,8.2304,8.2304,8.2304,8.2304,8.2304,8.2304,8.2304,8.2344,8.2459,8.2678,8.2645,8.2653,8.3065,8.2725,8.2652,8.252,8.2373,8.2432,8.2471,8.2625,8.2587,8.2664,8.2658,8.2664,8.2703,8.2774,8.2696,8.2682,8.2607,8.2444,8.2616,8.3102,8.3671,8.4225,8.4871,8.5563,8.5956,8.6094,8.5978,8.5978,8.5978,8.5978,8.6094,8.6094,8.6094,8.6094,8.6094,8.6094,8.6094,8.6094,8.6094,8.6094,8.6094,8.6094,8.6132,8.6363,8.6824,8.6978,8.744,8.7401,8.7478,8.7286,8.7132,8.7132,8.6901,8.6978,8.694,8.6709,8.6632,8.6863,8.7094,8.7325,8.744,8.7594,8.8325,8.894,8.971,9.0671,9.1608,9.231,9.2541,9.2466,9.2176,9.2611,9.3394,9.3434,9.3519,9.3352,9.3475,9.4586,7.7226,7.7226,7.7226,7.7226,7.7226,7.7226,7.7265,7.7539,7.8984,7.9726,8.0039,8.1562,8.2226,8.2304,8.2304,8.2304,8.2304,8.2304,8.2304,8.2304,8.2304,8.2304,8.2304,8.2304,8.2304,8.2304,8.2304,8.2304,8.2304,8.2304,8.2304,8.2304,8.2461,8.2694,8.3303,8.3494,8.3454,8.3934,8.4033,8.4156,8.3915,8.3488,8.3495,8.3786,8.4095,8.4095,8.4095,8.4057,8.4063,8.3979,8.3824,8.3721,8.3643,8.3518,8.3533,8.3616,8.4142,8.4597,8.4973,8.5543,8.592,8.6135,8.6118,8.611,8.611,8.6102,8.6102,8.6094,8.6094,8.6094,8.6094,8.6094,8.6094,8.6132,8.6132,8.617,8.617,8.617,8.6209,8.6247,8.6786,8.7325,8.7872,8.8372,8.8564,8.8679,8.8718,8.8718,8.8526,8.8102,8.7902,8.7748,8.7517,8.7478,8.7555,8.7863,8.8209,8.8209,8.8517,8.9671,9.0603,9.1005,9.1656,9.2584,9.3139,9.2959,9.3048,9.2877,9.3524,9.3907,9.3843,9.3657,9.415,9.4456,9.5652,7.7226,7.7226,7.7226,7.7226,7.7226,7.7226,7.7226,7.7461,7.8984,7.9726,8.0156,8.1406,8.2304,8.2304,8.2304,8.2304,8.2304,8.2304,8.2304,8.2304,8.2304,8.2304,8.2304,8.2304,8.2304,8.2304,8.2304,8.2304,8.2383,8.2344,8.2344,8.2383,8.2422,8.2812,8.3509,8.3713,8.4052,8.4626,8.4824,8.4751,8.4965,8.4535,8.3998,8.4057,8.4095,8.4095,8.4095,8.4095,8.4095,8.4095,8.425,8.4276,8.4295,8.43,8.4246,8.4428,8.4956,8.5151,8.5499,8.5946,8.6215,8.6293,8.6269,8.6153,8.6175,8.6126,8.6118,8.6094,8.6094,8.6094,8.6094,8.6094,8.6094,8.6247,8.6324,8.6401,8.644,8.6517,8.6594,8.6901,8.7401,8.794,8.8479,8.8833,8.894,8.9064,8.9103,8.9064,8.9171,8.8987,8.8833,8.8679,8.844,8.8372,8.8487,8.894,8.9201,8.9171,8.9402,9.0441,9.1275,9.1865,9.2563,9.3194,9.3098,9.2799,9.2945,9.3257,9.3206,9.3449,9.3659,9.3832,9.446,9.5187,9.616]}]]